[[{"header":{"parameterUnit":"m.s-1","parameterCategory":1,"la1":30.6,"la2":28.766,"lo1":-90.7593,"lo2":-88.6598,"dy":0.0162,"dx":0.0183,"nx":116,"ny":114,"refTime":"2024-05-16T06:00:00:Z","depth":0,"parameterNumber":2,"parameterNumberName":"U-component_of_WINDS"},"data":[0.0,0.0,0.0,0.0,0.0,0.0,0.0,0.0,0.0,0.0,0.0,0.0,0.0,0.0,0.0,0.0,0.0,0.0,0.0,0.0,0.0,0.0,0.0,0.0,0.0,0.0,0.0,0.0,0.0,0.0,0.0,0.0,0.0,0.0,0.0,0.0,0.0,0.0,0.0,0.0,0.0,0.0,0.0,0.0,0.0,0.0,0.0,0.0,0.0,0.0,0.0,0.0,0.0,0.0,0.0,0.0,0.0,0.0,0.0,0.0,0.0,0.0,0.0,0.0,0.0,0.0,0.0,0.0,0.0,0.0,0.0,0.0,0.0,0.0,0.0,0.0,0.0,0.0,0.0,0.0,0.0,0.0,0.0,0.0,0.0,0.0,0.0,0.0,0.0,0.0,0.0,0.0,0.0,0.0,0.0,0.0,0.0,0.0,0.0,0.0,0.0,0.0,0.0,0.0,0.0,0.0,0.0,0.0,0.0,0.0,0.0,0.0,0.0,0.0,0.0,0.0,0.0,0.0,0.0,0.0,0.0,0.0,0.0,0.0,0.0,0.0,0.0,0.0,0.0,0.0,0.0,0.0,0.0,0.0,0.0,0.0,0.0,0.0,0.0,0.0,0.0,0.0,0.0,0.0,0.0,0.0,0.0,0.0,0.0,0.0,0.0,0.0,0.0,0.0,0.0,0.0,0.0,0.0,0.0,0.0,0.0,0.0,0.0,0.0,0.0,0.0,0.0,0.0,0.0,0.0,0.0,0.0,0.0,0.0,0.0,0.0,0.0,0.0,0.0,0.0,0.0,0.0,0.0,0.0,0.0,0.0,0.0,0.0,0.0,0.0,0.0,0.0,0.0,0.0,0.0,0.0,0.0,0.0,0.0,0.0,0.0,0.0,0.0,0.0,0.0,0.0,0.0,0.0,0.0,0.0,0.0,0.0,0.0,0.0,0.0,0.0,0.0,0.0,0.0,0.0,0.0,0.0,0.0,0.0,0.0,0.0,0.0,0.0,0.0,0.0,0.0,0.0,0.0,0.0,0.0,0.0,0.0,0.0,0.0,0.0,0.0,0.0,0.0,0.0,0.0,0.0,0.0,0.0,0.0,0.0,0.0,0.0,0.0,0.0,0.0,0.0,0.0,0.0,0.0,0.0,0.0,0.0,0.0,0.0,0.0,0.0,0.0,0.0,0.0,0.0,0.0,0.0,0.0,0.0,0.0,0.0,0.0,0.0,0.0,0.0,0.0,0.0,0.0,0.0,0.0,0.0,0.0,0.0,0.0,0.0,0.0,0.0,0.0,0.0,0.0,0.0,0.0,0.0,0.0,0.0,0.0,0.0,0.0,0.0,0.0,0.0,0.0,0.0,0.0,0.0,0.0,0.0,0.0,0.0,0.0,0.0,0.0,0.0,0.0,0.0,0.0,0.0,0.0,0.0,0.0,0.0,0.0,0.0,0.0,0.0,0.0,0.0,0.0,0.0,0.0,0.0,0.0,0.0,0.0,0.0,0.0,0.0,0.0,0.0,0.0,0.0,0.0,0.0,0.0,0.0,0.0,0.0,0.0,0.0,0.0,0.0,0.0,0.0,0.0,0.0,0.0,0.0,0.0,0.0,0.0,0.0,0.0,0.0,0.0,0.0,0.0,0.0,0.0,0.0,0.0,0.0,0.0,0.0,0.0,0.0,0.0,0.0,0.0,0.0,0.0,0.0,0.0,0.0,0.0,0.0,0.0,0.0,0.0,0.0,0.0,0.0,0.0,0.0,0.0,0.0,0.0,0.0,0.0,0.0,0.0,0.0,0.0,0.0,0.0,0.0,0.0,0.0,0.0,0.0,0.0,0.0,0.0,0.0,0.0,0.0,0.0,0.0,0.0,0.0,0.0,0.0,0.0,0.0,0.0,0.0,0.0,0.0,0.0,0.0,0.0,0.0,0.0,0.0,0.0,0.0,0.0,0.0,0.0,0.0,0.0,0.0,0.0,0.0,0.0,0.0,0.0,0.0,0.0,0.0,0.0,0.0,0.0,0.0,0.0,0.0,0.0,0.0,0.0,0.0,0.0,0.0,0.0,0.0,0.0,0.0,0.0,0.0,0.0,0.0,0.0,0.0,0.0,0.0,0.0,0.0,0.0,0.0,0.0,0.0,0.0,0.0,0.0,0.0,0.0,0.0,0.0,0.0,0.0,0.0,0.0,0.0,0.0,0.0,0.0,0.0,0.0,0.0,0.0,0.0,0.0,0.0,0.0,0.0,0.0,0.0,0.0,0.0,0.0,0.0,0.0,0.0,0.0,0.0,0.0,0.0,0.0,0.0,0.0,0.0,0.0,0.0,0.0,0.0,0.0,0.0,0.0,0.0,0.0,0.0,0.0,0.0,0.0,0.0,0.0,0.0,0.0,0.0,0.0,0.0,0.0,0.0,0.0,0.0,0.0,0.0,0.0,0.0,0.0,0.0,0.0,0.0,0.0,0.0,0.0,0.0,0.0,0.0,0.0,0.0,0.0,0.0,0.0,0.0,0.0,0.0,0.0,0.0,0.0,0.0,0.0,0.0,0.0,0.0,0.0,0.0,0.0,0.0,0.0,0.0,0.0,0.0,0.0,0.0,0.0,0.0,0.0,0.0,0.0,0.0,0.0,0.0,0.0,0.0,0.0,0.0,0.0,0.0,0.0,0.0,0.0,0.0,0.0,0.0,0.0,0.0,0.0,0.0,0.0,0.0,0.0,0.0,0.0,0.0,0.0,0.0,0.0,0.0,0.0,0.0,0.0,0.0,0.0,0.0,0.0,0.0,0.0,0.0,0.0,0.0,0.0,0.0,0.0,0.0,0.0,0.0,0.0,0.0,0.0,0.0,0.0,0.0,0.0,0.0,0.0,0.0,0.0,0.0,0.0,0.0,0.0,0.0,0.0,0.0,0.0,0.0,0.0,0.0,0.0,0.0,0.0,0.0,0.0,0.0,0.0,0.0,0.0,0.0,0.0,0.0,0.0,0.0,0.0,0.0,0.0,0.0,0.0,0.0,0.0,0.0,0.0,0.0,0.0,0.0,0.0,0.0,0.0,0.0,0.0,0.0,0.0,0.0,0.0,0.0,0.0,0.0,0.0,0.0,0.0,0.0,0.0,0.0,0.0,0.0,0.0,0.0,0.0,0.0,0.0,0.0,0.0,0.0,0.0,0.0,0.0,0.0,0.0,0.0,0.0,0.0,0.0,0.0,0.0,0.0,0.0,0.0,0.0,0.0,0.0,0.0,0.0,0.0,0.0,0.0,0.0,0.0,0.0,0.0,0.0,0.0,0.0,0.0,0.0,0.0,0.0,0.0,0.0,0.0,0.0,0.0,0.0,0.0,0.0,0.0,0.0,0.0,0.0,0.0,0.0,0.0,0.0,0.0,0.0,0.0,0.0,0.0,0.0,0.0,0.0,0.0,0.0,0.0,0.0,0.0,0.0,0.0,0.0,0.0,0.0,0.0,0.0,0.0,0.0,0.0,0.0,0.0,0.0,0.0,0.0,0.0,0.0,0.0,0.0,0.0,0.0,0.0,0.0,0.0,0.0,0.0,0.0,0.0,0.0,0.0,0.0,0.0,0.0,0.0,0.0,0.0,0.0,0.0,0.0,0.0,0.0,0.0,0.0,0.0,0.0,0.0,0.0,0.0,0.0,0.0,0.0,0.0,0.0,0.0,0.0,0.0,0.0,0.0,0.0,0.0,0.0,0.0,0.0,0.0,0.0,0.0,0.0,0.0,0.0,0.0,0.0,0.0,0.0,0.0,0.0,0.0,0.0,0.0,0.0,0.0,0.0,0.0,0.0,0.0,0.0,0.0,0.0,0.0,0.0,0.0,0.0,0.0,0.0,0.0,0.0,0.0,0.0,0.0,0.0,0.0,0.0,0.0,0.0,0.0,0.0,0.0,0.0,0.0,0.0,0.0,0.0,0.0,0.0,0.0,0.0,0.0,0.0,0.0,0.0,0.0,0.0,0.0,0.0,0.0,0.0,0.0,0.0,0.0,0.0,0.0,0.0,0.0,0.0,0.0,0.0,0.0,0.0,0.0,0.0,0.0,0.0,0.0,0.0,0.0,0.0,0.0,0.0,0.0,0.0,0.0,0.0,0.0,0.0,0.0,0.0,0.0,0.0,0.0,0.0,0.0,0.0,0.0,0.0,0.0,0.0,0.0,0.0,0.0,0.0,0.0,0.0,0.0,0.0,0.0,0.0,0.0,0.0,0.0,0.0,0.0,0.0,0.0,0.0,0.0,0.0,0.0,0.0,0.0,0.0,0.0,0.0,0.0,0.0,0.0,0.0,0.0,0.0,0.0,0.0,0.0,0.0,0.0,0.0,0.0,0.0,0.0,0.0,0.0,0.0,0.0,0.0,0.0,0.0,0.0,0.0,0.0,0.0,0.0,0.0,0.0,0.0,0.0,0.0,0.0,0.0,0.0,0.0,0.0,0.0,0.0,0.0,0.0,0.0,0.0,0.0,0.0,0.0,0.0,0.0,0.0,0.0,0.0,0.0,0.0,0.0,0.0,0.0,0.0,0.0,0.0,0.0,0.0,0.0,0.0,0.0,0.0,0.0,0.0,0.0,0.0,0.0,0.0,0.0,0.0,0.0,0.0,0.0,0.0,0.0,0.0,0.0,0.0,0.0,0.0,0.0,0.0,0.0,0.0,0.0,0.0,0.0,0.0,0.0,0.0,0.0,0.0,0.0,0.0,0.0,0.0,0.0,0.0,0.0,0.0,0.0,0.0,0.0,0.0,0.0,0.0,0.0,0.0,0.0,0.0,0.0,0.0,0.0,0.0,0.0,0.0,0.0,0.0,0.0,0.0,0.0,0.0,0.0,0.0,0.0,0.0,0.0,0.0,0.0,0.0,0.0,0.0,0.0,0.0,0.0,0.0,0.0,0.0,0.0,0.0,0.0,0.0,0.0,0.0,0.0,0.0,0.0,0.0,0.0,0.0,0.0,0.0,0.0,0.0,0.0,0.0,0.0,0.0,0.0,0.0,0.0,0.0,0.0,0.0,0.0,0.0,0.0,0.0,0.0,0.0,0.0,0.0,0.0,0.0,0.0,0.0,0.0,0.0,0.0,0.0,0.0,0.0,0.0,0.0,0.0,0.0,0.0,0.0,0.0,0.0,0.0,0.0,0.0,0.0,0.0,0.0,0.0,0.0,0.0,0.0,0.0,0.0,0.0,0.0,0.0,0.0,0.0,0.0,0.0,0.0,0.0,0.0,0.0,0.0,0.0,0.0,0.0,0.0,0.0,0.0,0.0,0.0,0.0,0.0,0.0,0.0,0.0,0.0,0.0,0.0,0.0,0.0,0.0,0.0,0.0,0.0,0.0,0.0,0.0,0.0,0.0,0.0,0.0,0.0,0.0,0.0,0.0,0.0,0.0,0.0,0.0,0.0,0.0,0.0,0.0,0.0,0.0,0.0,0.0,0.0,0.0,0.0,0.0,0.0,0.0,0.0,0.0,0.0,0.0,0.0,0.0,0.0,0.0,0.0,0.0,0.0,0.0,0.0,0.0,0.0,0.0,0.0,0.0,0.0,0.0,0.0,0.0,0.0,0.0,0.0,0.0,0.0,0.0,0.0,0.0,0.0,0.0,0.0,0.0,0.0,0.0,0.0,0.0,0.0,0.0,0.0,0.0,0.0,0.0,0.0,0.0,0.0,0.0,0.0,0.0,0.0,0.0,0.0,0.0,0.0,0.0,0.0,0.0,0.0,0.0,0.0,0.0,0.0,0.0,0.0,0.0,0.0,0.0,0.0,0.0,0.0,0.0,0.0,0.0,0.0,0.0,0.0,0.0,0.0,0.0,0.0,0.0,0.0,0.0,0.0,0.0,0.0,0.0,0.0,0.0,0.0,0.0,0.0,0.0,0.0,0.0,0.0,0.0,0.0,0.0,0.0,0.0,0.0,0.0,0.0,0.0,0.0,0.0,0.0,0.0,0.0,0.0,0.0,0.0,0.0,0.0,0.0,0.0,0.0,0.0,0.0,0.0,0.0,0.0,0.0,0.0,0.0,0.0,0.0,0.0,0.0,0.0,0.0,0.0,0.0,0.0,0.0,0.0,0.0,0.0,0.0,0.0,0.0,-0.429,-0.4354,0.0,0.0,0.0,0.0,0.0,0.0,0.0,0.0,0.0,0.0,0.0,0.0,0.0,0.0,0.0,0.0,0.0,0.0,0.0,0.0,0.0,0.0,0.0,-0.6189,-0.6063,-0.6052,-0.5822,-0.5686,-0.5708,0.0,0.0,0.0,0.0,0.0,-0.607,-0.6413,-0.6583,-0.6554,-0.6349,-0.6107,-0.5856,-0.6139,-0.6276,-0.6272,0.0,0.0,0.0,0.0,0.0,0.0,0.0,0.0,0.0,0.0,0.0,0.0,0.0,0.0,0.0,0.0,0.0,0.0,0.0,0.0,0.0,0.0,0.0,0.0,0.0,0.0,0.0,0.0,0.0,0.0,0.0,0.0,0.0,0.0,0.0,0.0,0.0,0.0,0.0,0.0,0.0,0.0,0.0,0.0,0.0,0.0,0.0,0.0,0.0,0.0,0.0,0.0,0.0,0.0,0.0,0.0,0.0,0.0,0.0,0.0,0.0,0.0,0.0,0.0,0.0,0.0,0.0,0.0,0.0,0.0,-0.4313,-0.4273,0.0,0.0,0.0,0.0,0.0,0.0,0.0,0.0,0.0,0.0,0.0,0.0,0.0,0.0,0.0,0.0,0.0,0.0,0.0,0.0,0.0,-0.6057,-0.643,-0.5929,-0.5646,-0.5816,-0.5418,-0.5244,-0.5441,-0.5438,0.0,0.0,0.0,-0.5998,-0.5837,-0.6319,-0.6531,-0.6391,-0.6117,-0.5831,-0.554,-0.5524,-0.5545,-0.5603,-0.5983,0.0,0.0,0.0,0.0,0.0,0.0,0.0,0.0,0.0,0.0,0.0,0.0,0.0,0.0,0.0,0.0,0.0,0.0,0.0,0.0,0.0,0.0,0.0,0.0,0.0,0.0,0.0,0.0,0.0,0.0,0.0,0.0,0.0,0.0,0.0,0.0,0.0,0.0,0.0,0.0,0.0,0.0,0.0,0.0,0.0,0.0,0.0,0.0,0.0,0.0,0.0,0.0,0.0,0.0,0.0,0.0,0.0,0.0,0.0,0.0,0.0,0.0,0.0,-0.4871,-0.4711,-0.4402,-0.4456,-0.4482,-0.4469,-0.4467,-0.4308,-0.4114,-0.4541,0.0,0.0,0.0,0.0,0.0,0.0,0.0,0.0,0.0,0.0,0.0,0.0,0.0,0.0,0.0,0.0,0.0,0.0,0.0,-0.5929,-0.5984,-0.5911,-0.5764,-0.5571,-0.5482,-0.5393,-0.5253,-0.519,0.0,0.0,-0.5463,-0.5576,-0.5549,-0.6178,-0.6336,-0.598,-0.5157,-0.4538,-0.4159,-0.4041,-0.4099,-0.4371,-0.5473,-0.6172,-0.6495,0.0,0.0,0.0,0.0,0.0,0.0,0.0,0.0,0.0,0.0,0.0,0.0,0.0,0.0,0.0,0.0,0.0,0.0,0.0,0.0,0.0,0.0,0.0,0.0,0.0,0.0,0.0,0.0,0.0,0.0,0.0,0.0,0.0,0.0,0.0,0.0,0.0,0.0,0.0,0.0,0.0,-0.5557,-0.5156,0.0,0.0,0.0,0.0,0.0,0.0,0.0,0.0,0.0,0.0,0.0,0.0,0.0,-0.514,-0.514,-0.5192,-0.5078,-0.4814,-0.5086,-0.4955,-0.4409,-0.4635,-0.4748,-0.4748,-0.4736,0.0,-0.4355,-0.4424,0.0,0.0,0.0,0.0,0.0,0.0,0.0,0.0,0.0,0.0,0.0,0.0,0.0,0.0,0.0,0.0,0.0,0.0,0.0,0.0,0.0,-0.5745,-0.5507,-0.5559,-0.5414,-0.5239,-0.4992,-0.5103,-0.5073,-0.4882,-0.5272,-0.5549,-0.5663,-0.5993,-0.594,-0.5516,-0.5016,-0.4584,-0.4186,-0.4116,-0.4162,-0.4283,-0.4826,-0.5323,-0.5848,-0.6182,0.0,0.0,0.0,0.0,0.0,0.0,0.0,0.0,0.0,0.0,0.0,0.0,0.0,0.0,0.0,0.0,0.0,0.0,0.0,0.0,0.0,0.0,0.0,0.0,0.0,0.0,0.0,0.0,0.0,0.0,0.0,0.0,0.0,0.0,0.0,0.0,0.0,0.0,0.0,-0.5685,-0.5813,-0.5818,-0.6016,-0.5967,0.0,0.0,0.0,0.0,0.0,0.0,0.0,0.0,0.0,-0.498,-0.5158,-0.5262,-0.5262,-0.5599,-0.5709,-0.5577,-0.5746,-0.5672,-0.5416,-0.5344,-0.5299,-0.5285,-0.5157,-0.501,-0.4906,-0.4869,-0.4763,-0.4605,0.0,0.0,0.0,0.0,-0.37,-0.3747,0.0,0.0,0.0,0.0,0.0,0.0,0.0,0.0,0.0,0.0,0.0,0.0,-0.5899,-0.529,-0.4957,-0.5156,-0.5081,-0.4955,-0.477,-0.4977,-0.502,-0.4835,-0.5127,-0.5392,-0.564,-0.562,-0.5339,-0.4757,-0.4701,-0.4319,-0.3605,-0.397,-0.4035,-0.3914,-0.4239,-0.4774,-0.5431,-0.6128,-0.6354,0.0,0.0,0.0,0.0,0.0,0.0,0.0,0.0,0.0,0.0,0.0,0.0,0.0,0.0,0.0,0.0,0.0,0.0,0.0,0.0,0.0,0.0,0.0,0.0,0.0,0.0,0.0,0.0,0.0,0.0,0.0,0.0,0.0,0.0,0.0,0.0,0.0,0.0,-0.5936,-0.6055,-0.6367,-0.6514,-0.6416,0.0,0.0,0.0,0.0,0.0,0.0,-0.5353,-0.5145,-0.5076,-0.5154,-0.5397,-0.5537,-0.5537,-0.5974,-0.6196,-0.6196,-0.6196,-0.6196,-0.6189,-0.5925,-0.5785,-0.5705,-0.5564,-0.5497,-0.5396,-0.5192,-0.4921,-0.4623,-0.4455,-0.4329,-0.4194,-0.3526,-0.3369,-0.3443,0.0,0.0,0.0,0.0,0.0,0.0,0.0,0.0,0.0,0.0,0.0,-0.5225,-0.5002,-0.4382,-0.3966,-0.3973,-0.4387,-0.461,0.0,-0.4754,-0.4916,-0.5169,-0.4892,-0.4894,-0.5232,-0.4984,-0.4443,-0.3588,-0.3754,-0.3036,-0.1486,-0.2777,-0.3086,-0.2633,-0.3855,-0.4964,-0.5838,-0.5176,-0.5823,-0.7129,0.0,0.0,0.0,0.0,0.0,0.0,0.0,0.0,0.0,0.0,0.0,0.0,0.0,0.0,0.0,0.0,0.0,0.0,0.0,0.0,0.0,0.0,0.0,0.0,0.0,0.0,0.0,0.0,0.0,0.0,0.0,0.0,0.0,0.0,0.0,0.0,0.0,0.0,0.0,-0.6406,-0.6797,0.0,0.0,0.0,0.0,-0.585,-0.5472,-0.5345,-0.5652,-0.5645,-0.5813,-0.6131,-0.6135,-0.6149,-0.6149,-0.6176,-0.6196,-0.6196,-0.6196,-0.6196,-0.6196,-0.6176,-0.6014,-0.5725,-0.6035,-0.5988,-0.5645,-0.507,-0.4591,-0.4205,-0.3876,-0.3588,-0.331,-0.2888,-0.2981,-0.3255,0.0,0.0,0.0,0.0,0.0,-0.5948,-0.6129,-0.6147,-0.6063,-0.5775,-0.5328,-0.4938,-0.4675,-0.4202,-0.3931,-0.3972,-0.413,-0.4257,-0.434,-0.4396,-0.4643,-0.5162,-0.5094,-0.4925,-0.4683,-0.4292,-0.3613,-0.2671,-0.2555,-0.2215,-0.1621,-0.2121,-0.2442,-0.2662,-0.3093,-0.3921,-0.4953,-0.5143,-0.5421,-0.5708,-0.5973,-0.6366,0.0,0.0,0.0,0.0,0.0,0.0,0.0,0.0,0.0,0.0,0.0,0.0,0.0,0.0,0.0,0.0,0.0,0.0,0.0,0.0,0.0,0.0,0.0,0.0,0.0,0.0,0.0,0.0,0.0,0.0,0.0,0.0,0.0,0.0,0.0,0.0,0.0,-0.7637,-0.8057,0.0,-0.7715,-0.78,-0.7488,-0.6614,-0.6682,-0.6518,-0.6057,-0.6035,-0.6082,-0.6189,-0.6377,-0.6471,-0.6471,-0.662,-0.6713,-0.6713,-0.6713,-0.6713,-0.6707,-0.652,-0.6379,-0.6273,-0.623,-0.6135,-0.6021,-0.5806,-0.5617,-0.542,-0.484,-0.4427,-0.4097,-0.3681,-0.361,-0.3738,0.0,0.0,0.0,0.0,-0.5689,-0.5689,-0.5874,-0.5911,-0.5759,-0.5343,-0.4937,-0.4539,-0.4142,-0.3746,-0.3505,-0.3556,-0.3695,-0.3859,-0.4119,-0.43,-0.4637,-0.5182,-0.4928,-0.4496,-0.3957,-0.3442,-0.2711,-0.175,-0.1804,-0.1607,-0.1207,-0.1607,-0.1919,-0.2095,-0.2317,-0.2937,-0.3851,-0.4367,-0.4752,-0.51,-0.5748,-0.6336,-0.68,0.0,0.0,0.0,0.0,0.0,0.0,0.0,0.0,0.0,0.0,0.0,0.0,0.0,0.0,0.0,0.0,0.0,0.0,0.0,0.0,0.0,0.0,0.0,0.0,0.0,0.0,0.0,0.0,0.0,0.0,0.0,0.0,0.0,0.0,0.0,-0.8105,-0.8535,-0.8838,-0.8896,-0.8613,-0.8737,-0.8449,-0.7603,-0.7555,-0.7309,-0.6793,-0.6562,-0.6485,-0.6485,-0.6633,-0.6734,-0.6734,-0.6927,-0.6979,-0.6979,-0.6979,-0.6979,-0.7014,-0.682,-0.68,-0.6848,-0.6796,-0.6812,-0.6855,-0.6668,-0.6656,-0.6681,-0.565,-0.504,-0.4737,-0.4404,-0.4354,-0.4431,0.0,0.0,0.0,-0.553,-0.5708,-0.5874,-0.5874,-0.5863,-0.5616,-0.4958,-0.4507,-0.4016,-0.3359,-0.2928,-0.2679,-0.2712,-0.3068,-0.349,-0.3993,-0.4496,-0.4903,-0.5168,-0.4346,-0.365,-0.3093,-0.2483,-0.1752,-0.0851,-0.1474,-0.1163,-0.0045,-0.1208,-0.1432,-0.0942,-0.1521,-0.2101,-0.2677,-0.2674,-0.3712,-0.5397,-0.5299,-0.5976,-0.6964,0.0,0.0,0.0,0.0,0.0,0.0,0.0,0.0,0.0,0.0,0.0,0.0,0.0,0.0,0.0,0.0,0.0,0.0,0.0,0.0,0.0,0.0,0.0,0.0,0.0,0.0,0.0,0.0,0.0,0.0,0.0,0.0,0.0,-0.8148,-0.8308,-0.8564,-0.8975,-0.9033,-0.9053,-0.9062,-0.8709,-0.8594,-0.8827,-0.8002,-0.7613,-0.7912,-0.7377,-0.7076,-0.7076,-0.707,-0.707,-0.7076,-0.7027,-0.7021,-0.7021,-0.7021,-0.6979,-0.6979,-0.6979,-0.7147,-0.7416,-0.7762,-0.8006,-0.8147,-0.7633,-0.7604,-0.7721,-0.6149,-0.5375,-0.5115,-0.4983,-0.5105,-0.5346,0.0,0.0,-0.552,-0.5253,-0.5262,-0.5319,-0.5319,-0.5156,-0.4872,-0.4373,-0.368,-0.3165,-0.3023,-0.252,-0.2314,-0.2679,-0.2812,-0.3327,-0.4355,-0.4061,-0.4205,-0.494,-0.4087,-0.3368,-0.2819,-0.1781,-0.0928,-0.0269,-0.0403,-0.0314,0.0,-0.0324,-0.0656,-0.0889,-0.1076,-0.1495,-0.2048,-0.2033,-0.2341,-0.2945,-0.4271,-0.5541,-0.66,0.0,0.0,0.0,0.0,0.0,0.0,0.0,0.0,0.0,0.0,0.0,0.0,0.0,0.0,0.0,0.0,0.0,0.0,0.0,0.0,0.0,0.0,0.0,0.0,0.0,0.0,0.0,0.0,0.0,0.0,0.0,0.0,-0.8632,-0.8552,-0.8974,-0.9291,-0.9408,-0.9736,-1.0059,-1.0352,-1.0263,-1.0236,-1.0264,-0.9993,-0.9572,-0.8944,-0.8757,-0.8672,-0.8672,-0.8393,-0.8377,-0.8664,-0.7975,-0.7663,-0.7655,-0.7189,-0.6979,-0.6979,-0.6979,-0.7273,-0.7777,-0.7874,-0.7941,-0.7972,-0.781,-0.7575,-0.7196,-0.6534,-0.6126,-0.5893,-0.5866,-0.5887,-0.6002,0.0,-0.533,-0.5291,-0.5127,-0.5108,-0.5108,-0.5108,-0.4873,-0.4461,-0.3815,-0.3185,-0.2641,-0.2261,-0.2101,-0.2114,-0.238,-0.2869,-0.3575,-0.4547,-0.4437,-0.4477,-0.4771,-0.3593,-0.2767,-0.2325,-0.1147,-0.0372,0.0,0.0,0.0,0.0,0.0,-0.0196,-0.0538,-0.0537,-0.0869,-0.1423,-0.1436,-0.1588,-0.1914,-0.2973,-0.4319,-0.5636,-0.5836,-0.6414,-0.7012,-0.6299,-0.6401,-0.6867,-0.6712,0.0,0.0,0.0,0.0,0.0,0.0,0.0,0.0,0.0,0.0,0.0,0.0,0.0,0.0,0.0,0.0,0.0,0.0,0.0,0.0,0.0,0.0,0.0,0.0,-0.9161,-0.9338,-0.9361,-0.9652,-0.9902,-0.9902,-1.0283,-1.0645,-1.0889,-1.1074,-1.1194,-1.1139,-1.0927,-1.0552,-0.997,-0.9699,-0.9567,-0.9558,-0.9315,-0.9306,-0.9558,-0.8824,-0.8488,-0.8488,-0.7957,-0.7724,-0.7724,-0.7724,-0.8013,-0.8553,-0.8553,-0.8675,-0.8878,-0.8675,-0.8382,-0.7941,0.0,0.0,0.0,0.0,-0.652,-0.6562,0.0,-0.5108,-0.5108,-0.5108,-0.5108,-0.5108,-0.5108,-0.4873,-0.4348,-0.3397,-0.2963,-0.2392,-0.1551,-0.1742,-0.1978,-0.2145,-0.322,-0.4123,0.0,0.0,-0.5201,-0.4562,-0.2997,-0.2053,-0.18,-0.0619,0.0,0.0,0.0,0.0,0.0,0.0,0.0,0.0,0.0,-0.0299,-0.082,-0.0816,-0.1125,-0.1585,-0.1676,-0.2765,-0.4358,-0.504,-0.5653,-0.6121,-0.5694,-0.5697,-0.5916,-0.5958,0.0,0.0,0.0,0.0,0.0,0.0,0.0,0.0,0.0,0.0,0.0,0.0,0.0,0.0,0.0,0.0,0.0,0.0,0.0,0.0,0.0,0.0,0.0,0.0,-0.9887,-1.0209,-1.043,-1.0381,-1.0352,-1.0352,-1.0684,-1.0947,-1.1045,-1.1406,-1.1704,-1.1743,-1.1299,-1.1002,-1.0956,0.0,0.0,0.0,0.0,-1.012,-1.0163,-0.9716,-0.9486,-0.9477,-0.9031,-0.884,-0.884,-0.8799,-0.9059,-0.9582,-0.9582,-0.983,-1.0234,-0.975,-0.9515,-0.9279,-0.7765,-0.7189,-0.7189,-0.7189,-0.7147,-0.7105,0.0,-0.5108,-0.5108,-0.5108,-0.5108,-0.5108,-0.5108,-0.4873,-0.4479,-0.3845,-0.2914,-0.2342,-0.241,-0.184,-0.1871,-0.2962,-0.3893,-0.4695,0.0,0.0,-0.51,-0.4147,-0.2671,-0.1849,-0.1802,-0.0619,0.0,0.0,0.0,0.0,0.0,0.0,0.0,0.0,0.0,-0.0052,-0.0156,-0.0152,-0.0249,-0.0395,-0.0888,-0.2123,-0.3705,-0.3853,-0.4573,-0.545,-0.5141,-0.5458,-0.611,-0.6291,-0.6432,-0.6678,-0.7568,0.0,0.0,0.0,0.0,0.0,0.0,0.0,0.0,0.0,0.0,0.0,0.0,0.0,0.0,0.0,0.0,0.0,0.0,0.0,0.0,-1.0345,-1.0079,-1.0095,-1.1194,-1.1006,-1.0791,-1.0791,-1.0859,-1.1191,-1.1859,-1.2051,-1.2246,-1.2598,-1.2569,-1.2329,-1.1935,-1.1815,-1.1769,-1.1769,-1.1426,-1.1407,-1.1759,-1.093,-1.0498,-1.0498,-0.9923,0.0,-0.9651,-0.9323,-0.9486,-0.9989,-0.9989,-1.0031,-1.0114,-1.0031,-0.9553,-0.8837,-0.8513,-0.839,-0.839,-0.839,-0.8103,-0.7746,-0.5108,-0.5108,-0.5108,-0.5108,-0.5108,-0.5108,-0.5108,-0.4873,-0.4514,-0.3961,-0.3282,-0.279,-0.2658,-0.2613,-0.2863,-0.3556,-0.4749,0.0,0.0,-0.5516,-0.4999,-0.3836,-0.2879,-0.2156,-0.1806,-0.0997,-0.0359,0.0,0.0,0.0,0.0,0.0,0.0,0.0,0.0,0.0,0.0,0.0,0.0,-0.0051,-0.0303,-0.1167,-0.2249,-0.252,-0.3209,-0.3978,-0.3855,-0.4427,-0.5262,-0.5402,-0.5893,-0.6553,-0.742,-0.7483,-0.7354,0.0,0.0,0.0,0.0,0.0,0.0,0.0,0.0,0.0,0.0,0.0,0.0,0.0,0.0,-0.9419,0.0,0.0,-1.0495,-1.1218,-1.1443,-1.1646,-1.2013,-1.1868,-1.16,-1.1283,-1.1436,-1.1738,-1.2141,-1.2422,-1.278,-1.3314,-1.3065,-1.2918,-1.3,-1.2728,-1.2559,-1.2559,-1.2344,-1.2324,-1.2559,-1.1834,-1.1524,-1.1478,-1.0975,-1.074,-1.0731,-1.0531,-1.0579,-1.0837,-1.0837,-1.0837,-1.0837,-1.0837,-1.0424,-0.9808,-0.9808,-0.9366,-0.8716,-0.8716,-0.8513,-0.834,-0.5108,-0.5108,-0.5108,-0.5108,-0.5108,-0.5108,-0.5108,-0.4912,-0.4595,-0.4092,-0.3747,-0.3435,-0.3038,-0.3479,-0.3961,0.0,0.0,0.0,0.0,-0.555,-0.4912,-0.3701,-0.317,-0.2617,-0.2081,-0.1411,-0.081,-0.0224,-0.0056,0.0,0.0,0.0,0.0,0.0,0.0,0.0,0.0,0.0,0.0,0.0,0.0,-0.0303,-0.0778,-0.1253,-0.191,-0.2539,-0.2672,-0.3375,-0.4256,-0.4343,-0.5255,-0.6401,-0.6983,-0.7621,-0.8166,-0.8195,-0.8155,0.0,0.0,0.0,0.0,0.0,0.0,0.0,0.0,0.0,-0.9236,-1.0476,-1.0148,-0.9896,-1.0742,-1.1397,-1.1888,-1.2095,-1.2862,-1.3309,-1.2979,-1.2851,-1.2615,-1.2108,-1.2152,-1.2219,-1.2353,-1.2676,-1.3104,-1.36,-1.3152,-1.3104,-1.36,-1.3152,-1.2881,-1.2881,-1.2881,-1.2881,-1.2881,-1.2529,-1.2353,-1.2353,-1.1992,-1.1861,-1.1861,-1.1773,-1.1734,-1.1734,-1.1734,-1.1734,-1.1734,-1.1822,-1.1547,-1.1045,-1.1133,-1.0391,-0.9245,-0.9176,-0.9061,-0.9038,0.0,-0.5108,-0.5108,-0.5108,-0.5108,-0.5108,-0.5108,-0.5069,-0.4911,-0.4487,-0.4092,-0.3995,-0.435,-0.3782,-0.412,-0.6036,0.0,0.0,-0.6246,-0.5672,-0.4838,-0.3808,-0.3216,-0.2896,-0.2952,-0.1746,-0.1079,-0.095,-0.0336,0.0,0.0,0.0,0.0,0.0,0.0,0.0,0.0,0.0,0.0,0.0,0.0,-0.0054,-0.0105,-0.0153,-0.091,-0.1962,-0.2495,-0.3067,-0.3676,-0.4212,-0.5201,-0.6301,-0.6864,-0.7469,-0.8094,-0.8493,0.0,-0.8248,-0.9015,-0.9473,-0.9866,-1.0393,-1.0217,-1.0303,0.0,0.0,-1.0687,-1.0855,-1.084,-1.0829,-1.0895,-1.1404,-1.2095,-1.2899,-1.3238,-1.3628,-1.4373,-1.4127,-1.3839,-1.3569,-1.2739,-1.2383,-1.2773,-1.2852,-1.2929,-1.3027,-1.2929,-1.2929,-1.3017,-1.2929,-1.2881,-1.2881,-1.2881,-1.2881,-1.2881,-1.2832,-1.2812,-1.2812,-1.2764,-1.2734,-1.2725,-1.2334,-1.2112,-1.2112,-1.2112,-1.2112,-1.2187,-1.2568,-1.2292,-1.1577,-1.1924,-1.1717,-1.1238,-1.081,-1.0335,-1.0013,0.0,-0.5108,-0.5108,-0.5108,-0.5108,-0.5108,-0.5108,-0.5108,-0.5053,-0.4916,-0.4751,-0.4719,-0.4939,-0.5087,-0.5531,-0.6427,0.0,0.0,-0.5611,-0.5044,-0.4475,-0.3832,-0.3633,-0.3421,-0.3129,-0.2649,-0.198,-0.1118,-0.0783,-0.0448,0.0,-0.0448,-0.0615,-0.0671,-0.1062,-0.1062,-0.0615,-0.0615,-0.0392,0.0,0.0,0.0,-0.0052,-0.0406,-0.0817,-0.1385,-0.2357,-0.3284,0.0,0.0,-0.5216,-0.6192,-0.6255,-0.7043,-0.8056,-0.8431,-0.8555,0.0,-1.0058,-1.0409,-1.0568,0.0,-1.0888,-1.0728,-1.14,-1.1029,-1.0683,-1.1286,-1.0957,-1.0664,-1.0903,-1.1948,-1.2873,0.0,-1.4399,-1.5198,-1.5217,-1.5101,-1.4821,-1.44,-1.3936,-1.344,-1.2958,-1.3238,-1.342,-1.342,-1.3113,-1.32,-1.3931,-1.3296,-1.32,-1.3931,-1.3248,-1.3065,-1.342,-1.3055,-1.2881,-1.2881,-1.2881,-1.2881,-1.2871,-1.2695,-1.2607,-1.2607,-1.2607,-1.2607,-1.2617,-1.2803,-1.251,-1.1973,-1.2112,-1.1953,-1.1577,-1.14,-1.1151,-1.1037,0.0,-0.5108,-0.5108,-0.5108,-0.5108,-0.5108,-0.5108,-0.5108,-0.5115,-0.5165,-0.5236,-0.5336,-0.5465,-0.6233,-0.6719,-0.6684,-0.6642,0.0,0.0,-0.4781,-0.4336,-0.3828,-0.3938,-0.3834,-0.3395,-0.3125,-0.2454,-0.1396,-0.1006,-0.0504,0.0,-0.0727,-0.1118,-0.1118,-0.1898,-0.1786,-0.1118,-0.1118,-0.0671,0.0,0.0,-0.0108,-0.0307,-0.0709,-0.1152,-0.1603,-0.2498,-0.344,0.0,0.0,-0.5204,-0.6137,-0.5715,-0.6657,-0.7932,-0.814,-0.8762,-0.9589,-1.0462,-1.0888,0.0,-1.1419,-1.1193,-1.0933,-1.0933,-1.0551,-1.0438,-1.1217,-1.0802,-1.0428,-1.0905,-1.2175,-1.323,-1.3558,-1.5103,-1.6151,-1.5908,-1.5864,-1.5632,-1.5017,-1.5107,-1.4698,-1.3525,-1.3647,-1.3732,-1.3552,-1.3286,-1.3515,-1.4422,-1.3789,-1.38,-1.4652,-1.3836,-1.361,-1.405,-1.3467,-1.3152,-1.3152,-1.2968,-1.2881,-1.2881,-1.2881,-1.2881,-1.2881,-1.2881,-1.2881,-1.2881,-1.2881,-1.2695,-1.2412,-1.2412,-1.2217,-1.1969,-1.1969,-1.19,-1.1807,0.0,0.0,-0.5108,-0.5108,-0.5108,-0.5108,-0.5108,-0.5108,-0.5098,-0.5108,-0.5331,-0.567,-0.6106,-0.6889,-0.7299,-0.71,-0.6967,-0.6514,-0.5639,-0.5152,-0.4546,-0.3825,-0.3938,-0.404,-0.4138,-0.2907,-0.223,-0.2174,-0.0727,0.0,0.0,-0.0727,-0.1118,-0.1118,-0.1898,-0.1786,-0.1118,-0.1118,-0.0671,0.0,0.0,-0.0329,-0.09,-0.0869,-0.1772,-0.3049,-0.3091,0.0,0.0,0.0,-0.5195,-0.6105,-0.5502,-0.6373,0.0,-0.7602,-0.8915,-1.0267,-0.9757,0.0,-1.1642,-1.1066,-1.0942,-1.0987,-1.0987,-1.0629,-1.0302,-1.0361,-1.0322,-1.0428,-1.0905,-1.1855,-1.2846,-1.3898,-1.494,-1.582,-1.638,-1.6466,-1.6238,-1.5632,-1.6095,-1.5976,0.0,-1.4143,-1.3552,-1.2968,-1.3467,-1.3779,-1.3815,-1.4329,-1.4663,-1.4698,-1.4663,-1.4652,-1.4652,-1.405,-1.3768,-1.3779,-1.32,-1.2881,-1.2881,-1.2881,-1.2881,-1.2881,-1.2881,-1.2881,-1.2881,-1.2881,-1.2871,-1.2861,-1.2861,-1.2852,-1.2842,-1.2842,-1.2578,-1.2275,0.0,0.0,0.0,-0.5108,-0.5108,-0.5108,-0.5108,-0.5108,-0.5108,-0.5108,-0.5445,0.0,0.0,0.0,0.0,0.0,0.0,-0.6409,-0.5596,-0.54,-0.5095,-0.4661,-0.4532,-0.4521,-0.4646,-0.3442,-0.2537,-0.2052,-0.1161,-0.0504,0.0,-0.0727,-0.1341,-0.1842,-0.2621,-0.2565,-0.184,-0.184,-0.1396,-0.0726,-0.0656,-0.1008,-0.1685,-0.235,-0.2842,-0.3214,0.0,0.0,0.0,0.0,-0.5695,-0.647,-0.5692,0.0,0.0,-0.8328,-0.9357,-1.036,-1.0856,0.0,-1.1191,-1.1388,-1.117,-1.0845,-1.0604,-1.039,-1.0283,-1.0283,-1.0283,-1.0428,-1.0905,-1.1562,-1.2476,-1.3879,-1.4696,-1.552,-1.6373,-1.6522,-1.6423,-1.6238,-1.638,0.0,0.0,0.0,0.0,-1.4154,-1.4294,-1.456,-1.4949,-1.4835,-1.5062,-1.5888,-1.5107,-1.488,-1.5276,-1.4698,-1.419,-1.3779,-1.32,-1.2881,-1.2881,-1.2881,-1.2881,-1.2881,-1.2881,-1.2881,-1.2881,-1.2881,-1.2881,-1.2881,-1.2881,-1.2881,-1.2881,-1.2881,-1.2783,-1.2686,0.0,0.0,0.0,0.0,0.0,0.0,0.0,0.0,0.0,0.0,0.0,0.0,0.0,0.0,0.0,0.0,0.0,0.0,0.0,0.0,-0.5514,-0.5096,-0.5096,-0.5014,-0.4793,-0.4,-0.3304,-0.2796,-0.1929,-0.1329,-0.0969,-0.1507,-0.1991,-0.2473,-0.3278,-0.3171,-0.2473,-0.2473,-0.215,-0.1663,-0.1575,-0.2085,-0.2929,-0.3642,-0.3968,0.0,0.0,0.0,0.0,-0.5545,-0.6027,0.0,0.0,0.0,-0.8241,-0.9185,-0.994,-1.0608,-1.143,-1.1541,-1.1496,-1.1879,-1.1746,-1.1428,-1.1188,-1.0953,-1.0764,-1.0582,-1.0534,-1.0572,-1.0725,-1.1318,-1.2211,-1.3627,-1.4441,-1.5284,-1.6348,-1.6522,-1.6522,-1.6522,-1.6522,-1.6337,0.0,0.0,0.0,-1.4744,-1.4926,-1.5186,-1.5588,-1.5421,-1.57,-1.6479,-1.5744,-1.5511,-1.5908,-1.5332,-1.4732,-1.4097,-1.3515,-1.3238,-1.3238,-1.3238,-1.3104,-1.2881,-1.2881,-1.2881,-1.2881,-1.2881,-1.2881,-1.2881,-1.2881,-1.2881,-1.2881,-1.2881,-1.2881,-1.2881,0.0,0.0,0.0,0.0,0.0,0.0,0.0,0.0,0.0,0.0,0.0,0.0,0.0,0.0,0.0,0.0,0.0,0.0,0.0,0.0,0.0,-0.5142,-0.5651,-0.5562,-0.4716,-0.4493,-0.4364,-0.4233,-0.296,-0.2498,-0.2787,-0.2951,-0.3008,-0.3061,-0.3764,-0.3664,-0.3011,-0.3011,-0.2901,-0.2787,-0.2783,-0.3435,-0.4455,-0.4648,0.0,0.0,0.0,0.0,0.0,0.0,0.0,0.0,0.0,0.0,-0.9245,-1.0079,-1.0615,-1.1035,-1.1561,-1.2103,-1.2521,-1.2563,-1.2622,-1.2614,-1.2552,-1.2132,-1.1616,-1.1025,-1.0939,-1.0788,0.0,0.0,-1.1997,-1.32,-1.4127,-1.5133,-1.6348,-1.6522,-1.6522,0.0,0.0,0.0,0.0,0.0,0.0,-1.488,0.0,-1.5632,-1.5632,-1.6194,-1.6522,-1.6522,-1.6522,-1.6522,-1.6522,-1.5908,-1.5276,-1.4698,-1.4097,-1.3768,-1.3732,-1.3732,-1.342,-1.2881,-1.2881,-1.2881,-1.2881,-1.2881,-1.2881,-1.2881,-1.2881,-1.2881,-1.2881,-1.2881,-1.2881,-1.2881,0.0,0.0,0.0,0.0,0.0,0.0,0.0,0.0,0.0,0.0,0.0,0.0,0.0,0.0,0.0,0.0,0.0,0.0,0.0,0.0,0.0,0.0,0.0,-0.6243,-0.6026,-0.5145,-0.4664,0.0,0.0,-0.3947,-0.4036,-0.4388,-0.461,-0.4792,-0.4942,-0.4706,-0.4175,-0.4175,-0.4011,-0.3846,0.0,-0.4513,-0.5132,0.0,0.0,0.0,0.0,0.0,0.0,0.0,0.0,0.0,0.0,-0.962,-1.0475,-1.0672,0.0,-1.1614,-1.2474,-1.2819,-1.3084,-1.3575,-1.3368,-1.2858,-1.2175,-1.1576,-1.0962,-1.015,-0.9969,-0.9943,0.0,0.0,0.0,-1.3115,-1.3633,0.0,-1.6243,-1.6522,0.0,-1.6522,0.0,-1.6522,-1.6522,-1.6522,0.0,0.0,-1.6194,-1.6281,-1.6281,-1.6423,-1.6522,-1.6522,-1.6522,-1.6522,-1.6522,-1.5908,-1.5276,-1.4698,-1.4097,-1.3552,-1.3152,-1.3152,-1.3065,-1.2881,-1.2881,-1.2881,-1.2881,-1.2881,-1.2881,-1.2881,-1.2881,-1.2881,-1.2881,-1.2881,-1.2881,-1.2881,0.0,0.0,0.0,0.0,0.0,0.0,0.0,0.0,0.0,0.0,0.0,0.0,0.0,0.0,0.0,0.0,0.0,0.0,0.0,0.0,0.0,0.0,0.0,-0.7181,-0.7,-0.6754,-0.6492,0.0,0.0,0.0,0.0,-0.5675,-0.571,-0.5944,-0.5642,-0.5437,-0.5298,-0.5096,0.0,0.0,0.0,0.0,0.0,0.0,0.0,0.0,0.0,0.0,0.0,0.0,0.0,-0.8863,-0.9538,-1.0402,-1.123,-1.1436,0.0,-1.245,-1.3209,-1.3768,-1.4317,-1.4681,-1.435,-1.3752,-1.2993,-1.2053,-1.108,-1.0127,-0.9756,0.0,-0.9429,-0.9686,-1.0558,0.0,0.0,0.0,-1.5905,-1.6324,-1.6522,0.0,-1.6522,0.0,-1.6522,-1.6522,-1.6522,0.0,-1.6522,-1.6522,-1.6522,-1.6522,-1.6522,-1.6522,-1.6522,-1.6522,-1.6522,-1.5908,-1.5543,-1.5466,-1.4869,-1.4411,-1.4061,-1.3789,-1.3573,-1.3286,-1.3017,-1.2881,-1.2881,-1.2881,-1.2881,-1.2881,-1.2881,-1.2881,-1.2881,-1.2881,-1.2881,-1.2881,0.0,0.0,0.0,0.0,0.0,0.0,0.0,0.0,0.0,0.0,-0.8552,0.0,0.0,0.0,0.0,0.0,0.0,0.0,0.0,0.0,0.0,0.0,0.0,-0.806,-0.7713,-0.8487,0.0,0.0,0.0,0.0,0.0,0.0,0.0,0.0,0.0,0.0,0.0,0.0,0.0,0.0,0.0,0.0,0.0,0.0,0.0,0.0,0.0,0.0,0.0,0.0,-0.8515,-0.95,-0.9922,-1.0804,-1.1708,-1.2151,-1.2655,-1.3209,-1.3757,-1.4687,-1.5475,-1.5592,-1.5237,-1.4714,-1.4037,-1.2775,-1.1402,-1.0339,0.0,-0.9375,-0.8905,-0.9548,-1.0484,-1.1538,0.0,-1.4222,-1.5421,-1.6051,-1.6423,-1.6479,-1.6522,-1.6522,-1.6522,-1.6522,-1.6522,-1.6522,-1.6522,-1.6522,-1.6522,-1.6522,-1.6522,-1.6522,-1.6522,-1.6522,-1.6522,-1.5964,-1.5908,-1.625,-1.5732,-1.541,-1.5231,-1.4698,-1.4201,-1.3637,-1.3152,-1.2978,-1.3017,-1.292,-1.2978,-1.3017,-1.2929,-1.2881,-1.2881,-1.2881,-1.2881,-1.2881,0.0,0.0,0.0,0.0,0.0,0.0,0.0,0.0,0.0,0.0,-0.9256,-0.9144,0.0,0.0,0.0,0.0,0.0,0.0,0.0,0.0,0.0,0.0,0.0,-0.7918,0.0,0.0,0.0,0.0,0.0,0.0,0.0,0.0,0.0,0.0,0.0,0.0,0.0,0.0,0.0,0.0,0.0,0.0,0.0,0.0,0.0,0.0,0.0,0.0,0.0,0.0,-0.7819,-0.9217,-1.0582,-1.1348,-1.1886,-1.258,-1.286,-1.3195,-1.4272,-1.4698,-1.5004,-1.5556,-1.5302,-1.4525,-1.3107,-1.1978,0.0,0.0,-0.8879,-0.8464,-0.8018,-0.8363,-0.9322,-1.101,-1.1847,-1.3066,-1.5286,-1.5676,-1.5952,0.0,-1.6522,-1.6522,-1.6522,-1.6522,0.0,0.0,-1.6522,-1.6522,-1.6522,-1.6522,-1.6522,-1.6522,-1.6522,-1.6522,-1.6522,-1.638,-1.5876,-1.5017,-1.4926,-1.434,-1.3382,-1.3248,-1.3152,-1.3065,-1.2978,-1.32,-1.36,-1.3104,-1.319,-1.36,-1.3104,-1.2881,-1.2881,-1.2881,-1.2881,-1.2881,0.0,0.0,0.0,0.0,0.0,0.0,0.0,-0.8344,-0.9391,-1.0242,-1.0396,-1.0262,-0.9869,-0.9388,-0.8953,0.0,0.0,0.0,0.0,0.0,0.0,0.0,0.0,0.0,0.0,0.0,0.0,0.0,0.0,0.0,0.0,0.0,0.0,0.0,0.0,0.0,0.0,0.0,0.0,0.0,0.0,0.0,0.0,0.0,0.0,0.0,0.0,0.0,0.0,0.0,-0.7197,-0.848,-1.0245,-1.1172,-1.1755,-1.2657,-1.3104,-1.3505,-1.4061,-1.4468,-1.4767,-1.5151,-1.461,-1.3709,-1.2424,0.0,0.0,0.0,-0.8299,-0.7978,-0.7734,-0.8086,0.0,-1.0159,-1.1023,-1.228,-1.4508,-1.5109,-1.5605,-1.6386,-1.6522,-1.6522,-1.6522,-1.6522,-1.6522,-1.6522,-1.6522,-1.6522,-1.6522,-1.6522,-1.6522,-1.6522,-1.6522,-1.6522,-1.6522,-1.6194,-1.5732,-1.5141,-1.4835,-1.4387,-1.3836,-1.3515,-1.3372,-1.3324,-1.3065,-1.3055,-1.3334,-1.3017,-1.3065,-1.3286,-1.3017,-1.2881,-1.2881,-1.2881,-1.2881,-1.2881,0.0,0.0,0.0,0.0,0.0,0.0,0.0,-0.871,-0.9728,-1.0568,-1.1124,-1.1161,-1.0427,-0.9591,-0.8995,0.0,0.0,0.0,0.0,0.0,0.0,0.0,0.0,0.0,0.0,0.0,0.0,0.0,0.0,0.0,0.0,0.0,0.0,0.0,0.0,0.0,0.0,0.0,0.0,0.0,0.0,0.0,0.0,0.0,0.0,0.0,0.0,0.0,0.0,0.0,-0.6669,-0.7524,-0.9276,-1.0305,-1.1098,-1.2253,-1.2887,-1.3351,-1.37,-1.4143,-1.4507,-1.4444,-1.3815,-1.2884,-1.1744,-1.0564,0.0,0.0,-0.7976,-0.7695,-0.7695,-0.8008,-0.8545,0.0,-1.0311,-1.163,-1.3811,-1.4499,-1.5242,0.0,-1.6522,0.0,-1.6522,-1.6522,0.0,-1.6522,-1.6522,-1.6522,-1.6522,-1.6522,-1.6522,-1.6522,-1.6522,-1.6423,-1.6293,-1.582,-1.5487,-1.5219,-1.4732,-1.4422,-1.4294,-1.3826,-1.36,-1.36,-1.3104,-1.2968,-1.3055,-1.2978,-1.2968,-1.3055,-1.2978,-1.2881,-1.2881,-1.2881,-1.2881,-1.2881,0.0,0.0,0.0,0.0,0.0,0.0,0.0,-0.8442,-0.969,-1.026,-1.0665,-1.0829,-1.0751,-1.0321,-0.9609,0.0,0.0,0.0,0.0,0.0,0.0,0.0,0.0,0.0,0.0,0.0,0.0,0.0,0.0,0.0,0.0,0.0,0.0,0.0,0.0,0.0,0.0,0.0,0.0,0.0,0.0,0.0,0.0,0.0,0.0,0.0,0.0,0.0,0.0,0.0,0.0,-0.6597,-0.7563,-0.8462,-0.9447,-1.108,0.0,0.0,-1.3418,-1.3815,-1.379,-1.3448,-1.3253,-1.2715,-1.0867,0.0,-0.9446,-0.8508,-0.7976,-0.7695,-0.7695,-0.7734,-0.8162,-0.9398,0.0,-1.0764,-1.3669,-1.4166,-1.4771,-1.6318,0.0,0.0,-1.6522,-1.6522,-1.6522,-1.6522,-1.6522,-1.6522,-1.6522,-1.6522,-1.6522,-1.6522,-1.6522,-1.6238,-1.5676,-1.5632,-1.5039,-1.3956,-1.3909,-1.36,-1.3065,-1.3017,-1.2968,-1.2968,-1.2929,-1.319,-1.3684,-1.3152,-1.3238,-1.3637,-1.3104,-1.2881,-1.2881,-1.2881,-1.2881,-1.2881,0.0,0.0,0.0,0.0,0.0,0.0,-0.7047,-0.8315,-0.9518,-1.0275,-1.0965,-1.1249,-1.0887,-1.097,-1.0471,-0.9088,0.0,0.0,0.0,0.0,0.0,0.0,0.0,0.0,0.0,0.0,0.0,0.0,0.0,0.0,0.0,0.0,0.0,0.0,0.0,0.0,0.0,0.0,0.0,0.0,0.0,0.0,0.0,0.0,0.0,0.0,0.0,0.0,0.0,0.0,0.0,0.0,-0.6856,-0.7213,0.0,0.0,-1.1049,-1.1603,-1.2589,-1.3027,-1.3158,-1.2754,-1.2436,-1.1829,-1.0304,0.0,-0.9013,-0.8128,-0.7812,-0.7695,-0.7695,-0.7695,-0.8029,-0.9026,-0.919,-0.9925,-1.2009,-1.2777,-1.3615,-1.5029,-1.5682,0.0,0.0,0.0,-1.6522,-1.6522,-1.6522,-1.6522,-1.6522,-1.6522,-1.6522,-1.6522,-1.6139,-1.582,-1.5588,-1.5231,-1.4641,-1.3815,-1.3815,-1.3457,-1.2881,-1.2881,-1.2881,-1.2881,-1.2881,-1.3065,-1.3238,-1.3017,-1.3065,-1.3238,-1.2968,-1.2881,-1.2881,-1.2881,-1.2881,-1.2881,0.0,0.0,0.0,0.0,0.0,-0.6514,-0.6846,-0.8043,-0.9119,-0.9729,-1.0721,-1.1145,-1.0563,-1.0928,-1.0721,-0.9528,-0.9236,0.0,0.0,0.0,0.0,0.0,0.0,0.0,0.0,0.0,0.0,0.0,0.0,0.0,0.0,0.0,0.0,0.0,0.0,0.0,0.0,0.0,0.0,0.0,0.0,0.0,0.0,0.0,0.0,0.0,0.0,0.0,0.0,0.0,0.0,0.0,0.0,0.0,0.0,0.0,-1.0152,-1.0813,-1.158,-1.2153,-1.2398,-1.2009,-1.1556,-1.0913,0.0,-0.9131,-0.8613,-0.7851,-0.7695,-0.7695,-0.7695,-0.7695,-0.798,-0.8766,-0.8901,-0.952,-1.1263,-1.2083,-1.2998,-1.4328,0.0,-1.5668,-1.622,-1.6421,-1.6522,-1.6522,-1.6522,-1.6522,-1.6522,-1.6522,-1.6522,-1.6522,-1.6095,-1.5776,-1.5588,-1.5017,-1.4376,-1.3815,-1.3637,-1.342,-1.3152,-1.2968,-1.3017,-1.3152,-1.2968,-1.2881,-1.2881,-1.2881,-1.2881,-1.2881,-1.2881,-1.2881,-1.2881,-1.2666,-1.2559,-1.2559,0.0,0.0,0.0,0.0,0.0,0.0,-0.6416,-0.7529,-0.8411,-0.842,-0.9542,-1.0145,-0.9665,-0.9981,-1.0009,-0.9526,-0.9737,0.0,0.0,0.0,0.0,0.0,0.0,0.0,0.0,0.0,0.0,-1.1575,-1.1575,0.0,0.0,0.0,0.0,0.0,0.0,0.0,0.0,0.0,0.0,0.0,0.0,0.0,0.0,0.0,0.0,0.0,0.0,0.0,0.0,0.0,0.0,0.0,0.0,0.0,0.0,0.0,-0.8488,-0.9219,-1.0452,-1.1211,-1.1508,-1.1025,-1.0605,-1.0068,-0.9199,-0.8682,-0.8262,-0.7783,-0.7695,-0.7695,-0.7695,-0.7695,-0.798,-0.8766,-0.8901,-0.9723,-1.213,-1.2496,-1.3119,0.0,0.0,-1.513,-1.5655,-1.6195,-1.6522,-1.6522,-1.6522,-1.6522,-1.6522,-1.6522,-1.6522,-1.6522,-1.6466,-1.6194,-1.5588,-1.5017,-1.4376,-1.3779,-1.319,-1.3238,-1.3768,-1.3152,-1.3248,-1.3779,-1.3152,-1.2881,-1.2881,-1.2881,-1.2881,-1.2881,-1.2881,-1.2881,-1.2822,-1.208,-1.1814,-1.1814,0.0,0.0,0.0,0.0,0.0,0.0,0.0,-0.7275,-0.8037,-0.8371,-0.9046,-0.9404,-0.9201,-0.9549,-0.9615,-0.9135,-0.9125,0.0,0.0,0.0,0.0,0.0,0.0,0.0,0.0,0.0,-1.101,-1.1588,-1.1964,-1.2429,0.0,0.0,0.0,0.0,0.0,0.0,0.0,0.0,0.0,0.0,0.0,0.0,0.0,0.0,0.0,0.0,0.0,0.0,0.0,0.0,0.0,0.0,0.0,0.0,0.0,0.0,0.0,0.0,-0.9531,-1.034,-1.0937,-1.0215,-0.9894,-0.9619,-0.877,-0.8477,-0.8252,-0.7783,-0.7695,-0.7695,-0.7695,-0.7695,-0.798,-0.8766,-0.9165,-0.9744,-1.0841,0.0,0.0,-1.3852,-1.5172,-1.607,0.0,0.0,-1.6522,-1.6522,-1.6522,-1.6522,-1.6522,-1.6522,-1.6522,-1.6522,-1.6095,-1.5776,-1.5588,-1.5017,-1.4376,-1.3815,-1.36,-1.342,-1.32,-1.2968,-1.3017,-1.3152,-1.2968,-1.2881,-1.2881,-1.2881,-1.2881,-1.2881,-1.2881,-1.2881,-1.2881,-1.2618,-1.2559,-1.2501,0.0,0.0,0.0,0.0,0.0,0.0,0.0,-0.7238,-0.7793,-0.8096,-0.8511,-0.8797,-0.8787,-0.8983,-0.9001,-0.8746,-0.867,0.0,0.0,0.0,0.0,0.0,0.0,0.0,0.0,-1.0675,-1.1425,-1.2203,-1.2755,-1.3207,-1.3534,-1.2719,-1.2045,0.0,0.0,0.0,0.0,0.0,0.0,0.0,0.0,0.0,0.0,0.0,0.0,0.0,0.0,0.0,0.0,0.0,0.0,0.0,0.0,0.0,0.0,0.0,-0.7997,-0.9023,0.0,-0.9441,-1.0059,-0.9521,-0.9242,-0.9023,-0.8496,-0.8252,-0.8087,-0.7949,-0.7928,-0.7928,-0.7928,-0.8033,-0.823,-0.8598,-0.9166,-0.9724,0.0,0.0,0.0,-1.3938,0.0,0.0,0.0,-1.6396,-1.6522,-1.6522,-1.6522,-1.6522,-1.6522,-1.6522,-1.6522,-1.6522,-1.6139,-1.5952,-1.5952,-1.5107,-1.4514,-1.4143,-1.3695,-1.3372,-1.3238,-1.3017,-1.3017,-1.3248,-1.3017,-1.2881,0.0,-1.2881,-1.2881,-1.2881,-1.2881,-1.2881,-1.2881,-1.2608,-1.2501,-1.2393,0.0,0.0,0.0,0.0,0.0,0.0,0.0,-0.7412,-0.7656,-0.7656,-0.8013,-0.8284,-0.8354,-0.8287,-0.8294,-0.8354,-0.8391,0.0,0.0,0.0,0.0,0.0,0.0,0.0,0.0,-1.1139,-1.2115,-1.3135,-1.3795,-1.4072,-1.4009,-1.3509,-1.2935,-1.2334,-1.0985,0.0,0.0,0.0,0.0,0.0,0.0,0.0,0.0,0.0,0.0,0.0,0.0,0.0,0.0,0.0,0.0,0.0,0.0,0.0,0.0,0.0,0.0,0.0,0.0,-0.8552,-0.8955,-0.8926,-0.8623,-0.8362,-0.8362,-0.8018,0.0,-0.8135,-0.8241,-0.8262,-0.8262,-0.8523,-0.8673,-0.8432,-0.9087,-0.978,0.0,-1.1721,0.0,0.0,-1.5442,0.0,-1.5756,-1.622,-1.6522,-1.6522,-1.6522,-1.6522,-1.6522,-1.6522,-1.6522,-1.6522,-1.6522,-1.6522,-1.6522,-1.5287,-1.4698,-1.4744,-1.3478,-1.3238,-1.3779,-1.32,-1.319,-1.3684,-1.3152,-1.2881,-1.2881,-1.2881,-1.2881,-1.2881,-1.2881,-1.2881,-1.2822,-1.2129,-1.1864,-1.1765,0.0,0.0,0.0,0.0,0.0,0.0,0.0,0.0,0.0,0.0,-0.7576,-0.7851,-0.7871,-0.7842,-0.7851,0.0,0.0,0.0,0.0,0.0,0.0,0.0,0.0,0.0,0.0,-1.1257,-1.1927,-1.2572,-1.3607,-1.3871,-1.3433,-1.3722,-1.338,-1.2371,-1.2045,-1.1405,0.0,0.0,0.0,0.0,0.0,0.0,0.0,0.0,0.0,0.0,-0.8156,-0.8119,0.0,0.0,0.0,0.0,0.0,0.0,0.0,0.0,-0.7704,-0.787,-0.7816,0.0,-0.8447,-0.8085,-0.7929,-0.7851,0.0,-0.7773,-0.7637,-0.7415,0.0,0.0,-0.7841,-0.8148,-0.8598,-0.9193,-1.0049,-1.0802,-1.1298,0.0,0.0,-1.5994,-1.6245,-1.6321,-1.6321,-1.6446,-1.6522,-1.6522,-1.6522,-1.6522,-1.6522,-1.6522,-1.6522,-1.6522,-1.6522,-1.6522,-1.6522,-1.5287,-1.4926,-1.5365,-1.3695,-1.3238,-1.3779,-1.32,-1.2968,-1.3104,-1.2968,-1.2881,-1.2881,-1.2881,-1.2881,-1.2881,-1.2881,-1.2881,-1.2881,-1.2715,-1.2657,-1.2461,0.0,0.0,0.0,0.0,0.0,0.0,0.0,0.0,0.0,0.0,-0.7559,-0.7695,-0.7695,-0.7695,-0.7695,0.0,0.0,0.0,0.0,0.0,0.0,0.0,0.0,0.0,-1.1192,-1.146,-1.2134,-1.3191,-1.3795,-1.3934,-1.3609,-1.3946,-1.3632,-1.2735,-1.2266,-1.155,0.0,0.0,0.0,0.0,0.0,0.0,0.0,0.0,0.0,0.0,-0.7841,-0.7841,0.0,-0.7783,-0.7695,-0.7695,0.0,0.0,0.0,0.0,-0.7695,-0.7695,-0.7695,-0.8047,-0.8352,-0.8086,-0.8027,-0.8027,-0.8027,0.0,0.0,0.0,0.0,0.0,0.0,0.0,0.0,0.0,-1.0264,0.0,0.0,0.0,-1.5339,-1.6378,-1.6522,-1.6522,0.0,-1.6522,-1.6522,-1.6522,-1.6522,-1.6522,-1.6522,-1.6522,-1.6522,-1.6522,-1.6522,-1.6522,-1.6522,-1.5599,-1.5141,-1.5186,-1.392,-1.3334,-1.3372,-1.3065,-1.2881,-1.2881,-1.2881,-1.2881,-1.2881,-1.2881,-1.2881,-1.2881,-1.2881,-1.2881,-1.2881,-1.2881,-1.2881,-1.2725,0.0,0.0,0.0,0.0,0.0,0.0,0.0,0.0,0.0,0.0,0.0,0.0,0.0,0.0,0.0,0.0,0.0,0.0,0.0,0.0,0.0,0.0,0.0,-1.0406,-1.1865,-1.1721,-1.2332,-1.385,-1.3939,-1.3927,-1.3853,-1.4026,-1.3713,-1.3023,-1.204,-1.1261,0.0,0.0,0.0,0.0,0.0,0.0,0.0,0.0,0.0,0.0,0.0,0.0,0.0,-0.7695,-0.7695,-0.7695,-0.7695,0.0,0.0,0.0,0.0,0.0,-0.7783,-0.8145,-0.8469,-0.8405,-0.8393,-0.8391,-0.8385,0.0,0.0,0.0,0.0,0.0,0.0,-0.8966,0.0,0.0,0.0,0.0,-1.4053,-1.4788,-1.5465,-1.6403,-1.6522,0.0,-1.6522,-1.6522,-1.6522,-1.6522,-1.6423,-1.6423,-1.6522,-1.6423,-1.6423,-1.6522,-1.6522,-1.6479,-1.638,-1.5776,-1.5231,-1.4835,-1.4061,-1.342,-1.3017,-1.2929,-1.2822,-1.2725,-1.2832,-1.2774,-1.2618,-1.2832,-1.2822,-1.2725,-1.2881,-1.2881,-1.2881,-1.2881,-1.2881,-1.2715,0.0,0.0,0.0,0.0,0.0,0.0,0.0,0.0,0.0,0.0,0.0,0.0,0.0,0.0,0.0,0.0,0.0,0.0,0.0,0.0,0.0,0.0,-1.1234,-1.1262,-1.2294,-1.1883,-1.2039,-1.2734,-1.3135,-1.3094,-1.2696,-1.3576,-1.3471,-1.2517,-1.1876,-1.1261,-1.0656,0.0,0.0,0.0,0.0,0.0,0.0,0.0,0.0,0.0,0.0,0.0,0.0,-0.7695,-0.7695,-0.7695,-0.7695,0.0,0.0,0.0,0.0,0.0,-0.8174,-0.8584,-0.8796,-0.8417,-0.8369,-0.8375,-0.8344,0.0,0.0,0.0,0.0,0.0,0.0,-0.9031,-0.9959,0.0,0.0,-1.4038,0.0,0.0,-1.5811,-1.6416,0.0,-1.6522,-1.6522,-1.6522,-1.6522,-1.6522,-1.6008,-1.5952,-1.6466,-1.6008,-1.5952,-1.6466,-1.6522,-1.6238,-1.572,-1.5141,-1.5062,-1.5454,-1.3826,-1.3238,-1.3637,-1.3152,-1.2559,-1.1972,-1.2618,-1.2206,-1.1225,-1.2412,-1.255,-1.203,-1.2666,-1.2881,-1.2881,-1.2881,-1.2881,-1.2677,0.0,0.0,0.0,0.0,0.0,0.0,0.0,0.0,0.0,0.0,0.0,0.0,0.0,0.0,0.0,0.0,0.0,0.0,0.0,0.0,0.0,-1.209,-1.1688,-1.1754,-1.2426,-1.192,-1.1915,-1.2456,-1.2872,-1.2973,-1.2762,-1.3247,-1.3107,-1.2391,-1.1839,-1.1261,-1.0656,0.0,0.0,0.0,0.0,0.0,0.0,0.0,0.0,0.0,0.0,0.0,0.0,0.0,-0.7695,-0.7695,-0.7695,0.0,0.0,0.0,0.0,0.0,-0.791,-0.8164,-0.8365,-0.858,-0.8844,-0.9037,-0.9067,0.0,0.0,0.0,0.0,0.0,0.0,0.0,-1.0519,-1.1976,0.0,-1.5155,-1.5618,-1.5957,-1.6233,0.0,0.0,-1.6522,-1.6522,-1.6522,-1.6522,-1.6522,-1.5952,-1.5864,-1.6466,-1.5908,-1.5732,-1.6008,-1.5996,-1.5732,-1.5096,-1.4514,-1.4376,-1.4641,-1.3779,-1.3372,-1.3286,-1.2589,-1.2129,-1.1814,-1.1783,-1.1384,-1.0864,-1.1484,-1.1584,-1.1316,-1.2039,-1.2295,-1.2295,-1.2295,-1.196,-1.1402,0.0,0.0,0.0,0.0,0.0,0.0,0.0,0.0,0.0,0.0,0.0,0.0,0.0,0.0,0.0,0.0,0.0,0.0,0.0,0.0,-1.1047,-1.1752,-1.1542,-1.1697,-1.2215,-1.1685,-1.157,-1.1908,-1.2373,-1.2722,-1.299,-1.3066,-1.2829,-1.2391,-1.1839,-1.1261,-1.0656,-1.0131,0.0,0.0,0.0,0.0,0.0,0.0,0.0,0.0,0.0,0.0,0.0,0.0,0.0,0.0,0.0,0.0,0.0,-0.7695,-0.7404,-0.7187,-0.7588,-0.7695,-0.7822,-0.8349,0.0,-0.9382,-0.9607,0.0,0.0,0.0,0.0,0.0,0.0,-1.086,0.0,-1.2896,-1.4583,-1.5703,-1.5894,-1.6258,-1.6522,-1.6522,-1.6522,-1.6522,-1.6522,-1.6522,-1.6522,-1.6522,-1.582,-1.5644,-1.6238,-1.5732,-1.541,-1.541,-1.5543,-1.5231,-1.4525,-1.405,-1.3815,-1.3815,-1.3637,-1.3324,-1.2881,-1.2138,-1.1715,-1.1566,-1.1015,-1.0618,-1.0364,-1.0661,-1.072,-1.061,-1.1316,-1.1665,-1.1805,-1.1715,-1.109,-1.0192,0.0,0.0,0.0,0.0,0.0,0.0,0.0,0.0,0.0,0.0,0.0,0.0,0.0,0.0,0.0,0.0,0.0,0.0,0.0,0.0,-1.1676,-1.1788,-1.0836,-1.0664,-1.1456,-1.1004,-1.0681,-1.0454,-1.1021,-1.1895,-1.3001,-1.2999,-1.2773,-1.2391,-1.1839,-1.1261,-1.0656,-1.0131,0.0,0.0,0.0,0.0,0.0,0.0,0.0,0.0,0.0,0.0,0.0,0.0,0.0,0.0,0.0,0.0,-0.7695,-0.7695,-0.7404,-0.7187,-0.7588,-0.7695,-0.7637,-0.7303,-0.785,0.0,-0.9439,-0.9361,0.0,0.0,0.0,0.0,0.0,-1.2121,-1.338,-1.4557,-1.5252,-1.5804,-1.6361,0.0,-1.6522,-1.6522,-1.6522,-1.6522,-1.6522,-1.6522,-1.6522,-1.6522,-1.5433,-1.5017,-1.5632,-1.5107,-1.4744,-1.4744,-1.532,-1.5039,-1.3862,-1.3815,-1.3815,-1.3779,-1.3238,-1.2929,-1.2881,-1.2138,-1.1466,-1.0864,-1.0813,-1.0115,-0.9061,-1.0269,-1.0415,-0.9917,-1.061,-1.1266,-1.1769,-1.1504,-1.0789,-0.9823,0.0,0.0,0.0,0.0,0.0,0.0,0.0,0.0,0.0,0.0,0.0,0.0,0.0,0.0,0.0,0.0,0.0,0.0,0.0,0.0,-1.0381,-1.1211,-1.0278,-0.9842,-0.9969,-1.0047,-1.015,-1.025,-1.1175,-1.2084,-1.299,-1.3054,-1.2827,-1.2404,-1.219,-1.1789,-1.1224,0.0,0.0,0.0,0.0,0.0,0.0,0.0,0.0,0.0,0.0,0.0,0.0,0.0,-0.6411,-0.6673,0.0,-0.6653,-0.6934,-0.6752,-0.6403,-0.6136,-0.6573,-0.6878,-0.7177,-0.7574,0.0,0.0,0.0,0.0,0.0,0.0,0.0,0.0,0.0,0.0,-1.4292,-1.4398,-1.5384,-1.6238,-1.6466,-1.6522,-1.6522,-1.6522,-1.6522,-1.6522,-1.6522,-1.6522,-1.6522,-1.6522,-1.5389,-1.5107,-1.6107,-1.5242,-1.4698,-1.4698,-1.4926,-1.4468,-1.3238,-1.3238,-1.3238,-1.3238,-1.3017,-1.2666,-1.2187,-1.1525,-1.0813,-1.0167,-0.971,-0.9263,-0.8857,-0.9361,-0.9413,-0.9242,-0.9741,-1.0197,-1.0552,-1.0043,-0.9495,-0.8907,0.0,0.0,0.0,0.0,0.0,0.0,0.0,0.0,0.0,0.0,0.0,0.0,0.0,0.0,0.0,0.0,0.0,0.0,-0.9313,-0.9129,-0.9473,-1.0645,-0.9771,-0.9292,-0.9367,-0.9443,-0.953,-0.9614,-1.0776,-1.1781,-1.2606,-1.2794,-1.2647,-1.221,-1.2185,-1.189,-1.133,0.0,0.0,0.0,0.0,0.0,0.0,0.0,0.0,0.0,0.0,0.0,0.0,0.0,-0.565,0.0,0.0,0.0,0.0,0.0,-0.5993,-0.5814,-0.6119,-0.6493,-0.6961,0.0,0.0,0.0,0.0,0.0,0.0,0.0,0.0,0.0,0.0,0.0,0.0,0.0,-1.5507,-1.6281,-1.6466,-1.6522,-1.6522,-1.6522,-1.6522,-1.6522,-1.6522,-1.6522,-1.6522,-1.6522,-1.5555,-1.5332,-1.6194,-1.5242,-1.4606,-1.4422,-1.4422,-1.3931,-1.2929,-1.2881,-1.2881,-1.2881,-1.2881,-1.2501,-1.1765,-1.1116,-1.0415,-0.9762,-0.9106,-0.8804,-0.8804,-0.8804,-0.8751,-0.8689,-0.9116,-0.9408,-0.9495,-0.899,-0.8678,-0.8378,0.0,0.0,0.0,0.0,0.0,0.0,0.0,0.0,0.0,0.0,0.0,0.0,0.0,0.0,0.0,0.0,0.0,0.0,-0.8859,-0.8901,-0.9275,-1.0143,-0.9317,-0.9128,-0.9869,-0.9375,-0.8898,-0.842,-0.9614,-1.0722,-1.1711,-1.2178,-1.2195,-1.1788,-1.1722,-1.141,0.0,0.0,0.0,0.0,0.0,0.0,0.0,0.0,0.0,0.0,0.0,0.0,0.0,0.0,-0.5246,-0.5643,0.0,0.0,0.0,-0.642,-0.6502,-0.6475,-0.64,-0.6748,-0.7125,0.0,0.0,0.0,0.0,0.0,0.0,0.0,0.0,-1.3309,-1.3963,0.0,0.0,-1.5524,-1.5654,-1.582,-1.6423,-1.6522,-1.6522,-1.6522,-1.6522,-1.6522,-1.6522,-1.6522,-1.6522,-1.6522,-1.5952,-1.5588,-1.5576,-1.5005,-1.4422,-1.3815,-1.3815,-1.3505,-1.2929,-1.2881,-1.2881,-1.2881,-1.2881,-1.2501,-1.1765,-1.1116,-1.0415,-0.9762,-0.9113,-0.8804,-0.8804,-0.8804,-0.8631,-0.843,-0.878,-0.8874,-0.8829,-0.8602,-0.848,-0.834,0.0,0.0,0.0,0.0,0.0,0.0,0.0,0.0,0.0,0.0,0.0,0.0,0.0,0.0,0.0,0.0,0.0,0.0,-0.845,-0.8532,-0.8927,-0.9732,-0.9166,-0.905,-0.96,-0.9292,-0.9399,-0.996,-1.0623,-1.1233,-1.1711,-1.1888,-1.1908,-1.1811,-1.1773,0.0,0.0,0.0,0.0,0.0,0.0,0.0,0.0,0.0,0.0,0.0,0.0,0.0,0.0,0.0,0.0,0.0,0.0,0.0,0.0,-0.5354,-0.5726,-0.6151,-0.5787,-0.6684,0.0,0.0,0.0,0.0,0.0,0.0,0.0,0.0,0.0,-1.3872,-1.4494,0.0,0.0,-1.5492,-1.5654,-1.582,-1.6423,-1.6522,-1.6522,-1.6522,-1.6522,-1.6522,-1.6522,-1.6522,-1.6522,-1.6522,-1.5952,-1.5477,-1.5205,-1.4867,-1.4268,-1.3331,-1.3647,-1.3505,-1.2929,-1.2881,-1.2657,-1.2129,-1.1948,-1.1562,-1.1065,-1.0914,-1.0167,-0.9113,-0.891,-0.8804,-0.8791,-0.8584,-0.8196,-0.7775,-0.7857,-0.7774,-0.7572,-0.7482,-0.7454,-0.7348,0.0,0.0,0.0,0.0,0.0,0.0,0.0,0.0,0.0,0.0,0.0,0.0,0.0,0.0,0.0,0.0,0.0,0.0,0.0,-0.8269,-0.8568,-0.9568,-0.9124,-0.918,-0.9785,-0.9816,-0.9935,-1.0206,-1.0429,-1.0631,-1.0835,-1.087,-1.0904,-1.0895,-1.1073,-1.0929,0.0,0.0,0.0,0.0,-0.8954,-0.88,-0.9011,0.0,0.0,0.0,0.0,0.0,0.0,0.0,0.0,0.0,0.0,0.0,0.0,-0.4977,-0.5511,-0.6101,-0.6088,0.0,0.0,0.0,0.0,0.0,0.0,0.0,0.0,0.0,0.0,-1.4081,-1.4635,-1.4465,0.0,-1.5198,-1.5485,-1.5732,-1.6095,-1.6337,-1.6423,-1.6194,-1.6139,-1.6139,-1.6139,-1.6139,-1.6238,-1.6466,-1.5813,-1.5246,-1.5019,-1.4415,-1.3768,-1.3131,-1.3315,-1.3286,-1.2881,-1.2881,-1.258,-1.1946,-1.1799,-1.1325,-1.0557,-1.0358,-0.9678,-0.8637,-0.8637,-0.8571,-0.8437,-0.8136,-0.7842,-0.75,-0.7335,-0.7052,-0.6689,-0.6689,-0.6507,-0.6295,0.0,0.0,0.0,0.0,0.0,0.0,0.0,0.0,0.0,0.0,0.0,0.0,0.0,0.0,0.0,0.0,0.0,0.0,0.0,0.0,-0.8298,-0.9491,-0.9277,-0.9482,-1.0264,-1.0615,-1.041,-0.9592,-0.9511,-0.9457,-0.9455,-0.9563,-0.9526,-0.9439,-0.9876,-0.9866,0.0,0.0,0.0,0.0,-0.8626,-0.8735,-0.9266,-0.8116,0.0,0.0,0.0,0.0,0.0,0.0,0.0,0.0,-0.492,-0.4696,-0.4555,-0.5019,-0.5619,-0.6222,-0.6816,0.0,0.0,0.0,0.0,0.0,0.0,0.0,-1.2404,-1.2996,0.0,-1.4072,-1.4563,-1.4672,-1.472,-1.4676,-1.5096,-1.5454,-1.5499,-1.6008,-1.6151,-1.5588,-1.5543,-1.5543,-1.5543,-1.5496,-1.5704,-1.6219,-1.5405,-1.4815,-1.4726,-1.3641,-1.3013,-1.2968,-1.2859,-1.2783,-1.2822,-1.2783,-1.2559,-1.203,-1.1991,-1.1249,-1.0003,-0.9609,-0.9053,-0.8337,-0.8337,-0.8163,-0.7869,-0.7582,-0.7493,-0.7402,-0.7085,-0.6647,-0.6179,-0.6136,-0.5787,-0.5303,0.0,0.0,0.0,0.0,0.0,0.0,0.0,0.0,0.0,0.0,0.0,0.0,0.0,0.0,0.0,0.0,0.0,0.0,0.0,0.0,-0.8499,-0.911,-0.9685,-1.0098,-1.0312,-1.0039,-0.9777,-0.9592,-1.0233,-1.0024,-0.8972,-0.9351,-0.927,-0.8869,0.0,-0.8858,0.0,0.0,0.0,-0.8563,-0.8364,-0.84,-0.8489,-0.7858,-0.7513,0.0,0.0,0.0,0.0,0.0,0.0,0.0,-0.5514,-0.5244,-0.4872,-0.4876,-0.5473,-0.6107,0.0,-0.7271,0.0,0.0,0.0,0.0,0.0,-1.1924,-1.2827,-1.3069,-1.3496,-1.3917,-1.4194,-1.4092,-1.4163,-1.4641,-1.4422,-1.4365,-1.4835,-1.5017,-1.5017,-1.4926,-1.488,-1.488,-1.488,-1.4629,-1.4488,-1.4618,-1.4059,-1.3395,-1.2608,-1.2604,-1.2422,-1.1953,-1.1876,-1.2012,-1.2363,-1.2021,-1.1564,-1.0922,-1.025,-0.9487,-0.8746,-0.9366,-0.9033,-0.8029,-0.8029,-0.7849,-0.7562,-0.754,-0.7328,-0.7072,-0.6581,-0.6307,-0.6136,-0.5658,-0.5394,-0.5221,0.0,0.0,0.0,0.0,0.0,0.0,0.0,0.0,0.0,0.0,0.0,0.0,0.0,0.0,0.0,0.0,0.0,0.0,0.0,0.0,-0.835,-0.8975,-0.9824,-1.0186,-0.9971,-0.9709,-0.9495,-0.9326,-0.9943,-0.9638,0.0,0.0,0.0,-0.8707,0.0,-0.8703,0.0,0.0,-0.8366,-0.8338,-0.8096,-0.8119,-0.8238,-0.7589,-0.7307,-0.7131,-0.6592,0.0,0.0,0.0,0.0,0.0,0.0,0.0,-0.515,-0.4878,-0.5266,-0.583,0.0,0.0,0.0,0.0,0.0,0.0,0.0,-1.1391,-1.1984,-1.2327,-1.3387,-1.4003,-1.3326,-1.375,-1.4143,-1.3884,-1.3826,-1.3909,-1.4236,-1.4372,-1.4406,-1.4307,-1.4076,-1.4033,-1.4261,-1.3903,-1.3751,-1.4079,-1.3173,-1.241,-1.1893,-1.1778,-1.1578,-1.1292,-1.1498,-1.1714,-1.1904,-1.1724,-1.1185,-1.0371,-0.9899,-0.9121,-0.8139,-0.849,-0.8278,-0.7709,-0.7709,-0.7535,-0.7255,-0.7255,-0.6989,-0.6598,-0.6307,-0.583,-0.5303,-0.5,-0.47,-0.4443,0.0,0.0,0.0,0.0,0.0,0.0,0.0,0.0,0.0,0.0,0.0,0.0,0.0,0.0,0.0,0.0,0.0,0.0,0.0,-0.8066,-0.8269,-0.9082,-0.9863,-1.0078,-0.9602,-0.9524,-0.932,-0.9004,-0.9277,0.0,0.0,0.0,0.0,-0.8699,0.0,0.0,0.0,0.0,-0.8262,-0.8232,-0.7793,-0.7789,-0.8001,-0.7194,-0.6865,-0.6813,-0.6417,-0.6323,-0.6376,-0.6475,0.0,0.0,0.0,0.0,-0.52,-0.4832,-0.4989,-0.542,0.0,0.0,0.0,0.0,0.0,0.0,0.0,-1.0781,-1.1022,-1.1324,-1.2941,-1.3878,-1.2351,-1.3349,-1.4103,-1.3055,-1.3324,-1.3637,-1.3637,-1.371,-1.3728,-1.3518,-1.3107,-1.2972,-1.3356,-1.2983,-1.2964,-1.363,-1.2358,-1.1577,-1.1661,-1.1115,-1.0789,-1.0775,-1.1055,-1.1281,-1.1359,-1.1195,-1.0719,-0.9998,-0.9789,-0.904,-0.7753,-0.7499,-0.7432,-0.7432,-0.7432,-0.7248,-0.6979,-0.6894,-0.6605,-0.6179,-0.5964,-0.526,-0.4387,-0.4303,-0.3965,-0.3578,0.0,0.0,0.0,0.0,0.0,0.0,0.0,0.0,0.0,0.0,0.0,-0.8391,-0.8332,-0.8008,0.0,0.0,0.0,0.0,-0.7783,0.0,0.0,-0.9495,-1.002,-1.0078,-0.9602,-0.9277,-0.9062,-0.9004,0.0,0.0,0.0,0.0,0.0,-0.8691,0.0,0.0,0.0,0.0,0.0,-0.7744,-0.7353,-0.7215,-0.717,-0.6293,-0.6106,-0.6274,-0.598,-0.6024,-0.631,-0.6824,-0.6494,0.0,0.0,0.0,-0.4726,-0.4441,-0.4611,-0.4862,0.0,0.0,0.0,0.0,0.0,0.0,0.0,0.0,-1.1305,0.0,-1.1696,-1.2572,-1.1826,-1.2556,-1.3215,-1.2957,-1.2978,-1.3017,-1.3017,-1.2688,-1.2421,-1.2444,-1.2049,-1.1836,-1.1895,-1.1466,-1.14,-1.1917,-1.1054,-1.0637,-1.1012,-1.0596,-1.0328,-1.0215,-0.9949,-0.9967,-1.0306,-0.9514,-0.9241,-0.956,-0.8627,-0.7824,-0.7105,-0.7061,-0.7081,-0.7081,-0.7081,-0.7061,-0.6979,-0.652,-0.627,-0.6093,-0.5043,-0.4565,-0.4347,-0.388,-0.3667,-0.3534,0.0,0.0,0.0,0.0,0.0,0.0,0.0,0.0,0.0,0.0,0.0,-0.8906,-0.846,-0.8203,0.0,0.0,0.0,0.0,-0.7695,-0.8311,0.0,0.0,-0.9336,-0.9365,-0.8936,-0.875,-0.8652,-0.8652,0.0,0.0,0.0,-0.9961,-0.9925,0.0,0.0,0.0,0.0,0.0,0.0,-0.7666,-0.7275,-0.7393,0.0,0.0,-0.6186,-0.6595,-0.5726,-0.5481,-0.5663,-0.6189,-0.626,-0.6123,-0.6074,0.0,0.0,0.0,-0.4653,0.0,-0.5075,0.0,0.0,0.0,0.0,0.0,-0.9298,0.0,-1.0463,-1.0624,-1.0975,-1.1358,-1.1561,-1.242,-1.3062,-1.2899,-1.2676,-1.252,-1.252,-1.1924,-1.1582,-1.1826,-1.1465,-1.1289,-1.1577,-1.1162,-1.0862,-1.079,-1.0212,-0.9918,-1.0096,-0.9937,-0.9839,-0.9772,-0.9609,-0.9439,-0.9321,-0.8913,-0.8683,-0.8594,-0.7773,-0.7273,-0.6979,-0.6689,-0.6562,-0.6562,-0.6562,-0.6343,-0.6033,-0.5782,-0.548,-0.513,-0.4604,-0.422,-0.3924,-0.3667,-0.3581,-0.3534,0.0,0.0,0.0,0.0,0.0,0.0,0.0,0.0,0.0,0.0,0.0,0.0,-0.877,0.0,0.0,0.0,0.0,0.0,-0.7695,0.0,0.0,0.0,0.0,-0.8809,-0.842,-0.8411,-0.8411,0.0,0.0,0.0,-1.0439,-1.0439,-1.0791,0.0,-1.0704,0.0,0.0,0.0,0.0,0.0,0.0,0.0,-0.8273,-0.7077,-0.6943,-0.7285,0.0,0.0,0.0,0.0,0.0,0.0,0.0,0.0,0.0,0.0,0.0,0.0,0.0,0.0,0.0,0.0,0.0,0.0,0.0,0.0,-0.972,0.0,-1.0498,-1.0547,-1.1302,-1.2034,-1.2532,-1.2565,-1.2275,-1.2061,-1.2061,-1.1396,-1.1025,-1.14,-1.1016,-1.0879,-1.1253,-1.0937,-1.0586,-1.014,-0.9745,-0.9484,-0.9461,-0.9493,-0.9359,-0.9119,-0.9239,-0.9039,-0.8521,-0.848,-0.8234,-0.7663,-0.7238,-0.6979,-0.6979,-0.6435,-0.6136,-0.5964,-0.5964,-0.5701,-0.5303,-0.513,-0.4826,-0.4391,-0.4264,-0.3965,-0.3581,-0.3581,-0.349,-0.3306,0.0,0.0,0.0,0.0,0.0,0.0,0.0,0.0,0.0,0.0,0.0,0.0,0.0,0.0,0.0,0.0,0.0,0.0,0.0,0.0,0.0,0.0,0.0,0.0,-0.842,-0.8411,0.0,0.0,0.0,0.0,-1.0879,-1.0879,-1.1572,-1.2754,-1.1455,-1.0645,-1.0195,0.0,0.0,0.0,0.0,0.0,-0.844,-0.8721,-0.8613,-0.8252,0.0,0.0,0.0,0.0,0.0,0.0,-0.625,-0.5808,-0.5107,0.0,0.0,0.0,0.0,0.0,0.0,0.0,0.0,0.0,0.0,0.0,-0.9646,-1.0225,-1.0303,-1.042,-1.0859,-1.0998,-1.1155,-1.1606,-1.1655,-1.1636,-1.1636,-1.1201,-1.0918,-1.0937,-1.0576,-1.0322,-1.0391,-1.0371,-1.028,-1.0113,-0.9745,-0.9438,-0.9333,-0.9433,-0.9039,-0.7995,-0.848,-0.848,-0.7961,-0.7953,-0.7655,-0.7063,-0.7021,-0.6979,-0.6979,-0.6435,-0.5873,-0.5351,-0.5351,-0.5346,-0.526,-0.4696,-0.443,-0.4347,-0.3836,-0.3622,-0.3581,-0.3581,-0.3258,-0.2674,0.0,0.0,0.0,0.0,0.0,0.0,0.0,0.0,0.0,0.0,0.0,0.0,0.0,-0.9121,-0.8672,-0.843,0.0,0.0,0.0,0.0,0.0,0.0,0.0,0.0,0.0,0.0,0.0,0.0,0.0,-0.8691,-1.005,-1.005,-1.0635,-1.1602,-1.1416,-1.1084,-1.0625,-0.9766,0.0,0.0,0.0,0.0,0.0,-0.8955,-0.9014,-0.9434,0.0,0.0,0.0,0.0,0.0,0.0,-0.6133,-0.5863,-0.5519,-0.4694,-0.4576,0.0,0.0,0.0,0.0,0.0,0.0,-0.7494,-0.7811,-0.8462,-0.9039,-0.9239,-0.9279,-0.9444,-0.9901,-1.0479,-1.1055,-1.1528,-1.1371,-1.1143,-1.1143,-1.0771,-1.0508,-1.0508,-1.0371,-1.0283,-1.0283,-1.0,-0.9781,-0.9717,-0.8954,-0.8618,-0.8898,-0.8627,-0.8316,-0.7912,-0.8077,-0.7904,-0.7321,-0.7321,-0.7238,-0.6979,-0.6979,-0.681,-0.6477,-0.5873,-0.5303,-0.4696,-0.4355,-0.4228,-0.4184,-0.3968,-0.388,-0.388,-0.3667,-0.3353,-0.3078,-0.3442,-0.2993,-0.2095,0.0,0.0,0.0,0.0,0.0,0.0,0.0,0.0,0.0,-0.931,0.0,0.0,0.0,0.0,-0.8837,-0.8623,-0.8193,-0.7949,-0.7949,0.0,0.0,0.0,0.0,0.0,0.0,0.0,0.0,0.0,0.0,0.0,0.0,-0.9524,-1.005,-1.0908,-1.0908,-1.0918,0.0,0.0,0.0,-0.9443,0.0,0.0,-1.0645,0.0,-1.0146,-1.0342,0.0,0.0,0.0,0.0,0.0,0.0,-0.6451,-0.5948,-0.5418,-0.4549,-0.4688,0.0,-0.4646,0.0,0.0,0.0,0.0,-0.6863,-0.7422,0.0,-0.8367,-0.865,-0.8716,-0.8797,-0.9159,-0.9736,-1.0371,-1.1042,-1.0889,-1.0653,-1.045,-1.0211,-0.9961,-0.9804,-0.9922,-0.9961,-0.9765,-0.9597,-0.9359,-0.8999,-0.8316,-0.7953,-0.8136,-0.7987,-0.7919,-0.7919,-0.7704,-0.7405,-0.7021,-0.6979,-0.6894,-0.6725,-0.6725,-0.6562,-0.6184,-0.5351,-0.4778,-0.4339,-0.3609,-0.3398,-0.3581,-0.3581,-0.3581,-0.3578,-0.3398,-0.3034,-0.2719,-0.2904,-0.2366,-0.1518,0.0,0.0,0.0,0.0,0.0,0.0,0.0,0.0,-0.8117,-0.8738,0.0,0.0,0.0,0.0,0.0,-0.8994,-0.8652,-0.844,-0.843,-0.7988,0.0,0.0,0.0,0.0,0.0,0.0,0.0,0.0,0.0,0.0,0.0,0.0,-1.0001,-1.082,-0.9962,-1.005,-1.085,0.0,-1.0645,-1.0332,0.0,-1.0674,-1.0527,0.0,0.0,0.0,-1.0928,-1.0391,0.0,-0.9199,0.0,0.0,0.0,-0.6065,-0.4784,-0.4424,-0.4644,0.0,0.0,0.0,0.0,0.0,0.0,0.0,-0.7462,0.0,-0.7617,-0.8464,-0.8626,-0.8667,-0.8675,-0.8675,-0.9039,-1.0079,-1.0244,-1.0079,-0.9558,-0.9478,-0.9279,-0.8756,-0.9159,-0.9279,-0.8756,-0.9159,-0.9039,-0.7995,-0.787,-0.7621,-0.7063,-0.7572,-0.787,-0.787,-0.7321,-0.6979,-0.6979,-0.6979,-0.6732,-0.6184,-0.6179,-0.6179,-0.6093,-0.4957,-0.4382,-0.4326,-0.3199,-0.3034,-0.3578,-0.3578,-0.3578,-0.3534,-0.2943,-0.2672,-0.2583,-0.2008,-0.1385,-0.0851,0.0,0.0,0.0,0.0,0.0,-0.749,-0.7924,-0.796,-0.8165,0.0,0.0,0.0,-0.9392,-0.935,-0.9345,-0.942,-0.932,-0.915,-0.8848,-0.8437,-0.833,-0.8643,-0.877,-0.8779,-0.8652,0.0,0.0,0.0,0.0,0.0,0.0,0.0,0.0,0.0,-0.9563,-0.9554,-0.9531,-0.9531,0.0,-1.0723,-1.0537,-1.0947,0.0,0.0,0.0,0.0,0.0,-1.1025,-1.0537,0.0,-0.9777,-0.88,0.0,0.0,0.0,-0.4925,-0.5121,0.0,-0.514,0.0,0.0,0.0,0.0,0.0,0.0,0.0,-0.6649,-0.7076,-0.7187,-0.7372,-0.799,-0.8118,-0.8357,-0.9039,-0.9159,-0.9079,-0.8958,-0.8918,-0.8878,-0.8716,-0.8837,-0.8878,-0.8716,-0.848,-0.8398,0.0,-0.7731,-0.7363,-0.7621,-0.7405,-0.7238,-0.7238,-0.7105,-0.6979,-0.6979,-0.6598,-0.6349,-0.6179,-0.5744,-0.5308,-0.487,-0.4565,-0.4176,-0.3788,-0.3028,-0.2807,-0.2943,-0.2943,-0.2943,-0.2943,-0.2763,-0.2184,-0.1429,-0.1697,-0.0847,0.0358,0.0,0.0,0.0,-0.7882,-0.7782,-0.7747,-0.8074,-0.8008,-0.8128,0.0,0.0,0.0,-0.8902,-0.9546,-0.9958,-1.0012,-0.9945,-0.9805,-0.9561,-0.8975,-0.875,-0.8994,-0.917,-0.918,-0.9014,-0.9355,0.0,0.0,0.0,0.0,0.0,0.0,0.0,0.0,-0.8775,-0.8863,-0.8984,0.0,0.0,0.0,-1.0693,0.0,0.0,-1.2002,-1.2041,0.0,0.0,0.0,-1.1182,-1.1182,-1.0364,0.0,0.0,-0.6661,-0.5936,-0.5049,-0.5413,0.0,0.0,0.0,0.0,0.0,0.0,0.0,-0.6082,-0.6074,-0.6122,0.0,-0.6587,-0.672,-0.7099,-0.7363,-0.7482,-0.7328,-0.7668,-0.8095,-0.8316,-0.8357,-0.8275,-0.8013,-0.8226,-0.8275,-0.8013,-0.7946,-0.7912,-0.7979,-0.7398,-0.7147,-0.7489,-0.6985,-0.6774,-0.6979,-0.6979,-0.6894,-0.6683,-0.6349,-0.5964,-0.5437,-0.5087,-0.4735,-0.4387,-0.418,-0.3737,-0.3208,-0.2586,-0.2184,-0.1962,-0.1962,-0.2095,-0.2317,-0.2051,-0.1382,-0.0536,-0.0625,0.0134,0.1206,0.0,0.0,-0.7981,-0.7981,-0.7955,-0.7976,-0.7976,-0.7902,-0.8078,0.0,-0.8255,-0.8174,-0.8758,-0.9785,-1.0498,-1.0543,-1.0373,-1.0243,-1.0234,-0.9442,-0.9023,-0.9141,-0.9417,-0.9447,-0.916,-0.9844,-0.9629,0.0,0.0,0.0,0.0,0.0,0.0,-0.8291,-0.79,-0.8123,-0.8818,0.0,0.0,-0.969,-1.0879,-1.123,0.0,0.0,-1.2353,-1.1802,-1.2158,-1.2041,-1.1743,-1.1694,-1.0578,0.0,0.0,-0.7021,-0.5914,-0.5168,-0.5626,0.0,0.0,0.0,0.0,0.0,0.0,0.0,-0.6473,-0.6152,-0.5865,0.0,-0.6493,-0.6422,-0.6258,-0.6619,-0.6626,-0.5572,-0.6259,-0.7105,-0.7621,-0.7746,-0.7621,-0.7063,-0.7489,-0.7572,-0.7063,-0.7489,-0.7538,-0.6937,-0.6852,-0.681,-0.681,-0.6435,-0.6435,-0.6894,-0.6894,-0.6689,-0.6227,-0.605,-0.548,-0.4387,-0.4347,-0.4303,-0.4303,-0.3748,-0.3211,-0.2662,-0.2004,-0.1385,-0.0895,-0.0806,-0.1163,-0.1652,-0.1118,-0.0536,0.0089,0.067,0.1297,0.183,0.0,-0.8477,-0.8637,-0.8637,-0.8444,-0.829,-0.829,-0.8083,-0.8016,-0.8398,-0.8383,-0.8614,-0.9496,-0.9634,-0.9803,-1.0233,-1.001,-0.9839,-0.9965,-0.9246,-0.9217,-1.002,-0.9775,-0.9756,-1.0029,-0.9853,-0.9473,-0.8887,-0.8623,-0.8232,0.0,0.0,0.0,0.0,-0.7734,-0.7793,-0.7978,0.0,0.0,-0.9622,-0.9865,0.0,-1.1957,-1.2266,-1.2471,-1.2684,-1.2725,-1.2695,-1.2568,-1.2217,-1.1615,-1.0795,0.0,-0.8459,-0.7882,-0.6384,-0.6314,-0.6671,-0.6475,0.0,0.0,0.0,0.0,0.0,-0.565,-0.5651,-0.5745,0.0,-0.5885,-0.5943,-0.616,-0.6474,-0.6514,-0.6092,-0.6228,-0.6392,-0.652,-0.6894,-0.7154,-0.7021,-0.7112,-0.7105,-0.7021,-0.7105,-0.6937,-0.6392,-0.591,-0.5647,-0.5647,-0.6002,-0.6264,-0.6349,-0.6349,-0.6307,-0.6184,-0.5216,-0.4652,-0.4387,-0.3965,-0.3751,-0.3751,-0.3167,-0.2807,-0.2627,-0.1563,-0.1029,-0.0851,-0.0359,-0.0538,-0.1073,-0.0939,-0.0537,0.009,0.0672,0.1297,0.1873,-0.8591,-0.8704,-0.8804,-0.8804,-0.8691,-0.8591,-0.8591,-0.8464,-0.8477,-0.8764,-0.8804,-0.8903,-0.9263,-0.9475,-0.9718,-0.9961,-0.9987,-0.9902,-0.9802,-0.9257,-0.911,-0.9478,-0.9289,-0.9387,-0.9873,-0.9676,-0.9478,-0.9281,-0.8896,-0.8467,0.0,-0.7802,0.0,0.0,0.0,0.0,0.0,0.0,-0.9053,-0.9651,-1.0332,0.0,-1.2209,-1.2471,-1.2695,-1.2881,-1.2881,-1.2881,-1.2812,-1.2383,-1.1648,0.0,-0.9512,-0.8772,-0.8093,0.0,-0.677,-0.7095,-0.6786,0.0,0.0,-0.6753,0.0,0.0,0.0,-0.5882,-0.5798,-0.6092,-0.5919,-0.574,-0.5914,-0.6181,-0.622,-0.563,-0.6015,-0.6274,-0.5991,-0.6048,-0.638,-0.6937,-0.6768,-0.6605,-0.6605,-0.6605,-0.6343,-0.5787,-0.5173,-0.5,-0.5303,-0.5303,-0.5437,-0.5744,-0.5744,-0.561,-0.5308,-0.4691,-0.4264,-0.4008,-0.3707,-0.3442,-0.3126,-0.2851,-0.2361,-0.1784,-0.1163,-0.0716,-0.0448,-0.0135,-0.018,-0.0448,-0.0448,-0.009,0.0538,0.1118,0.1741,0.2319,-0.8804,-0.8804,-0.8804,-0.8804,-0.8804,-0.8804,-0.8804,-0.8804,-0.8911,-0.9143,-0.9183,-0.9227,-0.92,0.0,0.0,0.0,-0.9984,-0.9914,-0.9787,-0.9257,-0.8899,-0.8848,-0.8749,-0.8911,-0.9426,-0.9355,-0.9319,-0.929,-0.892,-0.8513,-0.8096,-0.7679,-0.7878,-0.8569,0.0,0.0,0.0,0.0,0.0,-0.9695,0.0,-1.1452,-1.1849,-1.2511,-1.2599,-1.2406,-1.2491,-1.2676,-1.2822,-1.2319,-1.1468,-1.0508,-0.9751,-0.8898,0.0,0.0,0.0,0.0,0.0,0.0,0.0,0.0,0.0,-0.6876,0.0,0.0,0.0,-0.642,-0.6132,0.0,0.0,0.0,0.0,-0.518,0.0,0.0,0.0,-0.5405,0.0,-0.6767,-0.6482,-0.6184,-0.6184,-0.5967,-0.561,-0.5173,-0.453,-0.4396,-0.4957,-0.4609,-0.4609,-0.513,-0.513,-0.4913,-0.4391,-0.4303,-0.4052,-0.3581,-0.349,-0.317,-0.2672,-0.245,-0.183,-0.0895,-0.0761,-0.0448,0.0,0.0,0.0,0.0,0.0,0.0359,0.0984,0.1563,0.2184,0.2807,-0.8804,-0.8804,-0.8804,-0.8804,-0.8804,-0.8804,-0.8804,-0.8804,-0.8911,-0.9143,-0.9183,0.0,0.0,0.0,0.0,0.0,0.0,0.0,-1.0028,-0.9021,-0.8683,-0.9383,-0.8971,-0.8824,-0.9137,-0.8923,-0.8581,-0.8168,-0.7884,-0.7534,-0.7073,-0.6777,-0.6828,-0.7157,-0.7363,0.0,0.0,0.0,-0.8865,0.0,-0.9826,-1.0109,0.0,-1.1801,-1.162,-1.0731,-1.0956,-1.1841,-1.2813,0.0,-1.1751,-1.1474,0.0,-0.9811,-0.9055,-0.8064,0.0,0.0,0.0,0.0,0.0,0.0,-0.7227,0.0,0.0,0.0,-0.644,-0.6283,0.0,0.0,0.0,0.0,0.0,0.0,0.0,0.0,-0.5708,-0.5253,-0.5381,-0.652,-0.6371,-0.6184,-0.6184,-0.5136,-0.4433,-0.4509,-0.3821,-0.3517,-0.3788,-0.418,-0.443,-0.4522,-0.4522,-0.4474,-0.4387,-0.3924,-0.3667,-0.3581,-0.3078,-0.2763,-0.2672,-0.1607,-0.1029,-0.0851,-0.0314,-0.0045,0.0,0.0,0.0,0.0,0.0,0.0359,0.0984,0.1563,0.2184,0.2807,-0.8804,-0.8804,-0.8804,-0.8804,-0.8804,-0.8804,-0.8804,-0.9239,-0.9552,-0.9499,-0.9793,0.0,0.0,0.0,0.0,0.0,0.0,-1.0106,0.0,0.0,0.0,-0.8576,-0.8361,-0.8364,-0.8612,-0.8516,-0.8443,-0.8413,-0.7875,-0.7484,0.0,0.0,-0.7147,-0.7944,-0.7709,0.0,-0.9193,0.0,-0.8947,0.0,0.0,0.0,0.0,-1.0768,-1.1092,-1.0665,-1.0764,-1.1174,-1.1598,0.0,-1.1036,0.0,0.0,0.0,0.0,-0.8938,0.0,0.0,0.0,0.0,0.0,0.0,0.0,0.0,-0.678,0.0,-0.6607,0.0,0.0,0.0,0.0,0.0,0.0,0.0,-0.5596,0.0,0.0,0.0,-0.5892,-0.6527,0.0,0.0,-0.5069,-0.421,-0.3745,-0.3909,-0.356,-0.3373,-0.3571,-0.3796,-0.3921,-0.3921,-0.3921,-0.3921,-0.3921,-0.3711,-0.3442,-0.3078,-0.2807,-0.2317,-0.1652,-0.1118,-0.0716,-0.0359,-0.009,0.0,0.0,0.0,0.0,0.0,0.0,0.0359,0.0984,0.1563,0.2184,0.2807,-0.8804,0.0,0.0,-0.8804,-0.8804,-0.8831,-0.8918,-0.9466,-0.9939,-1.0321,-1.058,0.0,-1.2228,-1.1951,0.0,0.0,-1.1643,-1.084,0.0,0.0,-0.8738,-0.826,-0.8008,-0.8051,-0.8321,-0.8186,-0.8193,-0.8367,-0.7678,-0.7342,0.0,0.0,-0.7227,-0.8118,-0.7822,-0.843,-0.9556,0.0,-0.899,-0.9128,-0.9274,-0.8962,-0.8555,-0.9688,-1.0436,-1.0762,-1.0364,-1.0466,-1.0721,-1.0228,-1.0258,0.0,-1.017,-0.9822,-0.9467,0.0,0.0,0.0,-0.823,0.0,0.0,0.0,0.0,0.0,0.0,0.0,0.0,0.0,0.0,0.0,0.0,0.0,0.0,0.0,0.0,-0.5605,0.0,-0.5782,0.0,0.0,0.0,0.0,0.0,-0.3566,-0.3429,-0.3547,-0.3458,-0.35,-0.3612,-0.3581,-0.3581,-0.3581,-0.3581,-0.3581,-0.3581,-0.3442,-0.3126,-0.2716,-0.2361,-0.1741,-0.0895,-0.0716,-0.0403,0.0,0.0,0.0,0.0,0.0,0.0,0.0,0.0,0.0448,0.1207,0.1652,0.2275,0.299,-0.8804,-0.8804,0.0,0.0,-0.8804,-0.8898,-0.913,-0.9196,-0.9902,-1.1676,-1.1533,0.0,0.0,0.0,0.0,0.0,0.0,-1.1014,-1.0922,0.0,-0.9163,-0.9143,-0.8333,-0.8063,-0.8387,-0.7815,-0.7551,-0.7537,-0.6943,-0.6613,0.0,0.0,0.0,0.0,-0.7274,-0.7674,-0.8024,-0.8582,-0.8978,-0.9158,-0.8938,-0.8823,-0.879,0.0,-0.9444,-1.061,-0.9316,0.0,0.0,-1.0056,-0.9806,-0.9814,-0.9806,0.0,0.0,0.0,0.0,0.0,0.0,0.0,0.0,-0.8056,0.0,0.0,0.0,0.0,-0.6377,0.0,0.0,0.0,0.0,0.0,0.0,0.0,0.0,0.0,0.0,0.0,0.0,0.0,0.0,0.0,0.0,-0.3405,-0.3522,-0.342,-0.3656,-0.3746,-0.3609,-0.3581,-0.3581,-0.3581,-0.3581,-0.3581,-0.3581,-0.3034,-0.2719,-0.2672,-0.1518,-0.094,-0.0895,-0.0314,0.0,0.0,0.0,0.0,0.0,0.0,0.0,0.0,0.0,0.0716,0.1784,0.1786,0.2546,0.3578,0.0,0.0,0.0,0.0,0.0,-0.8971,-0.9459,-1.0317,-1.138,-1.2592,-1.2717,0.0,0.0,-1.4893,-1.4403,0.0,0.0,-1.2381,-1.1303,-1.0548,0.0,-0.9826,-0.9352,-0.8958,0.0,-0.8457,-0.8163,-0.7776,-0.7168,-0.6981,-0.7204,0.0,0.0,0.0,0.0,-0.7943,0.0,0.0,0.0,0.0,0.0,-0.9212,-0.9332,0.0,-0.9023,-0.9413,-0.8956,-0.9106,-0.9465,-0.9211,-0.9413,-0.9814,-0.9814,-0.9666,-0.9465,-0.9465,-0.9159,-0.8804,-0.8804,-0.8804,-0.8606,-0.7709,0.0,0.0,0.0,0.0,0.0,0.0,0.0,0.0,0.0,0.0,0.0,0.0,0.0,0.0,0.0,0.0,0.0,0.0,0.0,0.0,0.0,0.0,-0.3655,-0.3771,-0.3522,-0.3417,-0.3609,-0.3581,-0.3581,-0.3581,-0.3581,-0.3398,-0.299,-0.2807,-0.2317,-0.1518,-0.1073,-0.0672,-0.0314,-0.009,0.0,0.0,0.0,0.0,0.0,0.0,0.0,0.0045,0.0448,0.1073,0.1786,0.1786,0.2546,0.3581,-1.0061,0.0,0.0,0.0,0.0,-0.9756,-1.027,-1.1745,-1.3132,0.0,-1.4547,0.0,-1.598,0.0,-1.5287,0.0,-1.3694,-1.298,-1.163,-1.1236,0.0,-1.0294,-0.9993,0.0,-0.9279,-0.8965,-0.8624,-0.8243,-0.7596,-0.7442,-0.7622,0.0,0.0,0.0,0.0,-0.8156,-0.8564,-0.9152,-0.9345,0.0,0.0,-0.9606,0.0,0.0,-0.9051,-0.8965,0.0,-0.8891,-0.8804,-0.8804,-0.9113,-0.9465,-0.9465,-0.9465,-0.9465,-0.9465,-0.9159,-0.8804,-0.8804,-0.8804,-0.8574,-0.756,-0.7062,0.0,-0.5997,0.0,-0.5391,0.0,0.0,0.0,0.0,0.0,0.0,0.0,0.0,0.0,0.0,-0.4674,0.0,0.0,0.0,0.0,0.0,0.0,-0.384,-0.3914,-0.3625,0.0,0.0,-0.3581,-0.349,-0.3306,-0.3262,-0.299,-0.2408,-0.2184,-0.165,-0.0895,-0.0672,-0.0359,0.0,0.0,0.0,0.0,0.0,0.0,0.0,0.0,0.0,0.0045,0.0672,0.1252,0.183,0.2051,0.2768,0.3581,-1.0585,-0.9617,0.0,0.0,-1.0122,0.0,0.0,0.0,-1.5022,0.0,-1.6736,-1.6757,-1.6768,-1.6035,-1.5079,-1.3777,-1.34,-1.2872,-1.2017,-1.1917,0.0,0.0,-1.0347,-1.0174,-1.016,-0.9312,-0.8864,-0.8851,-0.825,-0.7915,-0.7922,0.0,0.0,0.0,-0.7908,0.0,-0.8844,-0.9432,-0.986,-1.014,-1.014,-0.9973,-0.9726,-0.9726,-0.9539,-0.9223,-0.9196,-0.9065,-0.8824,-0.8811,-0.8804,-0.8804,-0.8804,-0.8804,-0.8804,-0.8804,-0.8804,-0.8804,-0.8804,-0.8804,-0.8528,-0.7526,-0.6832,-0.6146,-0.5155,0.0,-0.4861,0.0,0.0,0.0,0.0,0.0,0.0,0.0,0.0,0.0,0.0,0.0,0.0,0.0,0.0,0.0,0.0,-0.3853,-0.4082,-0.3843,-0.3907,0.0,0.0,-0.3571,-0.33,-0.2719,-0.2719,-0.2406,-0.1739,-0.1207,-0.0895,-0.0851,-0.0269,0.0,0.0,0.0,0.0,0.0,0.0,0.0,0.0,0.0,0.0,0.0045,0.0716,0.1343,0.1969,0.2549,0.3129,0.3581,-1.0429,-1.0031,-0.978,0.0,-1.0394,-1.1244,0.0,-1.2706,0.0,0.0,-1.6346,-1.6038,-1.7056,-1.63,-1.5235,-1.4038,-1.3701,0.0,0.0,0.0,0.0,-1.1864,-1.1363,-1.0989,-1.0775,-1.012,-0.9673,-0.9459,-0.8651,-0.837,-0.8571,0.0,0.0,0.0,0.0,0.0,-0.8844,-0.9432,-0.998,-1.0448,-1.0448,-1.0401,-1.0396,0.0,-1.0147,-0.9833,-0.9342,-0.9137,-0.9044,-0.8878,-0.8804,-0.8804,-0.8804,-0.8804,-0.8804,-0.8804,-0.8804,-0.8804,-0.8804,-0.8804,-0.8461,-0.7105,-0.6587,-0.6186,-0.5259,-0.4746,0.0,0.0,0.0,0.0,0.0,0.0,0.0,0.0,0.0,0.0,0.0,0.0,0.0,-0.3083,0.0,0.0,0.0,-0.3909,-0.4147,-0.3962,-0.3581,0.0,-0.3605,-0.3473,-0.3153,-0.2716,-0.2719,-0.2184,-0.1163,-0.0984,-0.0672,-0.0224,-0.009,0.0,0.0,0.0,0.0,0.0,0.0,0.0,0.0,0.0,0.0,0.009,0.1163,0.2273,0.3315,0.3453,0.3576,0.3595,-1.1038,-1.0826,0.0,-1.0862,0.0,0.0,-1.3632,-1.4637,-1.5992,-1.7993,-1.7663,0.0,-1.7492,-1.6823,-1.5951,-1.4894,-1.4171,0.0,-1.3467,0.0,0.0,-1.2318,-1.1984,-1.167,-1.1383,-1.1044,0.0,-0.9873,0.0,0.0,-0.8798,0.0,0.0,0.0,0.0,-0.8604,-0.9031,-0.9626,-1.014,-1.0624,-1.0624,-1.0624,0.0,-1.0624,-1.0454,-1.0247,-0.9786,-0.9539,-0.9412,-0.9245,-0.9105,-0.8998,-0.8998,-0.8911,-0.8804,-0.8804,-0.8586,-0.8374,-0.8699,-0.8321,-0.7616,-0.6804,-0.6275,-0.5813,-0.5022,-0.4499,-0.4292,-0.4632,-0.4888,-0.5035,0.0,0.0,0.0,0.0,0.0,0.0,0.0,0.0,0.0,0.0,-0.3467,0.0,0.0,-0.3732,-0.3923,-0.3643,-0.3333,0.0,0.0,-0.3161,-0.2827,-0.2317,-0.2051,-0.1474,-0.0538,-0.0502,-0.0323,0.0,0.0,0.0,0.0,0.0,0.0,0.0,0.0,0.0,0.0,0.0,0.0135,0.0539,0.1776,0.2957,0.3897,0.3968,0.3897,0.3775,-1.2155,0.0,0.0,0.0,0.0,0.0,-1.5724,-1.7333,-1.8745,-1.9482,0.0,-1.9305,-1.8127,-1.7661,-1.7048,-1.5846,-1.4958,-1.4068,-1.336,-1.3527,-1.3293,-1.2512,-1.2547,-1.2458,-1.2199,-1.2109,-1.1497,0.0,-1.0482,-0.9982,-0.8903,0.0,0.0,0.0,0.0,0.0,0.0,-0.988,-1.0287,-1.0624,-1.0624,-1.0624,-1.0624,-1.0624,-1.0624,-1.0591,-1.0267,-0.9987,-0.9733,-0.9699,-0.9512,-0.9243,-0.9243,-0.9125,-0.8911,-0.8878,-0.8318,-0.7878,-0.8493,-0.767,-0.6588,-0.6475,-0.5982,-0.5324,-0.468,-0.4365,-0.4311,-0.4436,-0.4677,-0.4962,-0.54,0.0,0.0,0.0,0.0,0.0,0.0,0.0,0.0,0.0,0.0,0.0,0.0,0.0,0.0,0.0,-0.3188,0.0,0.0,0.0,-0.2378,-0.1828,-0.1214,-0.0632,0.0,0.0,0.0,0.0,0.0,0.0,0.0,0.0,0.0,0.0,0.0,0.0046,0.0137,0.0137,0.0547,0.1323,0.2452,0.3377,0.4016,0.4147,0.4123,0.4056,-1.3195,0.0,0.0,0.0,0.0,-1.7611,-1.7378,-1.7646,-1.854,-2.0593,-1.996,-1.9384,-1.9751,-1.8903,-1.7762,-1.6284,-1.6007,0.0,0.0,0.0,0.0,-1.3414,-1.369,-1.3836,-1.3777,-1.349,-1.3016,-1.2485,-1.1158,-1.0188,-0.9614,0.0,0.0,0.0,0.0,0.0,-0.9626,-0.9973,0.0,-1.0624,-1.0624,-1.0624,-1.0624,-1.0624,-1.0624,-1.0618,-1.0501,-1.0294,-1.0007,-0.9766,-0.9653,-0.9606,-0.9606,-0.9573,-0.9479,-0.9232,-0.8656,-0.8055,-0.7943,-0.7235,-0.648,-0.5873,-0.5597,-0.5324,-0.468,-0.4498,-0.4433,-0.4512,-0.4529,-0.4681,-0.5072,0.0,0.0,0.0,0.0,0.0,0.0,0.0,0.0,0.0,0.0,-0.3394,0.0,0.0,0.0,0.0,0.0,-0.3063,-0.3252,0.0,-0.2154,-0.1825,-0.1201,-0.0613,0.0,0.0,0.0,0.0,0.0,0.0,0.0,0.0,0.0,0.0,0.0,0.0346,0.089,0.089,0.163,0.2761,0.2978,0.3512,0.416,0.4184,0.4304,0.4365,-1.4714,0.0,0.0,0.0,0.0,0.0,-1.8997,-1.9913,-2.0625,-2.1128,-2.0568,-2.0218,-2.0386,-1.9793,-1.9101,-1.8397,-1.7795,-1.6807,-1.5319,-1.507,-1.4842,-1.4522,-1.469,-1.4889,-1.5051,-1.5101,-1.4444,-1.3009,-1.2463,-1.1393,-0.9814,-0.9465,0.0,0.0,0.0,-0.9272,0.0,0.0,-1.0287,-1.0624,-1.0624,-1.0624,-1.0624,-1.0624,-1.0624,-1.0624,-1.0624,-1.053,-1.0327,-1.0187,-1.0033,-0.9907,-0.9907,-0.9806,-0.9595,-0.8978,-0.8299,-0.7695,-0.7467,-0.6506,-0.5642,-0.5634,-0.5341,-0.4893,-0.457,-0.4519,-0.4519,-0.4519,-0.4519,-0.4525,-0.4632,-0.4524,0.0,0.0,0.0,0.0,0.0,0.0,0.0,0.0,0.0,0.0,0.0,0.0,0.0,0.0,0.0,-0.2971,-0.3075,-0.2319,-0.1882,-0.1782,-0.0932,-0.0286,0.0,0.0404,0.057,0.0569,0.0949,0.1116,0.1115,0.1149,0.1139,0.1138,0.1116,0.1359,0.1712,0.2014,0.2541,0.3254,0.3568,0.3964,0.4358,0.4358,0.4402,0.4484,0.0,-1.5711,0.0,0.0,-1.8029,-1.9366,-2.0252,-2.195,-2.2773,-2.1777,-2.1641,-2.1504,-2.1152,-2.0938,-2.0686,-2.034,-1.9299,-1.8194,-1.69,-1.6468,-1.6034,-1.5523,-1.5767,-1.5974,-1.6005,-1.6572,-1.5882,-1.3795,-1.379,-1.2555,-1.0171,-0.9895,0.0,0.0,0.0,0.0,0.0,0.0,-1.0414,-1.0742,-1.0742,-1.0742,-1.0742,-1.0742,-1.0701,-1.0719,-1.0719,-1.0678,-1.0624,-1.0624,-1.0408,-1.0214,-1.0214,-0.9933,-0.9491,-0.8693,-0.7838,-0.705,-0.6897,-0.583,-0.4903,-0.5439,-0.505,-0.456,-0.4525,-0.4519,-0.4519,-0.4519,-0.4519,-0.4419,-0.422,-0.4175,0.0,0.0,0.0,0.0,0.0,0.0,0.0,0.0,0.0,0.0,-0.2911,0.0,0.0,0.0,0.0,-0.2779,-0.2951,-0.1986,-0.1525,-0.1782,-0.047,0.0242,0.0242,0.0985,0.1341,0.1341,0.1928,0.2174,0.2173,0.2223,0.2195,0.2191,0.2187,0.2265,0.247,0.3138,0.3447,0.3587,0.4078,0.4362,0.4519,0.4519,0.4519,0.4481,0.0,0.0,0.0,0.0,0.0,-2.174,-2.0596,-2.195,-2.3096,-2.2978,-2.2959,-2.2939,-2.29,-2.2882,-2.2312,-2.0957,-1.9694,-1.8841,-1.8382,-1.6939,-1.6152,-1.6169,-1.7376,-1.7614,-1.6674,-1.744,-1.734,0.0,0.0,-1.2972,-1.1308,-1.0262,-0.9563,0.0,0.0,0.0,-1.0544,-1.0571,-1.0835,-1.1349,-1.1349,-1.1349,-1.1349,-1.1349,-1.1182,-1.0955,-1.0955,-1.0782,-1.0624,-1.0624,-1.0604,-1.0521,-1.0521,-0.9983,-0.9277,-0.8892,-0.7649,-0.6444,-0.6159,-0.5502,-0.4863,-0.4841,-0.4735,-0.4633,-0.4549,-0.4519,-0.4519,-0.4519,-0.4519,-0.4419,-0.422,-0.4341,-0.4334,0.0,0.0,0.0,0.0,0.0,-0.198,-0.2457,0.0,0.0,0.0,-0.2795,0.0,0.0,-0.2311,-0.2364,-0.3048,-0.1602,-0.1106,-0.1781,0.0,0.1004,0.1004,0.1719,0.2109,0.2109,0.2171,0.2174,0.2174,0.2223,0.222,0.222,0.2213,0.2597,0.3257,0.4033,0.4375,0.4385,0.4443,0.4505,0.4519,0.4519,0.4519,0.4494,0.0,0.0,-1.9497,-1.9841,-2.0629,-2.1165,-2.0953,-2.1544,-2.1756,-2.1033,-2.2227,-2.3135,-2.3135,-2.3135,-2.261,-2.1253,-2.0704,-1.9652,-1.7872,-1.7003,-1.6736,-1.7215,-1.7554,-1.7961,-1.8583,-1.8341,-1.7835,0.0,0.0,-1.3262,-1.2131,-1.0886,-1.0143,-0.978,-1.0134,-1.0488,-1.0828,-1.1009,-1.1209,-1.1423,-1.1423,-1.1423,-1.1423,-1.1423,-1.1356,-1.1249,-1.1249,-1.1176,-1.1082,-1.1082,-1.0516,-0.9849,-0.9849,-0.9204,-0.8398,-0.7718,-0.7053,-0.6467,-0.583,-0.5367,-0.5033,-0.4969,-0.4819,-0.4674,-0.4613,-0.4584,-0.4519,-0.4519,-0.4519,-0.4498,-0.4389,-0.4355,-0.4324,-0.429,0.0,0.0,0.0,0.0,0.0,-0.2685,0.0,-0.3016,0.0,-0.3035,0.0,0.0,0.0,-0.2374,-0.2563,-0.1614,-0.0966,-0.0726,0.0478,0.126,0.1662,0.2427,0.2899,0.2899,0.3345,0.3566,0.3566,0.3566,0.3566,0.3566,0.3566,0.3735,0.407,0.4349,0.4519,0.4519,0.4519,0.4519,0.4519,0.4519,0.4519,0.4508,-2.1382,-2.0228,-1.9765,-2.1105,-2.092,-2.0825,-2.1212,-2.1569,-2.1489,-2.0674,-2.1765,-2.2589,-2.2589,-2.2589,-2.2217,-2.1382,-2.1025,-1.9915,-1.8037,-1.7265,-1.7064,-1.761,-1.783,0.0,-1.8774,-1.847,-1.7832,-1.7014,-1.5112,-1.3648,-1.2578,-1.1294,-1.0562,-1.0394,-1.0808,-1.1089,-1.1263,-1.147,-1.1603,-1.1683,-1.1683,-1.1683,-1.1683,-1.1683,-1.163,-1.1557,-1.1557,-1.1496,-1.1423,-1.1423,-1.0539,-0.9497,-0.9491,-0.8838,-0.7926,-0.7003,-0.6568,-0.6203,-0.5557,-0.5281,-0.5186,-0.5142,-0.4942,-0.4748,-0.4701,-0.4572,-0.4519,-0.4519,-0.4519,-0.4519,-0.4519,-0.4379,-0.4331,-0.4389,0.0,0.0,0.0,-0.2706,0.0,-0.2858,-0.2895,-0.3028,-0.3361,-0.3174,0.0,0.0,0.0,-0.2552,-0.2299,-0.1546,-0.0849,-0.0303,0.0815,0.162,0.2043,0.314,0.368,0.3735,0.4239,0.4519,0.4519,0.4519,0.4519,0.4519,0.4519,0.4519,0.4519,0.4519,0.4519,0.4519,0.4519,0.4519,0.4519,0.4519,0.4519,0.4519,-2.1569,-2.1284,-2.1284,-2.1293,-2.1284,-2.1284,-2.1293,-2.2306,-2.3047,-2.3047,-2.2031,-2.1293,-2.1293,-2.1293,-2.1293,-2.1293,-2.0215,-1.9488,-1.948,-1.7879,-1.7063,0.0,0.0,-1.8354,-1.6167,-1.7553,-1.7534,-1.6051,0.0,-1.4096,-1.2684,-1.1274,-1.0772,-1.0982,-1.0989,-1.1316,-1.1857,-1.1864,-1.2031,-1.2291,-1.2291,-1.2291,-1.2291,-1.2291,-1.2111,-1.1864,-1.1864,-1.167,-1.1423,-1.1423,-1.0798,-1.0089,-0.9939,-0.9212,-0.8218,-0.7205,-0.621,-0.5428,-0.5428,-0.5425,-0.5321,-0.5169,-0.5023,-0.4877,-0.4724,-0.4572,-0.4519,-0.4519,-0.4519,-0.4519,-0.4519,-0.4515,-0.4412,-0.422,0.0,0.0,0.0,-0.2966,0.0,-0.2905,-0.3134,-0.3309,-0.3392,-0.3083,0.0,0.0,0.0,0.0,-0.2503,-0.1362,-0.075,-0.0899,0.1133,0.2199,0.2221,0.3727,0.4463,0.4463,0.4519,0.4519,0.4519,0.4519,0.4519,0.4519,0.4519,0.4519,0.4519,0.4519,0.4519,0.4519,0.4519,0.4519,0.4519,0.4519,0.4519,0.4519,-2.2589,-2.2492,-2.2492,-2.2492,-2.2492,-2.2217,-2.1382,-2.1667,-2.1578,-2.0764,-2.0305,-2.0034,-2.0034,-2.0845,-2.0935,0.0,-2.0486,-2.0034,0.0,-1.753,-1.7063,-1.707,-1.7358,-1.7437,-1.7291,-1.6976,-1.6726,-1.6444,0.0,-1.3276,-1.2456,-1.2182,-1.2177,-1.2271,-1.2412,-1.2605,-1.2786,-1.2786,-1.2839,-1.2919,-1.2919,-1.2792,-1.2605,-1.2605,-1.2425,-1.2164,-1.2164,-1.2104,-1.2024,-1.2024,-1.1801,-1.1433,-1.0761,-0.9169,-0.7469,-0.6428,-0.5835,-0.5518,-0.5518,-0.544,-0.5415,-0.5301,-0.5176,-0.5023,-0.4877,-0.4646,-0.4519,-0.4519,-0.4519,-0.4519,-0.4519,-0.4519,-0.4501,-0.4402,-0.4265,0.0,-0.4063,0.0,-0.3757,-0.3667,-0.3628,-0.3612,-0.3561,-0.3422,0.0,0.0,0.0,-0.2442,-0.1923,-0.1592,-0.09,0.0274,0.1544,0.2411,0.281,0.3948,0.4519,0.4519,0.4519,0.4519,0.4519,0.4519,0.4519,0.4519,0.4519,0.4519,0.4519,0.4519,0.4519,0.4519,0.4519,0.4519,0.4519,0.4519,0.4519,0.4519,-2.3135,-2.2765,-2.2403,-2.2403,-2.2403,-2.2208,-2.1391,-2.1293,-2.1203,-2.0854,-2.0034,-1.967,-2.0124,-2.0486,-2.0124,-1.8956,-1.9488,-1.9131,-1.7131,-1.6743,-1.6629,-1.6536,-1.6682,-1.6772,-1.6927,-1.6522,-1.6107,-1.5896,-1.4195,-1.318,-1.2806,-1.2886,-1.2919,-1.2926,-1.3126,-1.3213,-1.3213,-1.3213,-1.3213,-1.3213,-1.3213,-1.3093,-1.2919,-1.2919,-1.2806,-1.2645,-1.2645,-1.2565,-1.2472,-1.2472,-1.2392,-1.215,-1.1087,-0.9532,-0.7843,-0.6768,-0.6065,-0.5657,-0.5603,-0.5518,-0.5433,-0.5442,-0.5243,-0.5094,-0.4952,-0.4724,-0.4548,-0.4548,-0.456,-0.4519,-0.4519,-0.4519,-0.4519,-0.4519,-0.4519,-0.4519,-0.4519,0.0,-0.3739,0.0,0.0,-0.3122,-0.333,-0.3324,-0.3463,0.0,0.0,-0.2445,-0.1781,-0.154,-0.0797,0.0527,0.1382,0.208,0.2759,0.3641,0.4181,0.4519,0.4519,0.4519,0.4519,0.4519,0.4519,0.4519,0.4519,0.4519,0.4519,0.4519,0.4519,0.4519,0.4519,0.4519,0.4519,0.4519,0.4519,0.4519,-2.3193,-2.2255,-2.1418,-2.1391,-2.1382,-2.1382,-2.1382,-2.1382,-2.1845,-2.296,-2.1132,-2.0124,-2.1203,-2.0305,-1.9131,-1.7956,-1.7777,-1.7318,-1.6015,-1.592,-1.592,-1.5832,-1.6551,-1.6478,-1.5398,-1.6088,-1.587,-1.4549,-1.3981,-1.3625,-1.3701,-1.3407,-1.3273,-1.3273,-1.3273,-1.3273,-1.3273,-1.3273,-1.3273,-1.3273,-1.3273,-1.326,-1.324,-1.324,-1.3227,-1.3213,-1.3213,-1.3026,-1.2856,-1.2856,-1.2579,-1.2183,-1.1267,-1.0207,-0.903,-0.786,-0.673,-0.5789,-0.5657,-0.5606,-0.5555,-0.5413,-0.5254,-0.5034,-0.4839,-0.4697,-0.4643,-0.4632,-0.4462,-0.4359,-0.4408,-0.4349,-0.4349,-0.4405,-0.4405,-0.4405,-0.4405,-0.3695,-0.3086,-0.3026,0.0,-0.2118,-0.2813,-0.2918,-0.3224,-0.392,0.0,-0.2722,-0.2024,-0.1133,-0.043,0.0,0.0692,0.1459,0.2174,0.2954,0.368,0.4405,0.4405,0.4405,0.4349,0.4349,0.4349,0.4349,0.4349,0.4349,0.4349,0.4349,0.4349,0.4405,0.4405,0.446,0.4519,0.4519,0.4519,0.4519,-2.3701,-2.3444,-2.306,-2.2735,-2.2677,-2.2677,-2.2677,-2.2677,-2.2775,-2.3047,-2.2589,-2.2041,-2.1382,-2.1025,-2.0395,-1.9222,-1.9039,-1.8588,-1.7318,-1.7225,-1.685,-1.5825,-1.594,-1.5892,-1.5398,-1.5593,-1.5409,-1.4863,-1.4489,-1.4309,-1.4302,-1.4015,-1.3881,-1.3881,-1.3881,-1.3881,-1.3881,-1.3881,-1.3881,-1.3881,-1.3881,-1.3741,-1.354,-1.354,-1.34,-1.3213,-1.3213,-1.3166,-1.31,-1.31,-1.2893,-1.2639,-1.2405,-1.0959,-0.9059,-0.8027,-0.6911,-0.5969,-0.5935,-0.5759,-0.5583,-0.5545,-0.5332,-0.4928,-0.4193,-0.3971,-0.38,-0.3648,-0.3143,-0.293,-0.3471,-0.3121,-0.2954,-0.3566,-0.3624,-0.3566,-0.3566,-0.3434,-0.3059,0.0,-0.2056,-0.2179,-0.2821,-0.299,-0.3316,-0.3929,0.0,-0.2272,-0.1994,-0.0826,-0.0104,0.0,0.0709,0.1441,0.2174,0.301,0.3456,0.3566,0.3624,0.3345,0.2732,0.2732,0.2732,0.2732,0.2732,0.2732,0.2732,0.2732,0.3065,0.3566,0.3566,0.3959,0.4519,0.4519,0.4519,0.4519,-2.4121,-2.4072,-2.4004,-2.3769,-2.3564,-2.3437,-2.3437,-2.2802,-2.2492,-2.3047,-2.2589,-2.2217,-2.212,-2.1123,-2.0215,-1.9579,-1.9497,-1.8956,-1.7777,-1.7692,-1.7131,-1.5832,-1.5832,-1.5758,-1.5598,-1.5591,-1.5451,-1.5164,-1.4863,-1.4723,-1.4723,-1.4563,-1.4489,-1.4489,-1.4489,-1.4409,-1.4282,-1.4282,-1.4208,-1.4088,-1.4088,-1.3988,-1.3848,-1.3848,-1.3748,-1.3614,-1.3614,-1.352,-1.3407,-1.3407,-1.3206,-1.2875,-1.2388,-1.1343,-1.0046,-0.8394,-0.7088,-0.6122,-0.6051,-0.5915,-0.5759,-0.5623,-0.5464,-0.5186,-0.4659,-0.4094,-0.3678,-0.3554,-0.2809,-0.233,-0.2746,-0.2759,-0.2843,-0.3289,-0.3345,-0.3345,-0.3287,-0.2732,-0.2161,-0.1635,-0.1306,-0.135,-0.201,-0.2148,-0.2479,-0.3116,-0.2254,-0.1684,-0.1577,-0.0599,0.0,0.0,0.0388,0.1118,0.2174,0.3345,0.3901,0.3846,0.3569,0.3176,0.2676,0.2343,0.2174,0.2174,0.2174,0.2174,0.2174,0.2174,0.2454,0.2843,0.3176,0.3566,0.4012,0.4349,0.4519,0.4519,-2.4531,-2.4521,-2.4492,-2.4424,-2.4121,-2.3887,-2.3887,-2.2674,-2.2036,-2.3057,-2.2255,-2.1943,-2.296,-2.1311,-2.0034,-2.0034,-1.9861,-1.9131,-1.7498,-1.7591,-1.7131,-1.5832,-1.5832,-1.5832,-1.5832,-1.5832,-1.5712,-1.5464,-1.517,-1.503,-1.503,-1.4983,-1.4963,-1.4963,-1.4963,-1.4823,-1.4589,-1.4589,-1.4442,-1.4222,-1.4222,-1.4222,-1.4215,-1.4168,-1.4155,-1.4148,-1.4102,-1.3928,-1.3707,-1.3707,-1.352,-1.3107,-1.2117,-1.1605,-1.1049,-0.8927,-0.734,-0.6257,-0.6105,-0.6047,-0.5966,-0.5691,-0.5606,-0.5555,-0.5289,-0.4415,-0.3608,-0.3592,-0.2649,-0.196,-0.2186,-0.2644,-0.3033,-0.3314,-0.3299,-0.3178,-0.3121,0.0,-0.1062,-0.095,-0.0392,-0.028,-0.1006,-0.1118,-0.1396,-0.212,-0.1507,-0.1118,-0.1118,-0.0392,0.0,0.0,0.0112,0.0895,0.2343,0.379,0.4463,0.4349,0.3566,0.3121,0.2954,0.223,0.1842,0.1842,0.1842,0.1842,0.1842,0.1842,0.1952,0.212,0.273,0.301,0.3231,0.4015,0.4349,0.4349,-2.5039,-2.4971,-2.4853,-2.4482,-2.4365,-2.4316,-2.4316,-2.3774,-2.3493,-2.3691,-2.3183,-2.2862,-2.3047,-2.2775,-2.2501,-2.2501,-2.1578,-1.9662,-1.6292,-1.7131,-1.7131,-1.5832,-1.5832,-1.5832,-1.5832,-1.5832,-1.5805,-1.5758,-1.5471,-1.5331,-1.5324,-1.5077,-1.4963,-1.4963,-1.4963,-1.4937,-1.4897,-1.4897,-1.487,-1.483,-1.483,-1.483,-1.4796,-1.4549,-1.4449,-1.4422,-1.4175,-1.4055,-1.4015,-1.4015,-1.3821,-1.3492,-1.3323,-1.1828,-1.0095,-0.9737,-0.8146,-0.641,-0.6264,-0.6129,-0.5986,-0.5813,-0.5677,-0.5372,-0.4582,-0.3596,-0.2841,-0.2711,-0.1469,-0.0757,-0.2208,-0.1903,-0.1921,-0.3314,-0.2897,-0.2397,-0.2397,-0.1619,-0.0894,-0.0224,-0.0056,-0.028,-0.1006,-0.1118,-0.1396,-0.212,-0.1507,-0.1118,-0.1118,-0.0392,0.0,0.0,0.0616,0.1619,0.3121,0.4015,0.4181,0.3569,0.2788,0.2063,0.1396,0.0671,0.0336,0.0336,0.0336,0.0336,0.0336,0.0336,0.0727,0.1284,0.1396,0.184,0.2454,0.3289,0.3566,0.368,-2.5469,-2.543,-2.5361,-2.5166,-2.5127,-2.5049,-2.4805,-2.4404,-2.4043,-2.3818,-2.3613,-2.3398,-2.3164,-2.2492,-2.212,-2.212,-2.1658,-2.0025,-1.703,-1.7412,-1.7131,-1.5832,-1.5832,-1.5832,-1.5832,-1.5832,-1.5832,-1.5832,-1.5698,-1.5631,-1.5625,-1.5491,-1.5431,-1.5431,-1.5431,-1.5344,-1.5197,-1.5197,-1.511,-1.4963,-1.4963,-1.4963,-1.495,-1.481,-1.4763,-1.4743,-1.4609,-1.4456,-1.4322,-1.4322,-1.4122,-1.3791,-1.3098,-1.2075,-1.0939,-0.9663,-0.7947,-0.6441,-0.6298,-0.621,-0.6118,-0.5962,-0.5874,-0.5639,-0.506,-0.3868,-0.2786,-0.2644,-0.1237,-0.0386,-0.1644,-0.1758,-0.2122,-0.3478,-0.2883,-0.2245,-0.2343,-0.13,-0.0392,-0.0056,0.0,-0.0112,-0.0448,-0.0504,-0.0671,-0.1006,-0.0727,-0.0504,-0.0504,-0.0168,0.0168,0.056,0.1284,0.2232,0.3345,0.4125,0.4349,0.3959,0.3176,0.2397,0.1675,0.0951,0.0392,0.0,0.0,0.0,0.0,0.0,0.0224,0.056,0.095,0.1563,0.2286,0.3065,0.3624,0.4015,-2.5742,-2.5742,-2.5742,-2.5742,-2.5742,-2.5625,-2.5273,-2.4853,-2.4453,-2.4131,-2.3994,-2.3809,-2.3467,-2.2598,-2.1995,-2.1903,-2.1626,-2.0671,-1.8688,-1.8048,-1.7131,-1.5832,-1.5832,-1.5832,-1.5832,-1.5832,-1.5832,-1.5832,-1.5832,-1.5832,-1.5832,-1.5832,-1.5832,-1.5832,-1.5832,-1.5705,-1.5498,-1.5498,-1.5364,-1.5164,-1.5164,-1.5164,-1.5157,-1.509,-1.5064,-1.5057,-1.499,-1.4816,-1.4609,-1.4543,-1.4416,-1.4091,-1.307,-1.2546,-1.202,-0.9828,-0.7943,-0.6539,-0.6359,-0.6312,-0.6274,-0.6122,-0.6057,-0.5969,-0.5742,-0.4434,-0.3192,-0.3055,-0.1589,-0.0651,-0.1755,-0.1928,-0.2355,-0.3586,-0.2785,-0.2017,-0.2127,-0.093,0.0,0.0,0.0,0.0,0.0,0.0,0.0,0.0,0.0,0.0,0.0,0.0,0.0339,0.1062,0.184,0.2565,0.34,0.3959,0.4349,0.4519,0.368,0.2899,0.2174,0.1619,0.095,0.028,0.028,0.028,0.0224,0.0056,0.0,0.0056,0.0615,0.1284,0.2009,0.2788,0.3566,0.4294,-2.5742,-2.5742,-2.5742,-2.5742,-2.5742,-2.5723,-2.5693,-2.5303,-2.501,-2.498,-2.4619,-2.4355,-2.4326,-2.4224,-2.4069,-2.368,-2.2628,-2.1717,-2.1051,-1.8956,-1.7131,-1.5832,-1.5832,-1.5832,-1.5832,-1.5832,-1.5832,-1.5832,-1.5832,-1.5832,-1.5832,-1.5832,-1.5832,-1.5832,-1.5832,-1.5818,-1.5798,-1.5798,-1.5785,-1.5765,-1.5765,-1.5765,-1.5732,-1.5471,-1.5364,-1.5331,-1.5064,-1.495,-1.489,-1.4609,-1.4689,-1.4803,-1.417,-1.3379,-1.2458,-1.0911,-0.8721,-0.6831,-0.6536,-0.6458,-0.6424,-0.6281,-0.6135,-0.6023,-0.6,-0.4985,-0.4114,-0.4107,-0.2518,-0.1736,-0.3469,-0.2346,-0.1726,-0.3512,-0.2306,-0.1162,-0.1227,-0.0491,0.0,0.0,0.0,0.0,0.0,0.0,0.0,0.0,0.0,0.0,0.0,0.0,0.0347,0.1063,0.184,0.2565,0.34,0.3456,0.3846,0.4519,0.368,0.2899,0.2174,0.212,0.173,0.1006,0.1006,0.1006,0.095,0.028,0.0,0.0,0.0056,0.056,0.1284,0.2009,0.2788,0.3566,-2.5742,-2.5742,-2.5742,-2.5742,-2.5742,-2.5742,-2.5742,-2.5596,-2.5381,-2.5107,-2.4922,-2.4717,-2.4443,-2.4414,-2.4355,-2.4199,-2.3702,-2.3065,-2.2152,-2.1214,-1.9601,-1.7052,-1.6197,-1.6197,-1.6943,-1.6197,-1.5832,-1.5832,-1.5832,-1.5832,-1.5832,-1.5832,-1.5832,-1.5832,-1.5832,-1.5832,-1.5832,-1.5832,-1.5832,-1.5832,-1.5832,-1.5832,-1.5818,-1.5705,-1.5665,-1.5651,-1.5538,-1.5384,-1.5217,-1.5104,-1.5017,-1.4923,-1.4703,-1.3762,-1.2399,-1.0159,-0.8317,-0.7014,-0.681,-0.6617,-0.6437,-0.6295,-0.6217,-0.6146,-0.6051,-0.5197,-0.4517,-0.4372,-0.2868,-0.1857,-0.3092,-0.2121,-0.1553,-0.289,-0.1965,-0.1116,-0.12,-0.0499,0.0,0.0,0.0,0.0,0.0,0.0,0.0,0.0,0.0,0.0,0.0,0.0,0.0121,0.0417,0.07,0.1426,0.2621,0.2676,0.2788,0.3065,0.2788,0.2232,0.1507,0.1507,0.1118,0.0392,0.0392,0.0671,0.1062,0.028,0.056,0.134,0.0838,0.1396,0.2508,0.2788,0.34,0.4125,-2.5742,-2.5742,-2.5742,-2.5742,-2.5742,-2.5742,-2.5742,-2.5742,-2.5625,-2.5322,-2.5283,-2.5166,-2.4863,-2.4834,-2.4775,-2.4639,-2.4619,-2.4179,-2.3186,-2.2793,-2.1165,-1.8052,-1.7087,-1.6949,-1.7692,-1.648,-1.6015,-1.6386,-1.6015,-1.5832,-1.5832,-1.5832,-1.5832,-1.5832,-1.5832,-1.5832,-1.5832,-1.5832,-1.5832,-1.5832,-1.5832,-1.5832,-1.5832,-1.5832,-1.5832,-1.5832,-1.5832,-1.5705,-1.5518,-1.5431,-1.5324,-1.5204,-1.5023,-1.4085,-1.2526,-1.026,-0.8705,-0.7694,-0.7063,-0.6776,-0.6569,-0.6376,-0.6329,-0.6288,-0.6135,-0.5607,-0.5095,-0.5006,-0.3665,-0.2754,-0.3672,-0.24,-0.1612,-0.2573,-0.1645,-0.0775,-0.0848,-0.0386,0.0,0.0,0.0,0.0,0.0,0.0,0.0,0.0,0.0,0.0,0.0,0.0,0.0,0.0,0.0,0.0473,0.1498,0.1767,0.1983,0.2209,0.2209,0.1804,0.1118,0.134,0.1062,0.0336,0.0336,0.0615,0.1062,0.028,0.0616,0.1507,0.1229,0.1842,0.301,0.3231,0.379,0.4519,-2.5742,-2.5742,-2.5742,-2.5742,-2.5742,-2.5742,-2.5742,-2.5742,-2.5742,-2.5742,-2.5742,-2.5742,-2.5742,-2.5742,-2.5557,-2.5117,-2.5068,-2.4893,-2.4453,-2.328,-2.1389,-1.8472,-1.8361,-1.8115,-1.7699,-1.6487,-1.6386,-1.7692,-1.6386,-1.5832,-1.5832,-1.5832,-1.5832,-1.5832,-1.5832,-1.5832,-1.5832,-1.5832,-1.5832,-1.5832,-1.5832,-1.5832,-1.5832,-1.5832,-1.5832,-1.5832,-1.5832,-1.5832,-1.5785,-1.5498,-1.5591,-1.5732,-1.515,-1.4141,-1.2893,-1.1552,-1.0234,-0.8995,-0.7353,-0.6932,-0.6858,-0.6549,-0.6474,-0.6437,-0.6295,-0.6142,-0.6034,-0.603,-0.5167,-0.4784,-0.5656,-0.3481,-0.1874,-0.2734,-0.1261,0.0,0.0,0.0,0.0,0.0,0.0,0.0,0.0,0.0,0.0,0.0,0.0,0.0,0.0,0.0,0.0,0.0,0.0,0.0,0.0,0.0717,0.1467,0.2169,0.2169,0.1787,0.1119,0.1843,0.1786,0.1118,0.1118,0.1118,0.1062,0.028,0.0,0.0112,0.0839,0.1563,0.2286,0.3065,0.379,0.4519,-2.5791,-2.5742,-2.5742,-2.5742,-2.5742,-2.5742,-2.5742,-2.5742,-2.5742,-2.5742,-2.5742,-2.5742,-2.5742,-2.5742,-2.5684,-2.5547,-2.5537,-2.5478,-2.5352,-2.4948,-2.3864,-2.1891,-2.0649,-1.9868,-1.9418,-1.8203,-1.7158,-1.6386,-1.6015,-1.5832,-1.5832,-1.5832,-1.5832,-1.5832,-1.5832,-1.5832,-1.5832,-1.5832,-1.5832,-1.5832,-1.5832,-1.5832,-1.5832,-1.5832,-1.5832,-1.5832,-1.5832,-1.5832,-1.5812,-1.5732,-1.5758,-1.5765,-1.5384,-1.4517,-1.3436,-1.2808,-1.161,-1.0295,-0.8941,-0.8472,-0.8037,-0.6954,-0.663,-0.6593,-0.6444,-0.6373,-0.6312,-0.6213,-0.5382,-0.4691,-0.499,-0.3158,-0.1668,-0.1942,-0.0864,0.0,0.0,0.0,0.0,0.0,0.0,0.0,0.0,0.0,0.0,0.0,0.0,0.0,0.0,0.0,0.0,0.0,0.0,0.0,0.0,0.0187,0.0426,0.0668,0.0668,0.0545,0.036,0.0527,0.0522,0.0347,0.034,0.0615,0.1062,0.028,0.0615,0.1563,0.1786,0.2343,0.3121,0.3846,0.4294,0.4519,-2.6299,-2.624,-2.6191,-2.6025,-2.5996,-2.5937,-2.5762,-2.5742,-2.5742,-2.5742,-2.5742,-2.5742,-2.5742,-2.5742,-2.5742,-2.5742,-2.5742,-2.5742,-2.5742,-2.5742,-2.5315,-2.4253,-2.3299,-2.2223,-2.1105,-1.9399,-1.8097,-1.7479,-1.6464,-1.5945,-1.5832,-1.5832,-1.5832,-1.5832,-1.5832,-1.5832,-1.5832,-1.5832,-1.5832,-1.5832,-1.5832,-1.5832,-1.5832,-1.5832,-1.5832,-1.5832,-1.5832,-1.5832,-1.5832,-1.5832,-1.5832,-1.5798,-1.5625,-1.5091,-1.4372,-1.3632,-1.2797,-1.1807,-1.0367,-0.9522,-0.884,-0.7785,-0.7168,-0.6753,-0.6597,-0.6515,-0.6447,-0.6363,-0.5832,-0.5351,-0.5351,-0.3927,-0.2685,-0.229,-0.1329,-0.0513,-0.0072,0.0,0.0,0.0,0.0,0.0,0.0,0.0,0.0,0.0,0.0,0.0,0.0,0.0,0.0,0.0,0.0,0.0,0.0,0.0,0.0,0.0,0.0,0.0,0.0,0.0,0.0,0.0,0.0,0.0233,0.064,0.0175,0.0524,0.1334,0.166,0.2049,0.2556,0.3304,0.379,0.4015,-2.7021,-2.7012,-2.6894,-2.6514,-2.6445,-2.6309,-2.5908,-2.582,-2.5791,-2.5791,-2.5762,-2.5742,-2.5742,-2.5742,-2.5742,-2.5742,-2.5742,-2.5742,-2.5742,-2.5742,-2.5742,-2.5742,-2.5742,-2.4765,-2.2921,-2.0354,-1.9388,-1.998,-1.763,-1.6359,-1.6089,-1.5879,-1.5865,-1.6055,-1.5838,-1.5832,-1.5832,-1.5832,-1.5832,-1.5832,-1.5832,-1.5832,-1.5832,-1.5832,-1.5832,-1.5832,-1.5832,-1.5832,-1.5832,-1.5832,-1.5832,-1.5832,-1.5832,-1.5832,-1.5582,-1.4278,-1.3906,-1.3501,-1.1748,-1.0527,-0.9477,-0.9046,-0.8005,-0.6991,-0.6756,-0.6614,-0.6505,-0.6478,-0.6369,-0.6278,-0.6342,-0.5392,-0.4344,-0.3419,-0.2422,-0.1353,-0.0293,-0.0146,-0.0073,0.0,0.0,0.0,0.0,0.0,0.0,0.0,0.0,0.0,0.0,0.0,0.0,0.0,0.0,0.0,0.0,0.0,0.0,0.0,0.0,0.0,0.0,0.0,0.0,0.0,0.0,0.0,0.0,0.0,0.0,0.0062,0.0836,0.1121,0.1175,0.1935,0.2643,0.3203,-2.708,-2.7012,-2.6982,-2.6894,-2.6875,-2.6846,-2.6748,-2.6455,-2.625,-2.625,-2.5947,-2.5742,-2.5742,-2.5742,-2.5742,-2.5742,-2.5742,-2.5742,-2.5742,-2.5742,-2.5742,-2.5742,-2.5742,-2.545,-2.5054,-2.3238,-2.1214,-1.9016,-1.8446,-1.8123,-1.805,-1.6752,-1.6746,-1.7669,-1.6395,-1.5832,-1.5832,-1.5832,-1.5832,-1.5832,-1.5832,-1.5832,-1.5832,-1.5832,-1.5832,-1.5832,-1.5832,-1.5832,-1.5832,-1.5832,-1.5832,-1.5832,-1.5832,-1.5832,-1.5724,-1.5461,-1.5191,-1.4705,-1.346,-1.2581,-1.1551,-0.9647,-0.8878,-0.8182,-0.7083,-0.6854,-0.6763,-0.6522,-0.6447,-0.6393,-0.6281,-0.5392,-0.46,-0.4424,-0.3488,-0.2384,-0.1429,-0.1274,-0.0968,-0.0073,0.0,0.0,0.0,0.0,0.0,0.0,0.0,0.0,0.0,0.0,0.0,0.0,0.0,0.0,0.0,0.0,0.0,0.0,0.0,0.0,0.0,0.0,0.0,0.0,0.0,0.0,0.0,0.0,0.0,0.0062,0.0795,0.1097,0.1217,0.1932,0.2287,0.2458,-2.7676,-2.7627,-2.7559,-2.7363,-2.7324,-2.7256,-2.7041,-2.6826,-2.6689,-2.6689,-2.6484,-2.6348,-2.6348,-2.6172,-2.6045,-2.6045,-2.5859,-2.583,-2.6035,-2.585,-2.5742,-2.5742,-2.5742,-2.5742,-2.5742,-2.4908,-2.3293,-2.0939,-2.0247,-1.9473,-1.8648,-1.78,-1.7442,-1.7533,-1.6599,-1.6172,-1.6039,-1.6039,-1.5959,-1.5832,-1.5832,-1.5832,-1.5832,-1.5832,-1.5832,-1.5832,-1.5832,-1.5832,-1.5832,-1.5832,-1.5832,-1.5832,-1.5832,-1.5832,-1.5832,-1.5832,-1.5718,-1.5384,-1.4676,-1.3866,-1.2852,-1.1352,-1.0416,-0.9407,-0.7407,-0.6976,-0.6881,-0.6722,-0.663,-0.6559,-0.6485,-0.6007,-0.5401,-0.4849,-0.4249,-0.35,-0.2459,-0.2302,-0.191,-0.0907,-0.0755,-0.0526,-0.0074,0.0,0.0,0.0,0.0,0.0,0.0,0.0,0.0,0.0,0.0,0.0,0.0,0.0,0.0,0.0,0.0,0.0,0.0,0.0,0.0,0.0,0.0,0.0,0.0,0.0,0.0,0.0064,0.0444,0.0567,0.0628,0.099,0.1354,0.1713,-2.8291,-2.8291,-2.8184,-2.7832,-2.7773,-2.7646,-2.7285,-2.7168,-2.7129,-2.7129,-2.706,-2.7012,-2.7012,-2.6699,-2.6494,-2.6494,-2.6162,-2.6113,-2.6475,-2.6162,-2.5928,-2.585,-2.585,-2.581,-2.5742,-2.5742,-2.4956,-2.3408,-2.2201,-2.0752,-1.9201,-1.8958,-1.8144,-1.7068,-1.6827,-1.6573,-1.6346,-1.6346,-1.6172,-1.5905,-1.5905,-1.5872,-1.5832,-1.5832,-1.5832,-1.5832,-1.5832,-1.5832,-1.5832,-1.5832,-1.5832,-1.5832,-1.5832,-1.5832,-1.5832,-1.5832,-1.5832,-1.5772,-1.5538,-1.4775,-1.3779,-1.3141,-1.2193,-1.0855,-0.8355,-0.7498,-0.7214,-0.6932,-0.6827,-0.6732,-0.6705,-0.6597,-0.626,-0.5345,-0.5097,-0.4628,-0.3515,-0.3357,-0.2969,-0.1957,-0.188,-0.1476,-0.061,-0.0523,-0.0516,-0.0516,-0.0514,-0.0513,-0.0513,-0.0511,-0.0505,-0.0495,-0.0565,-0.0559,-0.0546,-0.0546,-0.0545,-0.0475,-0.0545,-0.034,0.0,0.0,0.0,0.0,0.0,0.0,0.0,0.0,0.0,0.0,0.0,0.0,0.0,0.0,0.0375,0.0989,-2.8291,-2.8291,-2.8271,-2.8223,-2.8203,-2.8193,-2.8125,-2.7812,-2.7578,-2.7578,-2.7246,-2.7012,-2.7012,-2.6963,-2.6934,-2.6934,-2.6875,-2.6865,-2.6924,-2.6875,-2.668,-2.6318,-2.6299,-2.6123,-2.5742,-2.5742,-2.4992,-2.361,-2.3502,-2.2663,-2.1293,-1.9807,-1.9082,-1.8765,-1.731,-1.6687,-1.6647,-1.6647,-1.648,-1.6213,-1.6213,-1.6059,-1.5832,-1.5832,-1.5832,-1.5832,-1.5832,-1.5832,-1.5832,-1.5832,-1.5832,-1.5832,-1.5832,-1.5832,-1.5832,-1.5832,-1.5832,-1.5818,-1.5785,-1.5491,-1.4903,-1.3797,-1.3232,-1.2541,-1.0949,-0.9596,-0.8293,-0.7125,-0.6912,-0.6858,-0.6725,-0.6681,-0.6624,-0.6331,-0.6294,-0.5836,-0.4621,-0.4453,-0.4062,-0.3046,-0.289,-0.2809,-0.2722,-0.2713,-0.2707,-0.2707,-0.2658,-0.2703,-0.2703,-0.2648,-0.2684,-0.2676,-0.2674,-0.2671,-0.2662,-0.2662,-0.263,-0.2501,-0.2632,-0.1758,0.0,0.0,0.0,0.0,0.0,0.0,0.0,0.0,0.0,0.0,0.0,0.0,0.0,0.0,0.0066,0.0192,-2.8291,-2.8291,-2.8291,-2.8291,-2.8291,-2.8291,-2.8291,-2.8135,-2.8018,-2.8018,-2.7851,-2.7734,-2.7734,-2.7519,-2.7373,-2.7373,-2.7158,-2.7119,-2.7363,-2.7148,-2.6934,-2.6748,-2.6738,-2.6543,-2.6113,-2.6103,-2.5672,-2.4815,-2.4815,-2.3384,-2.0538,-2.0585,-1.9811,-1.8295,-1.7558,-1.7108,-1.6954,-1.6954,-1.6787,-1.6513,-1.6513,-1.6433,-1.6299,-1.6139,-1.6079,-1.6052,-1.5885,-1.5832,-1.5832,-1.5832,-1.5832,-1.5832,-1.5832,-1.5832,-1.5832,-1.5832,-1.5832,-1.5832,-1.5832,-1.5732,-1.5504,-1.4775,-1.4549,-1.4012,-1.2643,-1.1779,-1.0894,-0.9252,-0.8931,-0.8738,-0.8064,-0.7889,-0.7548,-0.6819,-0.6654,-0.641,-0.586,-0.5851,-0.5416,-0.4229,-0.3586,-0.317,-0.3127,-0.3124,-0.3124,-0.3124,-0.3095,-0.3078,-0.3078,-0.3121,-0.3085,-0.3119,-0.3117,-0.3095,-0.3123,-0.3123,-0.3105,-0.2999,-0.3107,-0.2262,-0.0739,-0.082,-0.0546,0.0,0.0,0.0,0.0,0.0,0.0,0.0,0.0,0.0,0.0,0.0,0.0,0.0]},{"header":{"parameterUnit":"m.s-1","parameterCategory":1,"la1":30.6,"la2":28.766,"lo1":-90.7593,"lo2":-88.6598,"dy":0.0162,"dx":0.0183,"nx":116,"ny":114,"refTime":"2024-05-16T06:00:00:Z","depth":0,"parameterNumber":3,"parameterNumberName":"V-component_of_WINDS"},"data":[0.0,0.0,0.0,0.0,0.0,0.0,0.0,0.0,0.0,0.0,0.0,0.0,0.0,0.0,0.0,0.0,0.0,0.0,0.0,0.0,0.0,0.0,0.0,0.0,0.0,0.0,0.0,0.0,0.0,0.0,0.0,0.0,0.0,0.0,0.0,0.0,0.0,0.0,0.0,0.0,0.0,0.0,0.0,0.0,0.0,0.0,0.0,0.0,0.0,0.0,0.0,0.0,0.0,0.0,0.0,0.0,0.0,0.0,0.0,0.0,0.0,0.0,0.0,0.0,0.0,0.0,0.0,0.0,0.0,0.0,0.0,0.0,0.0,0.0,0.0,0.0,0.0,0.0,0.0,0.0,0.0,0.0,0.0,0.0,0.0,0.0,0.0,0.0,0.0,0.0,0.0,0.0,0.0,0.0,0.0,0.0,0.0,0.0,0.0,0.0,0.0,0.0,0.0,0.0,0.0,0.0,0.0,0.0,0.0,0.0,0.0,0.0,0.0,0.0,0.0,0.0,0.0,0.0,0.0,0.0,0.0,0.0,0.0,0.0,0.0,0.0,0.0,0.0,0.0,0.0,0.0,0.0,0.0,0.0,0.0,0.0,0.0,0.0,0.0,0.0,0.0,0.0,0.0,0.0,0.0,0.0,0.0,0.0,0.0,0.0,0.0,0.0,0.0,0.0,0.0,0.0,0.0,0.0,0.0,0.0,0.0,0.0,0.0,0.0,0.0,0.0,0.0,0.0,0.0,0.0,0.0,0.0,0.0,0.0,0.0,0.0,0.0,0.0,0.0,0.0,0.0,0.0,0.0,0.0,0.0,0.0,0.0,0.0,0.0,0.0,0.0,0.0,0.0,0.0,0.0,0.0,0.0,0.0,0.0,0.0,0.0,0.0,0.0,0.0,0.0,0.0,0.0,0.0,0.0,0.0,0.0,0.0,0.0,0.0,0.0,0.0,0.0,0.0,0.0,0.0,0.0,0.0,0.0,0.0,0.0,0.0,0.0,0.0,0.0,0.0,0.0,0.0,0.0,0.0,0.0,0.0,0.0,0.0,0.0,0.0,0.0,0.0,0.0,0.0,0.0,0.0,0.0,0.0,0.0,0.0,0.0,0.0,0.0,0.0,0.0,0.0,0.0,0.0,0.0,0.0,0.0,0.0,0.0,0.0,0.0,0.0,0.0,0.0,0.0,0.0,0.0,0.0,0.0,0.0,0.0,0.0,0.0,0.0,0.0,0.0,0.0,0.0,0.0,0.0,0.0,0.0,0.0,0.0,0.0,0.0,0.0,0.0,0.0,0.0,0.0,0.0,0.0,0.0,0.0,0.0,0.0,0.0,0.0,0.0,0.0,0.0,0.0,0.0,0.0,0.0,0.0,0.0,0.0,0.0,0.0,0.0,0.0,0.0,0.0,0.0,0.0,0.0,0.0,0.0,0.0,0.0,0.0,0.0,0.0,0.0,0.0,0.0,0.0,0.0,0.0,0.0,0.0,0.0,0.0,0.0,0.0,0.0,0.0,0.0,0.0,0.0,0.0,0.0,0.0,0.0,0.0,0.0,0.0,0.0,0.0,0.0,0.0,0.0,0.0,0.0,0.0,0.0,0.0,0.0,0.0,0.0,0.0,0.0,0.0,0.0,0.0,0.0,0.0,0.0,0.0,0.0,0.0,0.0,0.0,0.0,0.0,0.0,0.0,0.0,0.0,0.0,0.0,0.0,0.0,0.0,0.0,0.0,0.0,0.0,0.0,0.0,0.0,0.0,0.0,0.0,0.0,0.0,0.0,0.0,0.0,0.0,0.0,0.0,0.0,0.0,0.0,0.0,0.0,0.0,0.0,0.0,0.0,0.0,0.0,0.0,0.0,0.0,0.0,0.0,0.0,0.0,0.0,0.0,0.0,0.0,0.0,0.0,0.0,0.0,0.0,0.0,0.0,0.0,0.0,0.0,0.0,0.0,0.0,0.0,0.0,0.0,0.0,0.0,0.0,0.0,0.0,0.0,0.0,0.0,0.0,0.0,0.0,0.0,0.0,0.0,0.0,0.0,0.0,0.0,0.0,0.0,0.0,0.0,0.0,0.0,0.0,0.0,0.0,0.0,0.0,0.0,0.0,0.0,0.0,0.0,0.0,0.0,0.0,0.0,0.0,0.0,0.0,0.0,0.0,0.0,0.0,0.0,0.0,0.0,0.0,0.0,0.0,0.0,0.0,0.0,0.0,0.0,0.0,0.0,0.0,0.0,0.0,0.0,0.0,0.0,0.0,0.0,0.0,0.0,0.0,0.0,0.0,0.0,0.0,0.0,0.0,0.0,0.0,0.0,0.0,0.0,0.0,0.0,0.0,0.0,0.0,0.0,0.0,0.0,0.0,0.0,0.0,0.0,0.0,0.0,0.0,0.0,0.0,0.0,0.0,0.0,0.0,0.0,0.0,0.0,0.0,0.0,0.0,0.0,0.0,0.0,0.0,0.0,0.0,0.0,0.0,0.0,0.0,0.0,0.0,0.0,0.0,0.0,0.0,0.0,0.0,0.0,0.0,0.0,0.0,0.0,0.0,0.0,0.0,0.0,0.0,0.0,0.0,0.0,0.0,0.0,0.0,0.0,0.0,0.0,0.0,0.0,0.0,0.0,0.0,0.0,0.0,0.0,0.0,0.0,0.0,0.0,0.0,0.0,0.0,0.0,0.0,0.0,0.0,0.0,0.0,0.0,0.0,0.0,0.0,0.0,0.0,0.0,0.0,0.0,0.0,0.0,0.0,0.0,0.0,0.0,0.0,0.0,0.0,0.0,0.0,0.0,0.0,0.0,0.0,0.0,0.0,0.0,0.0,0.0,0.0,0.0,0.0,0.0,0.0,0.0,0.0,0.0,0.0,0.0,0.0,0.0,0.0,0.0,0.0,0.0,0.0,0.0,0.0,0.0,0.0,0.0,0.0,0.0,0.0,0.0,0.0,0.0,0.0,0.0,0.0,0.0,0.0,0.0,0.0,0.0,0.0,0.0,0.0,0.0,0.0,0.0,0.0,0.0,0.0,0.0,0.0,0.0,0.0,0.0,0.0,0.0,0.0,0.0,0.0,0.0,0.0,0.0,0.0,0.0,0.0,0.0,0.0,0.0,0.0,0.0,0.0,0.0,0.0,0.0,0.0,0.0,0.0,0.0,0.0,0.0,0.0,0.0,0.0,0.0,0.0,0.0,0.0,0.0,0.0,0.0,0.0,0.0,0.0,0.0,0.0,0.0,0.0,0.0,0.0,0.0,0.0,0.0,0.0,0.0,0.0,0.0,0.0,0.0,0.0,0.0,0.0,0.0,0.0,0.0,0.0,0.0,0.0,0.0,0.0,0.0,0.0,0.0,0.0,0.0,0.0,0.0,0.0,0.0,0.0,0.0,0.0,0.0,0.0,0.0,0.0,0.0,0.0,0.0,0.0,0.0,0.0,0.0,0.0,0.0,0.0,0.0,0.0,0.0,0.0,0.0,0.0,0.0,0.0,0.0,0.0,0.0,0.0,0.0,0.0,0.0,0.0,0.0,0.0,0.0,0.0,0.0,0.0,0.0,0.0,0.0,0.0,0.0,0.0,0.0,0.0,0.0,0.0,0.0,0.0,0.0,0.0,0.0,0.0,0.0,0.0,0.0,0.0,0.0,0.0,0.0,0.0,0.0,0.0,0.0,0.0,0.0,0.0,0.0,0.0,0.0,0.0,0.0,0.0,0.0,0.0,0.0,0.0,0.0,0.0,0.0,0.0,0.0,0.0,0.0,0.0,0.0,0.0,0.0,0.0,0.0,0.0,0.0,0.0,0.0,0.0,0.0,0.0,0.0,0.0,0.0,0.0,0.0,0.0,0.0,0.0,0.0,0.0,0.0,0.0,0.0,0.0,0.0,0.0,0.0,0.0,0.0,0.0,0.0,0.0,0.0,0.0,0.0,0.0,0.0,0.0,0.0,0.0,0.0,0.0,0.0,0.0,0.0,0.0,0.0,0.0,0.0,0.0,0.0,0.0,0.0,0.0,0.0,0.0,0.0,0.0,0.0,0.0,0.0,0.0,0.0,0.0,0.0,0.0,0.0,0.0,0.0,0.0,0.0,0.0,0.0,0.0,0.0,0.0,0.0,0.0,0.0,0.0,0.0,0.0,0.0,0.0,0.0,0.0,0.0,0.0,0.0,0.0,0.0,0.0,0.0,0.0,0.0,0.0,0.0,0.0,0.0,0.0,0.0,0.0,0.0,0.0,0.0,0.0,0.0,0.0,0.0,0.0,0.0,0.0,0.0,0.0,0.0,0.0,0.0,0.0,0.0,0.0,0.0,0.0,0.0,0.0,0.0,0.0,0.0,0.0,0.0,0.0,0.0,0.0,0.0,0.0,0.0,0.0,0.0,0.0,0.0,0.0,0.0,0.0,0.0,0.0,0.0,0.0,0.0,0.0,0.0,0.0,0.0,0.0,0.0,0.0,0.0,0.0,0.0,0.0,0.0,0.0,0.0,0.0,0.0,0.0,0.0,0.0,0.0,0.0,0.0,0.0,0.0,0.0,0.0,0.0,0.0,0.0,0.0,0.0,0.0,0.0,0.0,0.0,0.0,0.0,0.0,0.0,0.0,0.0,0.0,0.0,0.0,0.0,0.0,0.0,0.0,0.0,0.0,0.0,0.0,0.0,0.0,0.0,0.0,0.0,0.0,0.0,0.0,0.0,0.0,0.0,0.0,0.0,0.0,0.0,0.0,0.0,0.0,0.0,0.0,0.0,0.0,0.0,0.0,0.0,0.0,0.0,0.0,0.0,0.0,0.0,0.0,0.0,0.0,0.0,0.0,0.0,0.0,0.0,0.0,0.0,0.0,0.0,0.0,0.0,0.0,0.0,0.0,0.0,0.0,0.0,0.0,0.0,0.0,0.0,0.0,0.0,0.0,0.0,0.0,0.0,0.0,0.0,0.0,0.0,0.0,0.0,0.0,0.0,0.0,0.0,0.0,0.0,0.0,0.0,0.0,0.0,0.0,0.0,0.0,0.0,0.0,0.0,0.0,0.0,0.0,0.0,0.0,0.0,0.0,0.0,0.0,0.0,0.0,0.0,0.0,0.0,0.0,0.0,0.0,0.0,0.0,0.0,0.0,0.0,0.0,0.0,0.0,0.0,0.0,0.0,0.0,0.0,0.0,0.0,0.0,0.0,0.0,0.0,0.0,0.0,0.0,0.0,0.0,0.0,0.0,0.0,0.0,0.0,0.0,0.0,0.0,0.0,0.0,0.0,0.0,0.0,0.0,0.0,0.0,0.0,0.0,0.0,0.0,0.0,0.0,0.0,0.0,0.0,0.0,0.0,0.0,0.0,0.0,0.0,0.0,0.0,0.0,0.0,0.0,0.0,0.0,0.0,0.0,0.0,0.0,0.0,0.0,0.0,0.0,0.0,0.0,0.0,0.0,0.0,0.0,0.0,0.0,0.0,0.0,0.0,0.0,0.0,0.0,0.0,0.0,0.0,0.0,0.0,0.0,0.0,0.0,0.0,0.0,0.0,0.0,0.0,0.0,0.0,0.0,0.0,0.0,0.0,0.0,0.0,0.0,0.0,0.0,0.0,0.0,0.0,0.0,0.0,0.0,0.0,0.0,0.0,0.0,0.0,0.0,0.0,0.0,0.0,0.0,0.0,0.0,0.0,0.0,0.0,0.0,0.0,0.0,0.0,0.0,0.0,0.0,0.0,0.0,0.0,0.0,0.0,0.0,0.0,0.0,0.0,0.0,0.0,0.0,0.0,0.0,0.0,0.0,0.0,0.0,0.0,0.0,0.0,0.0,0.0,0.0,0.0,0.0,0.0,0.0,0.0,0.0,0.0,0.0,0.0,0.0,0.0,0.0,0.0,0.0,0.0,0.0,0.0,0.0,0.0,0.0,0.0,0.0,0.0,0.0,0.0,0.0,0.0,0.0,0.0,0.0,0.0,0.0,0.0,0.0,0.0,0.0,0.0,0.0,0.0,0.0,0.0,0.0,0.0,0.0,0.0,0.0,0.0,0.0,0.0,0.0,0.0,0.0,0.0,0.0,0.0,0.0,0.0,0.0,0.0,0.0,0.0,0.0,0.0,0.0,0.0,0.0,0.0,0.0,0.9635,0.9284,0.0,0.0,0.0,0.0,0.0,0.0,0.0,0.0,0.0,0.0,0.0,0.0,0.0,0.0,0.0,0.0,0.0,0.0,0.0,0.0,0.0,0.0,0.0,0.8176,0.8269,0.8253,0.8393,0.851,0.8542,0.0,0.0,0.0,0.0,0.0,0.824,0.8026,0.8165,0.8658,0.8738,0.9097,0.9697,0.9544,0.9005,0.8137,0.0,0.0,0.0,0.0,0.0,0.0,0.0,0.0,0.0,0.0,0.0,0.0,0.0,0.0,0.0,0.0,0.0,0.0,0.0,0.0,0.0,0.0,0.0,0.0,0.0,0.0,0.0,0.0,0.0,0.0,0.0,0.0,0.0,0.0,0.0,0.0,0.0,0.0,0.0,0.0,0.0,0.0,0.0,0.0,0.0,0.0,0.0,0.0,0.0,0.0,0.0,0.0,0.0,0.0,0.0,0.0,0.0,0.0,0.0,0.0,0.0,0.0,0.0,0.0,0.0,0.0,0.0,0.0,0.0,0.0,1.0412,1.0005,0.0,0.0,0.0,0.0,0.0,0.0,0.0,0.0,0.0,0.0,0.0,0.0,0.0,0.0,0.0,0.0,0.0,0.0,0.0,0.0,0.0,0.8298,0.8012,0.839,0.8653,0.8704,0.8798,0.8902,0.8967,0.8831,0.0,0.0,0.0,0.8293,0.8454,0.8273,0.8627,0.9565,0.9789,1.0412,1.1358,1.1517,1.0765,0.9234,0.8828,0.0,0.0,0.0,0.0,0.0,0.0,0.0,0.0,0.0,0.0,0.0,0.0,0.0,0.0,0.0,0.0,0.0,0.0,0.0,0.0,0.0,0.0,0.0,0.0,0.0,0.0,0.0,0.0,0.0,0.0,0.0,0.0,0.0,0.0,0.0,0.0,0.0,0.0,0.0,0.0,0.0,0.0,0.0,0.0,0.0,0.0,0.0,0.0,0.0,0.0,0.0,0.0,0.0,0.0,0.0,0.0,0.0,0.0,0.0,0.0,0.0,0.0,0.0,1.2209,1.2271,1.2095,1.2242,1.2315,1.2278,1.1486,1.115,1.1077,1.0697,0.0,0.0,0.0,0.0,0.0,0.0,0.0,0.0,0.0,0.0,0.0,0.0,0.0,0.0,0.0,0.0,0.0,0.0,0.0,0.839,0.8351,0.8403,0.8833,0.9796,0.917,0.9109,1.0037,0.9316,0.0,0.0,0.87,0.8628,0.8669,0.9073,0.9438,0.9759,1.0935,1.1668,1.1995,1.2816,1.3002,1.2604,1.1347,1.069,1.0497,0.0,0.0,0.0,0.0,0.0,0.0,0.0,0.0,0.0,0.0,0.0,0.0,0.0,0.0,0.0,0.0,0.0,0.0,0.0,0.0,0.0,0.0,0.0,0.0,0.0,0.0,0.0,0.0,0.0,0.0,0.0,0.0,0.0,0.0,0.0,0.0,0.0,0.0,0.0,0.0,0.0,0.9624,0.8976,0.0,0.0,0.0,0.0,0.0,0.0,0.0,0.0,0.0,0.0,0.0,0.0,0.0,1.1544,1.1544,1.2457,1.2568,1.1916,1.3424,1.3431,1.2113,1.2821,1.3133,1.3133,1.3013,0.0,1.1883,1.102,0.0,0.0,0.0,0.0,0.0,0.0,0.0,0.0,0.0,0.0,0.0,0.0,0.0,0.0,0.0,0.0,0.0,0.0,0.0,0.0,0.0,0.9284,0.9833,1.0736,1.0569,1.0395,1.0408,0.996,0.9491,0.9039,0.8818,0.8923,0.9425,0.959,1.0552,1.2317,1.3971,1.4876,1.5094,1.5498,1.5668,1.5574,1.4964,1.3689,1.199,1.1445,0.0,0.0,0.0,0.0,0.0,0.0,0.0,0.0,0.0,0.0,0.0,0.0,0.0,0.0,0.0,0.0,0.0,0.0,0.0,0.0,0.0,0.0,0.0,0.0,0.0,0.0,0.0,0.0,0.0,0.0,0.0,0.0,0.0,0.0,0.0,0.0,0.0,0.0,0.0,0.9798,1.0018,1.0128,1.0419,1.0335,0.0,0.0,0.0,0.0,0.0,0.0,0.0,0.0,0.0,1.1805,1.2767,1.3272,1.3272,1.4587,1.5068,1.4721,1.5471,1.5478,1.4781,1.4683,1.4658,1.4621,1.4169,1.3765,1.3387,1.244,1.1789,1.1326,0.0,0.0,0.0,0.0,1.1222,1.1618,0.0,0.0,0.0,0.0,0.0,0.0,0.0,0.0,0.0,0.0,0.0,0.0,0.9625,1.0326,1.1069,1.1857,1.1826,1.1603,1.1237,1.0674,1.0068,0.9439,0.9015,0.92,1.0071,1.0682,1.2353,1.5088,1.6532,1.7321,1.7524,1.7725,1.783,1.7837,1.8004,1.6511,1.3877,1.3068,1.1951,0.0,0.0,0.0,0.0,0.0,0.0,0.0,0.0,0.0,0.0,0.0,0.0,0.0,0.0,0.0,0.0,0.0,0.0,0.0,0.0,0.0,0.0,0.0,0.0,0.0,0.0,0.0,0.0,0.0,0.0,0.0,0.0,0.0,0.0,0.0,0.0,0.0,0.0,1.0127,1.0487,1.1028,1.1282,1.1113,0.0,0.0,0.0,0.0,0.0,0.0,1.2687,1.2814,1.2968,1.3168,1.4434,1.5111,1.5111,1.6303,1.6908,1.6908,1.6908,1.6908,1.689,1.6279,1.5894,1.5674,1.5288,1.5001,1.4726,1.3614,1.2818,1.2284,1.2076,1.2142,1.2354,1.2297,1.2685,1.3312,0.0,0.0,0.0,0.0,0.0,0.0,0.0,0.0,0.0,0.0,0.0,0.9985,1.0142,1.1268,1.2389,1.3306,1.2474,1.2247,0.0,1.1476,1.0422,1.0255,0.9498,0.9452,1.0267,1.2899,1.5245,1.7248,1.7472,1.7671,1.7888,1.8583,1.895,1.9037,1.9605,1.8688,1.6601,1.5032,1.3972,1.3131,0.0,0.0,0.0,0.0,0.0,0.0,0.0,0.0,0.0,0.0,0.0,0.0,0.0,0.0,0.0,0.0,0.0,0.0,0.0,0.0,0.0,0.0,0.0,0.0,0.0,0.0,0.0,0.0,0.0,0.0,0.0,0.0,0.0,0.0,0.0,0.0,0.0,0.0,0.0,1.1096,1.1773,0.0,0.0,0.0,0.0,1.2616,1.2891,1.3743,1.5423,1.5509,1.5863,1.662,1.6743,1.678,1.678,1.6853,1.6908,1.6908,1.6908,1.6908,1.6908,1.6853,1.6413,1.5729,1.6468,1.634,1.5509,1.393,1.3333,1.3337,1.258,1.2828,1.3527,1.2763,1.4023,1.6,0.0,0.0,0.0,0.0,0.0,0.8377,0.8245,0.8232,0.8269,0.8402,0.9417,1.0412,1.1149,1.229,1.338,1.4323,1.4054,1.371,1.3458,1.2243,1.1711,1.2088,1.1243,1.1744,1.3797,1.6017,1.7562,1.8421,1.9087,1.9444,1.9503,1.9769,1.989,1.9881,2.0095,1.9711,1.8812,1.7502,1.5857,1.404,1.2882,1.1545,0.0,0.0,0.0,0.0,0.0,0.0,0.0,0.0,0.0,0.0,0.0,0.0,0.0,0.0,0.0,0.0,0.0,0.0,0.0,0.0,0.0,0.0,0.0,0.0,0.0,0.0,0.0,0.0,0.0,0.0,0.0,0.0,0.0,0.0,0.0,0.0,0.0,1.3227,1.3954,0.0,1.3362,1.3786,1.4157,1.4264,1.4834,1.5544,1.6418,1.6468,1.6597,1.689,1.7403,1.766,1.766,1.8188,1.8445,1.8445,1.8445,1.8445,1.8427,1.7913,1.7527,1.7234,1.7,1.6743,1.6431,1.5845,1.5643,1.563,1.4897,1.5188,1.5987,1.5787,1.6284,1.7036,0.0,0.0,0.0,0.0,0.8554,0.8554,0.8428,0.8403,0.8578,0.9071,1.0066,1.1163,1.229,1.3392,1.4323,1.4954,1.496,1.4657,1.4017,1.304,1.2654,1.3073,1.2837,1.3839,1.6324,1.7915,1.8987,1.9511,2.0115,2.0425,2.0472,2.0425,2.0398,2.0361,2.0337,2.0257,2.0044,1.9297,1.7734,1.5696,1.4781,1.351,1.2018,0.0,0.0,0.0,0.0,0.0,0.0,0.0,0.0,0.0,0.0,0.0,0.0,0.0,0.0,0.0,0.0,0.0,0.0,0.0,0.0,0.0,0.0,0.0,0.0,0.0,0.0,0.0,0.0,0.0,0.0,0.0,0.0,0.0,0.0,0.0,1.4039,1.4783,1.5308,1.5409,1.4919,1.5365,1.5725,1.5762,1.6389,1.7012,1.7581,1.7668,1.7697,1.7697,1.8225,1.85,1.85,1.9032,1.9305,1.9305,1.9305,1.9305,1.9271,1.8739,1.8309,1.7957,1.7705,1.7406,1.7074,1.7147,1.734,1.7519,1.6645,1.6881,1.7677,1.7501,1.7795,1.8279,0.0,0.0,0.0,0.8681,0.8542,0.8428,0.8428,0.8412,0.8858,1.0055,1.1155,1.227,1.3474,1.4552,1.5195,1.5189,1.5082,1.497,1.4904,1.3839,1.3201,1.3204,1.4214,1.5654,1.7542,1.8545,1.9531,2.051,2.0435,2.0475,2.0605,2.0492,2.0477,2.0545,2.0471,2.0419,2.0332,2.0313,1.9553,1.8221,1.6555,1.5468,1.4682,0.0,0.0,0.0,0.0,0.0,0.0,0.0,0.0,0.0,0.0,0.0,0.0,0.0,0.0,0.0,0.0,0.0,0.0,0.0,0.0,0.0,0.0,0.0,0.0,0.0,0.0,0.0,0.0,0.0,0.0,0.0,0.0,0.0,1.3103,1.3965,1.4834,1.5544,1.5646,1.568,1.5697,1.5874,1.6334,1.7138,1.7559,1.8156,1.8984,1.9219,1.9311,1.9311,1.9292,1.9292,1.9311,1.9308,1.9289,1.9289,1.9289,1.9305,1.9305,1.9305,1.8742,1.7794,1.8623,1.8413,1.7471,1.7659,1.8244,1.8872,1.7609,1.7718,1.8444,1.767,1.8407,1.9778,0.0,0.0,0.8665,0.8829,0.8801,0.8766,0.8766,0.8841,0.931,1.0429,1.1496,1.2577,1.3634,1.4668,1.5255,1.5195,1.5171,1.5007,1.4701,1.3932,1.3971,1.5091,1.7357,1.8862,1.9445,1.9862,2.0252,2.0565,2.0543,2.0564,2.0605,2.1208,2.1474,2.1446,2.1418,2.1374,2.1269,2.0642,2.0157,1.9703,1.8317,1.7052,1.5933,0.0,0.0,0.0,0.0,0.0,0.0,0.0,0.0,0.0,0.0,0.0,0.0,0.0,0.0,0.0,0.0,0.0,0.0,0.0,0.0,0.0,0.0,0.0,0.0,0.0,0.0,0.0,0.0,0.0,0.0,0.0,0.0,1.3814,1.3887,1.516,1.6174,1.6377,1.6864,1.7422,1.7929,1.8048,1.8466,1.9406,1.9613,1.9626,1.9513,1.9554,1.9592,1.9592,1.9075,1.9039,1.9574,1.9253,1.9086,1.9067,1.9227,1.9305,1.9305,1.9305,1.907,1.8659,1.8893,1.8823,1.8555,1.8624,1.8868,1.912,1.8198,1.8443,1.9275,1.9039,1.9257,1.963,0.0,0.8783,0.8806,0.888,0.8891,0.8891,0.8891,0.9022,0.9622,1.108,1.1885,1.2837,1.4275,1.4951,1.5284,1.5245,1.5479,1.5331,1.4642,1.4513,1.5235,1.6918,1.8701,2.0005,2.0808,2.1004,2.1286,2.1699,2.166,2.1641,2.166,2.2187,2.2421,2.2396,2.2357,2.2112,2.1711,2.1201,2.076,2.034,1.96,1.8707,1.774,1.6829,1.6282,1.5842,1.4661,1.4211,1.4079,1.3611,0.0,0.0,0.0,0.0,0.0,0.0,0.0,0.0,0.0,0.0,0.0,0.0,0.0,0.0,0.0,0.0,0.0,0.0,0.0,0.0,0.0,0.0,0.0,0.0,1.4519,1.5238,1.5657,1.6551,1.7151,1.7151,1.7811,1.8437,1.886,1.9181,1.9585,2.0199,2.0336,2.027,1.9996,2.0107,2.017,2.0153,1.975,1.9732,2.0153,1.9589,1.9289,1.9289,1.9092,1.8998,1.8998,1.8998,1.8877,1.866,1.866,1.8604,1.8508,1.8604,1.8717,1.8823,0.0,0.0,0.0,0.0,1.9485,1.9471,0.0,0.8891,0.8891,0.8891,0.8891,0.8891,0.8891,0.9022,0.9823,1.1847,1.2224,1.3064,1.5077,1.5292,1.5283,1.526,1.5828,1.5799,0.0,0.0,1.675,1.8468,1.8924,1.9953,2.1664,2.1827,2.2324,2.3203,2.3125,2.3105,2.3105,2.3262,2.334,2.332,2.3262,2.281,2.2094,2.1997,2.1474,2.0721,2.0714,2.032,1.9659,1.8809,1.8348,1.8032,1.7269,1.6547,1.5929,1.583,0.0,0.0,0.0,0.0,0.0,0.0,0.0,0.0,0.0,0.0,0.0,0.0,0.0,0.0,0.0,0.0,0.0,0.0,0.0,0.0,0.0,0.0,0.0,0.0,1.5977,1.6742,1.7884,1.798,1.7929,1.7929,1.8504,1.8961,1.913,1.9756,2.017,2.0238,2.0489,2.0584,2.0498,0.0,0.0,0.0,0.0,2.0749,2.0837,2.0143,1.9776,1.9759,1.9149,1.885,1.885,1.8762,1.8573,1.8308,1.8308,1.8199,1.7997,1.8241,1.8277,1.831,1.8981,1.9227,1.9227,1.9227,1.9243,1.9259,0.0,0.8891,0.8891,0.8891,0.8891,0.8891,0.8891,0.9022,0.9828,1.1832,1.2256,1.3113,1.5003,1.5261,1.5237,1.5063,1.5616,1.6107,0.0,0.0,1.8084,1.8706,1.9624,2.062,2.1683,2.1827,2.2324,2.3203,2.3125,2.3105,2.3125,2.3828,2.418,2.418,2.4141,2.4043,2.3847,2.3203,2.2811,2.2653,2.26,2.1556,1.9992,1.9824,1.9611,1.9324,1.8539,1.8427,1.853,1.7767,1.6757,1.5731,1.5432,0.0,0.0,0.0,0.0,0.0,0.0,0.0,0.0,0.0,0.0,0.0,0.0,0.0,0.0,0.0,0.0,0.0,0.0,0.0,0.0,1.6636,1.6775,1.731,1.9292,1.9063,1.8691,1.8691,1.8809,1.9384,2.0645,2.0873,2.1211,2.182,2.1881,2.1681,2.1096,2.1097,2.1122,2.1122,2.0508,2.0474,2.1105,2.0556,2.0275,2.0275,2.0346,0.0,2.0347,1.9767,1.9342,1.9087,1.9087,1.9065,1.9021,1.9065,1.885,1.8528,1.8679,1.8734,1.8734,1.8734,1.886,1.9052,0.8891,0.8891,0.8891,0.8891,0.8891,0.8891,0.8891,0.9022,0.9791,1.1753,1.2142,1.2985,1.4882,1.5009,1.4903,1.4813,1.5295,0.0,0.0,1.8043,1.8658,1.9509,2.0482,2.1415,2.2329,2.283,2.3532,2.4453,2.4414,2.4394,2.4414,2.4844,2.5059,2.5059,2.5059,2.4805,2.4375,2.3965,2.3574,2.3203,2.3162,2.2274,2.0954,2.0903,2.0552,1.9999,1.9605,1.9564,1.9639,1.9155,1.8272,1.7296,1.6964,1.5689,1.4051,0.0,0.0,0.0,0.0,0.0,0.0,0.0,0.0,0.0,0.0,0.0,0.0,0.0,0.0,1.3266,0.0,0.0,1.6007,1.7609,1.779,1.8193,1.9508,1.9368,1.9211,1.9444,1.9807,2.0331,2.1136,2.1515,2.1804,2.194,2.218,2.204,2.1423,2.1608,2.1752,2.1752,2.138,2.1346,2.1752,2.1131,2.0789,2.0814,2.0532,2.0413,2.0396,2.0016,1.9792,1.9651,1.9651,1.9651,1.9651,1.9651,1.9298,1.8741,1.8741,1.8682,1.8585,1.8585,1.8679,1.8842,0.8891,0.8891,0.8891,0.8891,0.8891,0.8891,0.8891,0.9001,0.9688,1.1397,1.1884,1.2708,1.445,1.4491,1.4407,0.0,0.0,0.0,0.0,1.8441,1.9166,2.0469,2.121,2.2111,2.3208,2.3923,2.4752,2.5683,2.5683,2.5703,2.5703,2.5703,2.5703,2.5703,2.5703,2.5312,2.4648,2.4648,2.4277,2.3691,2.3691,2.3123,2.2272,2.2074,2.1301,2.0311,2.0294,2.0169,2.0021,2.0003,1.9277,1.8329,1.8073,1.7217,1.594,1.4123,1.3374,0.0,0.0,0.0,0.0,0.0,0.0,0.0,0.0,0.0,1.2482,1.3229,1.3968,1.474,1.5629,1.6506,1.7378,1.8274,1.8627,1.9007,1.9609,1.96,1.9707,2.025,2.0837,2.1271,2.1397,2.1955,2.2135,2.1764,2.2106,2.2135,2.1764,2.2106,2.231,2.231,2.231,2.231,2.231,2.1701,2.1397,2.1397,2.0771,2.0441,2.0441,2.0289,2.0221,2.0221,2.0221,2.0221,2.0221,2.0373,1.99,1.913,1.9283,1.9138,1.8851,1.8711,1.868,1.8843,0.0,0.8891,0.8891,0.8891,0.8891,0.8891,0.8891,0.8913,0.9334,1.0508,1.1397,1.2297,1.329,1.3524,1.369,1.3881,0.0,0.0,1.7886,1.8995,2.015,2.1323,2.1519,2.2372,2.4038,2.4214,2.4722,2.5607,2.5662,2.5703,2.5703,2.5703,2.5703,2.5703,2.5703,2.5644,2.5547,2.5547,2.5508,2.543,2.543,2.4883,2.4023,2.332,2.1934,2.0374,2.0316,2.0218,2.0076,2.0031,1.9756,1.9393,1.9118,1.8258,1.7065,1.5724,0.0,1.2947,1.2183,1.1856,1.1863,1.2441,1.2787,1.3488,0.0,0.0,1.5334,1.5431,1.6223,1.6675,1.5927,1.7068,1.8274,1.8768,1.8818,1.9284,2.0622,2.027,2.0231,2.1299,2.1306,2.1448,2.2124,2.226,2.2282,2.2225,2.2282,2.2282,2.2209,2.2282,2.231,2.231,2.231,2.231,2.231,2.2226,2.2192,2.2192,2.2107,2.2057,2.204,2.1363,2.1085,2.1085,2.1085,2.1085,2.1109,2.1769,2.1184,1.9951,2.0653,2.0501,1.9762,1.9107,1.9035,1.9339,0.0,0.8891,0.8891,0.8891,0.8891,0.8891,0.8891,0.8891,0.9258,1.0249,1.0734,1.1322,1.2224,1.2669,1.2951,1.3033,0.0,0.0,1.7399,1.899,2.0394,2.1457,2.2007,2.289,2.4173,2.4682,2.5157,2.5601,2.5633,2.566,2.5703,2.566,2.5637,2.5636,2.5603,2.5603,2.5637,2.5637,2.5661,2.5703,2.5703,2.4863,2.3613,2.3278,2.2016,2.0441,2.0293,2.0164,0.0,0.0,1.9813,1.9489,1.8832,1.8112,1.7276,1.6111,1.5199,0.0,1.4297,1.3751,1.3406,0.0,1.4515,1.4971,1.5835,1.6048,1.614,1.6345,1.7034,1.7402,1.679,1.7714,1.8644,0.0,1.9108,1.9628,2.0471,2.0315,2.0399,2.1149,2.1154,2.1404,2.222,2.2032,2.1899,2.1899,2.2152,2.2077,2.1554,2.202,2.2077,2.1554,2.2049,2.218,2.1899,2.2163,2.231,2.231,2.231,2.231,2.2293,2.1989,2.1837,2.1837,2.1837,2.1837,2.1854,2.2175,2.1667,2.0737,2.1085,2.0703,1.9951,1.9647,1.961,1.9809,0.0,0.8891,0.8891,0.8891,0.8891,0.8891,0.8891,0.8891,0.9134,0.9818,1.0112,1.0587,1.1459,1.2037,1.2376,1.2439,1.4745,0.0,0.0,1.8655,2.0184,2.1438,2.2331,2.3221,2.4157,2.5001,2.5488,2.5567,2.5605,2.5659,2.5703,2.5634,2.5601,2.5601,2.5535,2.5543,2.5601,2.5601,2.5636,2.5703,2.5703,2.4804,2.3435,2.3192,2.1982,2.0367,1.9981,1.9761,0.0,0.0,1.9088,1.8748,1.8124,1.757,1.7011,1.6238,1.5889,1.5725,1.5583,1.5265,0.0,1.5361,1.5838,1.6208,1.6208,1.6482,1.6785,1.7028,1.7455,1.7704,1.7368,1.8221,1.8895,1.8661,1.9331,1.9945,2.0089,2.0124,2.028,2.0764,2.0698,2.0991,2.1857,2.1735,2.1658,2.1794,2.2003,2.184,2.1181,2.1645,2.1661,2.1023,2.1615,2.1781,2.143,2.1869,2.2106,2.2106,2.2237,2.231,2.231,2.231,2.231,2.231,2.231,2.231,2.231,2.231,2.1989,2.1498,2.1498,2.116,2.0627,2.0627,2.0508,2.045,0.0,0.0,0.8891,0.8891,0.8891,0.8891,0.8891,0.8891,0.8919,0.8936,0.9617,1.0389,1.113,1.1696,1.2088,1.2297,1.4051,1.563,1.6732,1.7967,1.9497,2.1419,2.2331,2.3206,2.4081,2.5027,2.5489,2.5493,2.5634,2.5703,2.5703,2.5634,2.5601,2.5601,2.5535,2.5543,2.5601,2.5601,2.5636,2.5703,2.5703,2.5154,2.4261,2.3421,2.1901,2.0102,1.9245,0.0,0.0,0.0,1.7262,1.7004,1.7188,1.6821,0.0,1.6303,1.625,1.6038,1.539,0.0,1.655,1.5951,1.6531,1.7247,1.7247,1.7516,1.7755,1.7766,1.7789,1.7704,1.7368,1.8431,1.9135,1.836,1.9383,2.0158,1.9782,1.9711,1.9874,2.028,1.9965,2.0085,0.0,2.1368,2.1794,2.2237,2.1869,2.1628,2.1582,2.1244,2.1039,2.0991,2.1039,2.1023,2.1023,2.143,2.1612,2.1628,2.2077,2.231,2.231,2.231,2.231,2.231,2.231,2.231,2.231,2.231,2.2293,2.2276,2.2276,2.226,2.2243,2.2243,2.1786,2.1262,0.0,0.0,0.0,0.8891,0.8891,0.8891,0.8891,0.8891,0.8891,0.8891,0.9576,0.0,0.0,0.0,0.0,0.0,0.0,1.5378,1.6024,1.7527,1.9017,2.0392,2.1321,2.2221,2.3092,2.4111,2.4655,2.47,2.5325,2.5659,2.5703,2.5634,2.559,2.5539,2.5471,2.5477,2.552,2.552,2.5567,2.5595,2.505,2.4295,2.3357,2.2357,2.0882,1.9206,0.0,0.0,0.0,0.0,1.7022,1.6638,1.63,0.0,0.0,1.5746,1.6045,1.6419,1.7122,0.0,1.7232,1.7453,1.7963,1.8229,1.7736,1.7726,1.7811,1.7811,1.7811,1.7704,1.7368,1.8062,1.8583,1.8252,1.898,1.9599,1.9687,1.969,1.9747,1.9874,1.9782,0.0,0.0,0.0,0.0,2.1385,2.1291,2.1086,2.0765,2.0894,2.0731,2.0154,2.0698,2.0862,2.055,2.0991,2.1337,2.1628,2.2077,2.231,2.231,2.231,2.231,2.231,2.231,2.231,2.231,2.231,2.231,2.231,2.231,2.231,2.231,2.231,2.2141,2.1972,0.0,0.0,0.0,0.0,0.0,0.0,0.0,0.0,0.0,0.0,0.0,0.0,0.0,0.0,0.0,0.0,0.0,0.0,0.0,0.0,1.7757,1.8855,1.9703,2.0489,2.1183,2.2122,2.2789,2.3191,2.3848,2.4339,2.4668,2.4641,2.4607,2.4563,2.4489,2.4503,2.4563,2.4563,2.4574,2.4553,2.403,2.3246,2.2249,2.1193,1.9722,0.0,0.0,0.0,0.0,1.6103,1.5908,0.0,0.0,0.0,1.5747,1.6234,1.679,1.7482,1.8651,1.856,1.8219,1.8647,1.8616,1.8377,1.7905,1.7614,1.7479,1.7612,1.7618,1.7595,1.7502,1.7939,1.8361,1.8416,1.8905,1.9387,1.9656,1.969,1.969,1.969,1.969,1.9818,0.0,0.0,0.0,2.0959,2.0829,2.0616,2.0314,2.0465,2.0277,1.9726,2.0243,2.0398,2.0089,2.0532,2.0943,2.1399,2.184,2.2032,2.2032,2.2032,2.2135,2.231,2.231,2.231,2.231,2.231,2.231,2.231,2.231,2.231,2.231,2.231,2.231,2.231,0.0,0.0,0.0,0.0,0.0,0.0,0.0,0.0,0.0,0.0,0.0,0.0,0.0,0.0,0.0,0.0,0.0,0.0,0.0,0.0,0.0,1.6952,1.7653,1.8192,1.8571,1.9268,2.0098,2.1043,2.1398,2.1928,2.2701,2.2798,2.285,2.2862,2.2797,2.2813,2.2869,2.2869,2.2804,2.2701,2.2662,2.1999,2.0958,1.9934,0.0,0.0,0.0,0.0,0.0,0.0,0.0,0.0,0.0,0.0,1.7205,1.7725,1.8386,1.9113,1.9824,1.9751,1.9465,1.9438,1.8626,1.7848,1.7844,1.7327,1.6901,1.7223,1.7254,1.7349,0.0,0.0,1.8385,1.8677,1.9092,1.9456,1.9656,1.969,1.969,0.0,0.0,0.0,0.0,0.0,0.0,2.0862,0.0,2.028,2.028,1.9909,1.969,1.969,1.969,1.969,1.969,2.0089,2.055,2.0991,2.1399,2.1612,2.1658,2.1658,2.1899,2.231,2.231,2.231,2.231,2.231,2.231,2.231,2.231,2.231,2.231,2.231,2.231,2.231,0.0,0.0,0.0,0.0,0.0,0.0,0.0,0.0,0.0,0.0,0.0,0.0,0.0,0.0,0.0,0.0,0.0,0.0,0.0,0.0,0.0,0.0,0.0,1.7037,1.7135,1.8091,1.8705,0.0,0.0,2.1039,2.1261,2.1809,2.2162,2.2304,2.2291,2.2382,2.2526,2.2526,2.2179,2.1534,0.0,1.9945,1.8987,0.0,0.0,0.0,0.0,0.0,0.0,0.0,0.0,0.0,0.0,1.7266,1.8421,1.8579,0.0,1.9816,2.0256,2.0317,2.0148,1.9844,1.918,1.8535,1.8221,1.7657,1.7124,1.6892,1.6841,1.6629,0.0,0.0,0.0,1.7483,1.834,0.0,1.9617,1.969,0.0,1.969,0.0,1.969,1.969,1.969,0.0,0.0,1.9909,1.9839,1.9839,1.9747,1.969,1.969,1.969,1.969,1.969,2.0089,2.055,2.0991,2.1399,2.1794,2.2106,2.2106,2.218,2.231,2.231,2.231,2.231,2.231,2.231,2.231,2.231,2.231,2.231,2.231,2.231,2.231,0.0,0.0,0.0,0.0,0.0,0.0,0.0,0.0,0.0,0.0,0.0,0.0,0.0,0.0,0.0,0.0,0.0,0.0,0.0,0.0,0.0,0.0,0.0,1.5055,1.5097,1.5911,1.6377,0.0,0.0,0.0,0.0,1.9158,1.9432,1.9444,1.9676,1.9774,1.9771,1.9885,0.0,0.0,0.0,0.0,0.0,0.0,0.0,0.0,0.0,0.0,0.0,0.0,0.0,1.7776,1.7845,1.8575,1.9452,1.9807,0.0,2.0317,2.0834,2.0703,2.0352,2.0114,1.9218,1.825,1.772,1.6976,1.6273,1.5896,1.592,0.0,1.5387,1.5963,1.6733,0.0,0.0,0.0,1.9817,1.9803,1.969,0.0,1.969,0.0,1.969,1.969,1.969,0.0,1.969,1.969,1.969,1.969,1.969,1.969,1.969,1.969,1.969,2.0089,2.0348,2.0431,2.0846,2.1165,2.1446,2.1645,2.1827,2.2003,2.2209,2.231,2.231,2.231,2.231,2.231,2.231,2.231,2.231,2.231,2.231,2.231,0.0,0.0,0.0,0.0,0.0,0.0,0.0,0.0,0.0,0.0,1.1505,0.0,0.0,0.0,0.0,0.0,0.0,0.0,0.0,0.0,0.0,0.0,0.0,1.3088,1.316,1.3582,0.0,0.0,0.0,0.0,0.0,0.0,0.0,0.0,0.0,0.0,0.0,0.0,0.0,0.0,0.0,0.0,0.0,0.0,0.0,0.0,0.0,0.0,0.0,0.0,1.8054,1.8746,1.9473,2.0003,2.0484,2.1153,2.1061,2.0834,2.1387,2.0975,2.0351,2.0138,1.89,1.7535,1.6803,1.5918,1.513,1.4697,0.0,1.5077,1.5269,1.5658,1.6456,1.7938,0.0,1.8703,2.0097,2.0,1.9747,1.9726,1.969,1.969,1.969,1.969,1.969,1.969,1.969,1.969,1.969,1.969,1.969,1.969,1.969,1.969,1.969,2.007,2.0089,1.9889,2.0227,2.0449,2.0583,2.0991,2.1354,2.1718,2.2106,2.2254,2.2209,2.2265,2.2254,2.2209,2.2282,2.231,2.231,2.231,2.231,2.231,0.0,0.0,0.0,0.0,0.0,0.0,0.0,0.0,0.0,0.0,1.1278,1.1394,0.0,0.0,0.0,0.0,0.0,0.0,0.0,0.0,0.0,0.0,0.0,1.3243,0.0,0.0,0.0,0.0,0.0,0.0,0.0,0.0,0.0,0.0,0.0,0.0,0.0,0.0,0.0,0.0,0.0,0.0,0.0,0.0,0.0,0.0,0.0,0.0,0.0,0.0,1.9233,2.0825,2.1109,2.1683,2.2237,2.2122,2.2051,2.1852,2.1259,2.0991,2.0556,1.9296,1.8317,1.7464,1.6552,1.5968,0.0,0.0,1.4419,1.4441,1.3887,1.4341,1.5362,1.7116,1.7899,1.8747,2.0102,2.0246,2.0054,0.0,1.969,1.969,1.969,1.969,0.0,0.0,1.969,1.969,1.969,1.969,1.969,1.969,1.969,1.969,1.969,1.9782,2.0139,2.0764,2.0829,2.126,2.1945,2.2049,2.2106,2.218,2.2254,2.2077,2.1764,2.2135,2.2061,2.1764,2.2135,2.231,2.231,2.231,2.231,2.231,0.0,0.0,0.0,0.0,0.0,0.0,0.0,1.1174,1.202,1.2991,1.2667,1.2448,1.2688,1.2515,1.2494,0.0,0.0,0.0,0.0,0.0,0.0,0.0,0.0,0.0,0.0,0.0,0.0,0.0,0.0,0.0,0.0,0.0,0.0,0.0,0.0,0.0,0.0,0.0,0.0,0.0,0.0,0.0,0.0,0.0,0.0,0.0,0.0,0.0,0.0,0.0,1.8995,2.0988,2.16,2.1927,2.2108,2.2258,2.2135,2.1823,2.1446,2.115,2.0703,1.9392,1.87,1.7866,1.6119,0.0,0.0,0.0,1.3743,1.3819,1.3464,1.4005,0.0,1.6659,1.7386,1.8292,1.9878,1.9869,1.9706,1.9702,1.969,1.969,1.969,1.969,1.969,1.969,1.969,1.969,1.969,1.969,1.969,1.969,1.969,1.969,1.969,1.9909,2.0227,2.0649,2.0894,2.1229,2.1615,2.184,2.1928,2.1957,2.218,2.2163,2.1974,2.2209,2.218,2.2003,2.2209,2.231,2.231,2.231,2.231,2.231,0.0,0.0,0.0,0.0,0.0,0.0,0.0,1.2044,1.2968,1.4217,1.4111,1.3782,1.3466,1.3021,1.2728,0.0,0.0,0.0,0.0,0.0,0.0,0.0,0.0,0.0,0.0,0.0,0.0,0.0,0.0,0.0,0.0,0.0,0.0,0.0,0.0,0.0,0.0,0.0,0.0,0.0,0.0,0.0,0.0,0.0,0.0,0.0,0.0,0.0,0.0,0.0,1.7837,1.9601,2.0713,2.1246,2.1548,2.1993,2.1877,2.1574,2.1609,2.1368,2.0814,1.961,1.9102,1.8231,1.5655,1.5087,0.0,0.0,1.3208,1.3396,1.3396,1.387,1.48,0.0,1.6909,1.7738,1.9633,1.9594,1.9421,0.0,1.969,0.0,1.969,1.969,0.0,1.969,1.969,1.969,1.969,1.969,1.969,1.969,1.969,1.9747,1.9854,2.0158,2.0366,2.0567,2.0943,2.1181,2.1291,2.1598,2.1764,2.1764,2.2135,2.2237,2.2163,2.2254,2.2237,2.2163,2.2254,2.231,2.231,2.231,2.231,2.231,0.0,0.0,0.0,0.0,0.0,0.0,0.0,1.2399,1.3839,1.4585,1.4413,1.4241,1.4202,1.3572,1.3105,0.0,0.0,0.0,0.0,0.0,0.0,0.0,0.0,0.0,0.0,0.0,0.0,0.0,0.0,0.0,0.0,0.0,0.0,0.0,0.0,0.0,0.0,0.0,0.0,0.0,0.0,0.0,0.0,0.0,0.0,0.0,0.0,0.0,0.0,0.0,0.0,1.6125,1.7604,1.9578,2.1343,2.1513,0.0,0.0,2.1578,2.1582,2.1133,1.9386,1.8927,1.8159,1.5376,0.0,1.4685,1.3291,1.3208,1.3396,1.3396,1.3464,1.4209,1.636,0.0,1.7479,1.9613,1.986,1.9781,1.9707,0.0,0.0,1.969,1.969,1.969,1.969,1.969,1.969,1.969,1.969,1.969,1.969,1.969,1.9874,2.0246,2.028,2.0699,2.1491,2.1521,2.1764,2.218,2.2209,2.2237,2.2237,2.2282,2.2061,2.1688,2.2106,2.2032,2.1718,2.2135,2.231,2.231,2.231,2.231,2.231,0.0,0.0,0.0,0.0,0.0,0.0,1.167,1.2928,1.4312,1.545,1.5161,1.4928,1.5193,1.4232,1.3283,1.2566,0.0,0.0,0.0,0.0,0.0,0.0,0.0,0.0,0.0,0.0,0.0,0.0,0.0,0.0,0.0,0.0,0.0,0.0,0.0,0.0,0.0,0.0,0.0,0.0,0.0,0.0,0.0,0.0,0.0,0.0,0.0,0.0,0.0,0.0,0.0,0.0,1.625,1.7307,0.0,0.0,2.078,2.1481,2.1372,2.168,2.1578,1.9733,1.9427,1.8748,1.5642,0.0,1.5,1.3527,1.3329,1.3396,1.3396,1.3396,1.3767,1.4947,1.5145,1.5654,1.7151,1.7587,1.7986,1.8642,1.894,0.0,0.0,0.0,1.969,1.969,1.969,1.969,1.969,1.969,1.969,1.969,1.9929,2.0158,2.0314,2.0583,2.1007,2.1582,2.1582,2.1853,2.231,2.231,2.231,2.231,2.231,2.218,2.2032,2.2209,2.218,2.2032,2.2237,2.231,2.231,2.231,2.231,2.231,0.0,0.0,0.0,0.0,0.0,1.1282,1.1857,1.319,1.4523,1.557,1.5311,1.52,1.5586,1.4436,1.3359,1.2702,1.2482,0.0,0.0,0.0,0.0,0.0,0.0,0.0,0.0,0.0,0.0,0.0,0.0,0.0,0.0,0.0,0.0,0.0,0.0,0.0,0.0,0.0,0.0,0.0,0.0,0.0,0.0,0.0,0.0,0.0,0.0,0.0,0.0,0.0,0.0,0.0,0.0,0.0,0.0,0.0,1.9817,2.0662,2.0892,2.1264,2.1258,1.9694,1.9328,1.862,0.0,1.5271,1.4919,1.3667,1.3396,1.3396,1.3396,1.3396,1.3547,1.4029,1.4106,1.4521,1.5717,1.6108,1.6712,1.7852,0.0,1.8672,1.9331,1.957,1.969,1.969,1.969,1.969,1.969,1.969,1.969,1.969,1.9965,2.0193,2.0314,2.0764,2.1213,2.1582,2.1718,2.1899,2.2106,2.2237,2.2209,2.2106,2.2237,2.231,2.231,2.231,2.231,2.231,2.231,2.231,2.231,2.2388,2.2426,2.2426,0.0,0.0,0.0,0.0,0.0,0.0,1.1113,1.3041,1.4494,1.4511,1.4623,1.4831,1.5171,1.3993,1.3343,1.3668,1.2519,0.0,0.0,0.0,0.0,0.0,0.0,0.0,0.0,0.0,0.0,1.3795,1.3795,0.0,0.0,0.0,0.0,0.0,0.0,0.0,0.0,0.0,0.0,0.0,0.0,0.0,0.0,0.0,0.0,0.0,0.0,0.0,0.0,0.0,0.0,0.0,0.0,0.0,0.0,0.0,1.8733,1.8798,2.0079,2.0226,1.9833,1.9096,1.8369,1.7439,1.5933,1.5037,1.431,1.3549,1.3396,1.3396,1.3396,1.3396,1.3547,1.4029,1.4106,1.4621,1.6097,1.6285,1.6642,0.0,0.0,1.7951,1.8657,1.9301,1.969,1.969,1.969,1.969,1.969,1.969,1.969,1.969,1.9711,1.9909,2.0314,2.0764,2.1213,2.1628,2.2061,2.2032,2.1612,2.2106,2.2049,2.1628,2.2106,2.231,2.231,2.231,2.231,2.231,2.231,2.231,2.2321,2.2599,2.2695,2.2695,0.0,0.0,0.0,0.0,0.0,0.0,0.0,1.2601,1.3921,1.4427,1.4338,1.455,1.5389,1.4291,1.3605,1.3933,1.2971,0.0,0.0,0.0,0.0,0.0,0.0,0.0,0.0,0.0,1.3121,1.381,1.4259,1.4812,0.0,0.0,0.0,0.0,0.0,0.0,0.0,0.0,0.0,0.0,0.0,0.0,0.0,0.0,0.0,0.0,0.0,0.0,0.0,0.0,0.0,0.0,0.0,0.0,0.0,0.0,0.0,0.0,1.8115,1.8654,1.8944,1.7693,1.7224,1.6661,1.5189,1.4682,1.4293,1.3549,1.3396,1.3396,1.3396,1.3396,1.3547,1.4029,1.3913,1.4111,1.5058,0.0,0.0,1.7182,1.8323,1.9151,0.0,0.0,1.969,1.969,1.969,1.969,1.969,1.969,1.969,1.969,1.9965,2.0193,2.0314,2.0764,2.1213,2.1582,2.1764,2.1899,2.2077,2.2237,2.2209,2.2106,2.2237,2.231,2.231,2.231,2.231,2.231,2.231,2.231,2.231,2.2415,2.2426,2.2436,0.0,0.0,0.0,0.0,0.0,0.0,0.0,1.26,1.3566,1.4022,1.382,1.401,1.5066,1.41,1.3599,1.4203,1.3675,0.0,0.0,0.0,0.0,0.0,0.0,0.0,0.0,1.2892,1.3615,1.4543,1.5201,1.574,1.6129,1.5637,1.5076,0.0,0.0,0.0,0.0,0.0,0.0,0.0,0.0,0.0,0.0,0.0,0.0,0.0,0.0,0.0,0.0,0.0,0.0,0.0,0.0,0.0,0.0,0.0,1.561,1.6792,0.0,1.712,1.7422,1.6492,1.6089,1.5629,1.4716,1.4293,1.3937,1.3361,1.326,1.326,1.326,1.3173,1.3236,1.3627,1.3654,1.3887,0.0,0.0,0.0,1.7213,0.0,0.0,0.0,1.954,1.969,1.969,1.969,1.969,1.969,1.969,1.969,1.969,1.9929,2.0054,2.0054,2.0698,2.1118,2.1368,2.1705,2.1928,2.2032,2.2209,2.2209,2.2049,2.2209,2.231,0.0,2.231,2.231,2.231,2.231,2.231,2.231,2.2398,2.2436,2.2473,0.0,0.0,0.0,0.0,0.0,0.0,0.0,1.2838,1.3328,1.3328,1.314,1.3386,1.4324,1.359,1.3403,1.4324,1.4461,0.0,0.0,0.0,0.0,0.0,0.0,0.0,0.0,1.3573,1.4438,1.5724,1.6368,1.6697,1.6622,1.6099,1.5484,1.4764,1.3748,0.0,0.0,0.0,0.0,0.0,0.0,0.0,0.0,0.0,0.0,0.0,0.0,0.0,0.0,0.0,0.0,0.0,0.0,0.0,0.0,0.0,0.0,0.0,0.0,1.567,1.5511,1.546,1.4936,1.441,1.441,1.3887,0.0,1.3019,1.2998,1.3031,1.3031,1.2815,1.2738,1.3108,1.3472,1.3967,0.0,1.5696,0.0,0.0,1.8403,0.0,1.8777,1.9331,1.969,1.969,1.969,1.969,1.969,1.969,1.969,1.969,1.969,1.969,1.969,2.0565,2.0991,2.0959,2.1886,2.2032,2.1628,2.2077,2.2061,2.1688,2.2106,2.231,2.231,2.231,2.231,2.231,2.231,2.231,2.2321,2.2573,2.2669,2.2721,0.0,0.0,0.0,0.0,0.0,0.0,0.0,0.0,0.0,0.0,1.2991,1.3396,1.3633,1.3447,1.3396,0.0,0.0,0.0,0.0,0.0,0.0,0.0,0.0,0.0,0.0,1.3475,1.4214,1.5049,1.6144,1.6458,1.6009,1.6353,1.5875,1.4809,1.4547,1.3835,0.0,0.0,0.0,0.0,0.0,0.0,0.0,0.0,0.0,0.0,1.3052,1.3121,0.0,0.0,0.0,0.0,0.0,0.0,0.0,0.0,1.3549,1.3701,1.3956,0.0,1.4631,1.4074,1.3803,1.3667,0.0,1.3532,1.3227,1.2588,0.0,0.0,1.3311,1.3103,1.3303,1.4499,1.4351,1.4335,1.5061,0.0,0.0,1.9061,1.9361,1.945,1.945,1.96,1.969,1.969,1.969,1.969,1.969,1.969,1.969,1.969,1.969,1.969,1.969,2.0565,2.0829,2.0483,2.1705,2.2032,2.1628,2.2077,2.2237,2.2135,2.2237,2.231,2.231,2.231,2.231,2.231,2.231,2.231,2.231,2.236,2.2371,2.248,0.0,0.0,0.0,0.0,0.0,0.0,0.0,0.0,0.0,0.0,1.3159,1.3396,1.3396,1.3396,1.3396,0.0,0.0,0.0,0.0,0.0,0.0,0.0,0.0,0.0,1.3883,1.384,1.4397,1.5651,1.6368,1.6532,1.6219,1.6547,1.6174,1.5244,1.4618,1.3765,0.0,0.0,0.0,0.0,0.0,0.0,0.0,0.0,0.0,0.0,1.3311,1.3311,0.0,1.3346,1.3396,1.3396,0.0,0.0,0.0,0.0,1.3396,1.3396,1.3396,1.3938,1.4393,1.4005,1.3904,1.3904,1.3904,0.0,0.0,0.0,0.0,0.0,0.0,0.0,0.0,0.0,1.4796,0.0,0.0,0.0,1.8691,1.9606,1.969,1.969,0.0,1.969,1.969,1.969,1.969,1.969,1.969,1.969,1.969,1.969,1.969,1.969,1.969,2.033,2.0649,2.0616,2.1538,2.1974,2.1928,2.218,2.231,2.231,2.231,2.231,2.231,2.231,2.231,2.231,2.231,2.231,2.231,2.231,2.231,2.2377,0.0,0.0,0.0,0.0,0.0,0.0,0.0,0.0,0.0,0.0,0.0,0.0,0.0,0.0,0.0,0.0,0.0,0.0,0.0,0.0,0.0,0.0,0.0,1.4192,1.5119,1.4409,1.4893,1.6653,1.6909,1.697,1.6879,1.6939,1.6488,1.5589,1.4348,1.3421,0.0,0.0,0.0,0.0,0.0,0.0,0.0,0.0,0.0,0.0,0.0,0.0,0.0,1.3396,1.3396,1.3396,1.3396,0.0,0.0,0.0,0.0,0.0,1.3549,1.4107,1.4596,1.434,1.4392,1.4461,1.4306,0.0,0.0,0.0,0.0,0.0,0.0,1.3482,0.0,0.0,0.0,0.0,1.8069,1.8759,1.9269,1.9636,1.969,0.0,1.969,1.969,1.969,1.969,1.9747,1.9747,1.969,1.9747,1.9747,1.969,1.969,1.9726,1.9782,2.0193,2.0583,2.0894,2.1446,2.1899,2.2209,2.2282,2.2321,2.2377,2.2338,2.2349,2.2415,2.2338,2.2321,2.2377,2.231,2.231,2.231,2.231,2.231,2.236,0.0,0.0,0.0,0.0,0.0,0.0,0.0,0.0,0.0,0.0,0.0,0.0,0.0,0.0,0.0,0.0,0.0,0.0,0.0,0.0,0.0,0.0,1.4841,1.435,1.4848,1.5006,1.5479,1.6373,1.7833,1.8273,1.7717,1.8016,1.7011,1.4917,1.4154,1.3421,1.2756,0.0,0.0,0.0,0.0,0.0,0.0,0.0,0.0,0.0,0.0,0.0,0.0,1.3396,1.3396,1.3396,1.3396,0.0,0.0,0.0,0.0,0.0,1.4157,1.4868,1.5083,1.3602,1.386,1.4289,1.3418,0.0,0.0,0.0,0.0,0.0,0.0,1.3907,1.4223,0.0,0.0,1.703,0.0,0.0,1.9011,1.9651,0.0,1.969,1.969,1.969,1.969,1.969,2.0035,2.0054,1.9711,2.0035,2.0054,1.9711,1.969,1.9874,2.0212,2.0649,2.0731,2.0416,2.1598,2.2032,2.1718,2.2106,2.2426,2.2634,2.2415,2.2598,2.3014,2.2508,2.2409,2.2625,2.2388,2.231,2.231,2.231,2.231,2.2292,0.0,0.0,0.0,0.0,0.0,0.0,0.0,0.0,0.0,0.0,0.0,0.0,0.0,0.0,0.0,0.0,0.0,0.0,0.0,0.0,0.0,1.6565,1.594,1.5598,1.5622,1.5962,1.6475,1.7144,1.8383,1.8788,1.8483,1.8066,1.6776,1.4767,1.4109,1.3421,1.2756,0.0,0.0,0.0,0.0,0.0,0.0,0.0,0.0,0.0,0.0,0.0,0.0,0.0,1.3396,1.3396,1.3396,0.0,0.0,0.0,0.0,0.0,1.3701,1.4141,1.4272,1.3731,1.4646,1.5418,1.4371,0.0,0.0,0.0,0.0,0.0,0.0,0.0,1.5522,1.7103,0.0,1.7981,1.8612,1.9016,1.9346,0.0,0.0,1.969,1.969,1.969,1.969,1.969,2.0054,2.0124,1.9711,2.0089,2.0227,2.0035,2.0019,2.0227,2.0682,2.1118,2.1213,2.1007,2.1628,2.1928,2.2003,2.2364,2.2573,2.2695,2.2755,2.2958,2.3165,2.2908,2.2857,2.2947,2.2643,2.2527,2.2527,2.2527,2.2375,2.2139,0.0,0.0,0.0,0.0,0.0,0.0,0.0,0.0,0.0,0.0,0.0,0.0,0.0,0.0,0.0,0.0,0.0,0.0,0.0,0.0,1.6225,1.6783,1.6952,1.694,1.6812,1.7161,1.7731,1.8513,1.9235,1.9404,1.899,1.8149,1.6719,1.4767,1.4109,1.3421,1.2756,1.2074,0.0,0.0,0.0,0.0,0.0,0.0,0.0,0.0,0.0,0.0,0.0,0.0,0.0,0.0,0.0,0.0,0.0,1.3396,1.2888,1.2449,1.321,1.3396,1.3481,1.3895,0.0,1.6008,1.53,0.0,0.0,0.0,0.0,0.0,0.0,1.5951,0.0,1.7669,1.8498,1.9049,1.8942,1.9375,1.969,1.969,1.969,1.969,1.969,1.969,1.969,1.969,2.0158,2.0296,1.9874,2.0227,2.0449,2.0449,2.0348,2.0583,2.1134,2.143,2.1582,2.1582,2.1718,2.1957,2.231,2.259,2.2746,2.2822,2.3093,2.33,2.3414,2.3259,2.3253,2.3282,2.2947,2.2772,2.2678,2.2504,2.2122,2.1733,0.0,0.0,0.0,0.0,0.0,0.0,0.0,0.0,0.0,0.0,0.0,0.0,0.0,0.0,0.0,0.0,0.0,0.0,0.0,0.0,1.5779,1.6757,1.7342,1.7836,1.8244,1.8589,1.9269,2.0298,2.106,2.0602,1.9006,1.8913,1.742,1.4767,1.4109,1.3421,1.2756,1.2074,0.0,0.0,0.0,0.0,0.0,0.0,0.0,0.0,0.0,0.0,0.0,0.0,0.0,0.0,0.0,0.0,1.3396,1.3396,1.2888,1.2449,1.321,1.3396,1.343,1.3592,1.4161,0.0,1.5106,1.4624,0.0,0.0,0.0,0.0,0.0,1.7311,1.8501,1.7817,1.9089,2.0047,1.9671,0.0,1.969,1.969,1.969,1.969,1.969,1.969,1.969,1.969,2.0481,2.0764,2.028,2.0698,2.0959,2.0959,2.0516,2.0699,2.1552,2.1582,2.1582,2.1628,2.2032,2.2282,2.231,2.259,2.2873,2.3165,2.3189,2.3544,2.4074,2.3477,2.3392,2.3649,2.3282,2.2972,2.2608,2.1865,2.1289,2.0827,0.0,0.0,0.0,0.0,0.0,0.0,0.0,0.0,0.0,0.0,0.0,0.0,0.0,0.0,0.0,0.0,0.0,0.0,0.0,0.0,1.5684,1.616,1.7362,1.8414,1.9252,1.9826,2.0582,2.1489,2.1354,2.0514,1.899,1.8302,1.6868,1.4782,1.4528,1.4049,1.3376,0.0,0.0,0.0,0.0,0.0,0.0,0.0,0.0,0.0,0.0,0.0,0.0,0.0,1.2582,1.2887,0.0,1.2919,1.3609,1.311,1.2432,1.2042,1.2762,1.2867,1.3015,1.4023,0.0,0.0,0.0,0.0,0.0,0.0,0.0,0.0,0.0,0.0,1.813,1.8021,1.9083,1.9874,1.9711,1.969,1.969,1.969,1.969,1.969,1.969,1.969,1.969,1.969,2.0514,2.0698,1.998,2.0599,2.0991,2.0991,2.0829,2.115,2.2032,2.2032,2.2032,2.2032,2.2209,2.2388,2.2563,2.2865,2.3189,2.3522,2.3735,2.3976,2.417,2.3917,2.3896,2.3921,2.3088,2.2247,2.1516,2.1414,2.0957,2.0364,0.0,0.0,0.0,0.0,0.0,0.0,0.0,0.0,0.0,0.0,0.0,0.0,0.0,0.0,0.0,0.0,0.0,0.0,1.3743,1.4609,1.5383,1.5931,1.7182,1.8435,1.9638,2.025,2.1156,2.2378,2.1733,2.0509,1.8778,1.7936,1.6784,1.5419,1.5114,1.4749,1.4372,0.0,0.0,0.0,0.0,0.0,0.0,0.0,0.0,0.0,0.0,0.0,0.0,0.0,1.1912,0.0,0.0,0.0,0.0,0.0,1.2288,1.192,1.2139,1.2275,1.2689,0.0,0.0,0.0,0.0,0.0,0.0,0.0,0.0,0.0,0.0,0.0,0.0,0.0,1.9235,1.9839,1.9711,1.969,1.969,1.969,1.969,1.969,1.969,1.969,1.969,1.969,2.0364,2.0532,1.9909,2.0599,2.1055,2.1181,2.1181,2.1554,2.2282,2.231,2.231,2.231,2.231,2.2436,2.2721,2.3045,2.3392,2.3714,2.4036,2.419,2.419,2.419,2.4043,2.3712,2.2564,2.1637,2.0957,2.0924,2.0568,2.0101,0.0,0.0,0.0,0.0,0.0,0.0,0.0,0.0,0.0,0.0,0.0,0.0,0.0,0.0,0.0,0.0,0.0,0.0,1.404,1.4106,1.4771,1.6232,1.6809,1.7818,1.9369,1.9656,2.0836,2.2978,2.2378,2.0819,1.8383,1.8054,1.7498,1.6757,1.5769,1.549,0.0,0.0,0.0,0.0,0.0,0.0,0.0,0.0,0.0,0.0,0.0,0.0,0.0,0.0,1.1646,1.1633,0.0,0.0,0.0,1.2533,1.2491,1.2307,1.1369,1.1688,1.253,0.0,0.0,0.0,0.0,0.0,0.0,0.0,0.0,1.7582,1.8114,0.0,0.0,1.8665,1.9592,2.0158,1.9747,1.969,1.969,1.969,1.969,1.969,1.969,1.969,1.969,1.969,2.0054,2.0314,2.0299,2.0748,2.1181,2.1582,2.1582,2.1823,2.2282,2.231,2.231,2.231,2.231,2.2436,2.2721,2.3045,2.3392,2.3714,2.4054,2.419,2.419,2.419,2.3712,2.285,2.1731,2.1291,2.1183,2.0389,2.0101,2.0011,0.0,0.0,0.0,0.0,0.0,0.0,0.0,0.0,0.0,0.0,0.0,0.0,0.0,0.0,0.0,0.0,0.0,0.0,1.3328,1.3991,1.471,1.5499,1.6536,1.7572,1.8541,1.9371,2.0271,2.1238,2.0848,1.9855,1.8383,1.7543,1.7007,1.6789,1.6505,0.0,0.0,0.0,0.0,0.0,0.0,0.0,0.0,0.0,0.0,0.0,0.0,0.0,0.0,0.0,0.0,0.0,0.0,0.0,0.0,1.224,1.235,1.2472,1.1671,1.2704,0.0,0.0,0.0,0.0,0.0,0.0,0.0,0.0,0.0,1.9181,1.906,0.0,0.0,1.8793,1.9592,2.0158,1.9747,1.969,1.969,1.969,1.969,1.969,1.969,1.969,1.969,1.969,2.0054,2.0079,1.9549,2.0462,2.0955,2.0825,2.1319,2.1823,2.2282,2.231,2.2371,2.2573,2.2005,2.221,2.3069,2.3141,2.3522,2.4054,2.4151,2.419,2.4153,2.3584,2.252,2.1218,2.0875,2.0384,1.9855,1.9618,1.9545,1.9522,0.0,0.0,0.0,0.0,0.0,0.0,0.0,0.0,0.0,0.0,0.0,0.0,0.0,0.0,0.0,0.0,0.0,0.0,0.0,1.383,1.4402,1.5164,1.6044,1.6996,1.8023,1.8957,1.9291,1.8994,1.9207,1.8984,1.8303,1.7228,1.6952,1.7351,1.7215,1.675,0.0,0.0,0.0,0.0,1.309,1.2864,1.305,0.0,0.0,0.0,0.0,0.0,0.0,0.0,0.0,0.0,0.0,0.0,0.0,1.187,1.2234,1.2648,1.2481,0.0,0.0,0.0,0.0,0.0,0.0,0.0,0.0,0.0,0.0,2.0016,2.0051,1.9909,0.0,1.9628,1.9999,2.0227,1.9965,1.9818,1.9747,1.9909,1.9929,1.9929,1.9929,1.9929,1.9874,1.9711,1.9791,1.969,1.9223,2.021,2.0703,2.0513,2.1412,2.2003,2.231,2.231,2.2235,2.2117,2.1619,2.1871,2.2769,2.286,2.322,2.3731,2.3731,2.3547,2.318,2.2354,2.1401,2.0466,2.0152,1.9776,1.9427,1.9427,1.9448,1.9518,0.0,0.0,0.0,0.0,0.0,0.0,0.0,0.0,0.0,0.0,0.0,0.0,0.0,0.0,0.0,0.0,0.0,0.0,0.0,0.0,1.4017,1.5189,1.5593,1.6424,1.7777,1.8386,1.8031,1.6699,1.7793,1.8263,1.8066,1.7164,1.7274,1.8229,1.7817,1.7262,0.0,0.0,0.0,0.0,1.354,1.326,1.361,1.3375,0.0,0.0,0.0,0.0,0.0,0.0,0.0,0.0,1.055,1.0609,1.0797,1.1406,1.212,1.2828,1.345,0.0,0.0,0.0,0.0,0.0,0.0,0.0,2.1164,2.0598,0.0,2.0284,2.0799,2.0194,1.9892,2.0863,2.0682,2.0416,2.0382,2.0035,1.9945,2.0314,2.0348,2.0348,2.0348,2.0286,2.01,1.9763,1.9366,1.9134,1.9104,1.9941,2.0426,2.0454,2.1507,2.2141,2.2209,2.2141,2.1752,2.1155,2.1087,2.1381,2.1949,2.2231,2.2547,2.2905,2.2905,2.2428,2.162,2.0831,2.0448,2.0335,1.9599,1.9442,1.9596,1.9609,1.9695,1.979,0.0,0.0,0.0,0.0,0.0,0.0,0.0,0.0,0.0,0.0,0.0,0.0,0.0,0.0,0.0,0.0,0.0,0.0,0.0,0.0,1.4646,1.5466,1.669,1.749,1.7772,1.7388,1.702,1.6699,1.8087,1.8271,1.7327,1.7679,1.8096,1.8491,0.0,1.6835,0.0,0.0,0.0,1.3442,1.3129,1.3059,1.3071,1.2455,1.2141,0.0,0.0,0.0,0.0,0.0,0.0,0.0,1.1,1.0872,1.0508,1.0699,1.1671,1.2732,0.0,1.427,0.0,0.0,0.0,0.0,0.0,2.0653,2.1776,2.0714,2.0882,2.1026,2.0271,2.0697,2.1097,2.1007,2.1181,2.1197,2.0894,2.0764,2.0764,2.0829,2.0862,2.0862,2.0862,2.0321,1.9941,1.9846,1.9262,1.8779,1.8518,1.9225,1.9783,2.0092,2.0364,2.0805,2.1414,2.0822,2.0543,2.0649,2.0227,2.023,2.0603,2.1036,2.1542,2.2061,2.2061,2.1565,2.0776,2.0576,2.0134,1.9562,1.9526,1.9555,1.9609,1.9732,1.9786,1.9832,0.0,0.0,0.0,0.0,0.0,0.0,0.0,0.0,0.0,0.0,0.0,0.0,0.0,0.0,0.0,0.0,0.0,0.0,0.0,0.0,1.4462,1.5544,1.7016,1.7642,1.727,1.6902,1.6529,1.6153,1.7308,1.7658,0.0,0.0,0.0,1.8567,0.0,1.663,0.0,0.0,1.4203,1.3674,1.3341,1.3121,1.2931,1.2323,1.1809,1.1412,1.1191,0.0,0.0,0.0,0.0,0.0,0.0,0.0,1.033,1.0461,1.1293,1.2431,0.0,0.0,0.0,0.0,0.0,0.0,0.0,2.055,2.1181,2.0415,2.0812,2.1157,2.0619,2.0972,2.1368,2.1584,2.1598,2.1521,2.1306,2.0813,2.067,2.1212,2.0967,2.0902,2.1243,2.0613,2.0102,1.9922,1.9077,1.8486,1.8313,1.8849,1.9269,1.9461,1.9816,2.0187,2.0619,2.0204,1.9972,1.9923,1.9639,1.956,1.965,2.0372,2.088,2.118,2.118,2.0703,1.9932,1.9932,1.9737,1.9438,1.9555,1.9682,1.979,1.9869,1.9962,2.0041,0.0,0.0,0.0,0.0,0.0,0.0,0.0,0.0,0.0,0.0,0.0,0.0,0.0,0.0,0.0,0.0,0.0,0.0,0.0,1.3971,1.4395,1.5731,1.7084,1.7456,1.6716,1.658,1.6224,1.5595,1.6069,0.0,0.0,0.0,0.0,1.855,0.0,0.0,0.0,0.0,1.431,1.4259,1.3498,1.3092,1.2804,1.2151,1.1369,1.0643,1.0841,1.0896,1.0933,1.1214,0.0,0.0,0.0,0.0,1.0042,1.0246,1.0948,1.2103,0.0,0.0,0.0,0.0,0.0,0.0,0.0,2.017,2.0196,1.9713,2.0216,2.077,2.0969,2.0953,2.1207,2.2163,2.1957,2.1718,2.1718,2.0812,2.0448,2.1424,2.0874,2.0659,2.1271,2.0676,2.0155,1.9925,1.8849,1.826,1.8392,1.8591,1.8782,1.8948,1.944,1.9738,1.9874,1.9787,1.9538,1.9104,1.9212,1.9167,1.907,1.9925,2.0283,2.0283,2.0283,1.9913,1.9305,1.9335,1.9456,1.9596,1.9662,1.9802,1.9993,2.0031,2.0161,2.0292,0.0,0.0,0.0,0.0,0.0,0.0,0.0,0.0,0.0,0.0,0.0,1.4461,1.4359,1.387,0.0,0.0,0.0,0.0,1.3549,0.0,0.0,1.6529,1.7354,1.7456,1.6716,1.6069,1.5697,1.5595,0.0,0.0,0.0,0.0,0.0,1.8532,0.0,0.0,0.0,0.0,0.0,1.3481,1.2737,1.2433,1.2233,1.0845,1.0162,0.9944,1.0101,1.0075,1.0198,1.1644,1.1248,0.0,0.0,0.0,0.9275,0.9415,1.0603,1.1959,0.0,0.0,0.0,0.0,0.0,0.0,0.0,0.0,1.9679,0.0,1.89,1.9734,2.0077,2.0389,2.0945,2.2108,2.2254,2.2209,2.2209,2.1541,2.1086,2.1231,2.0557,2.0093,2.0194,1.9563,1.9353,1.9932,1.8673,1.8148,1.8788,1.8262,1.8348,1.9211,1.8711,1.8745,1.9383,1.8979,1.8635,1.8364,1.882,1.9125,1.9259,1.9399,1.9455,1.9455,1.9455,1.9399,1.9305,1.9485,1.9587,1.9623,1.9858,1.9973,2.0022,2.0197,2.0277,2.03,0.0,0.0,0.0,0.0,0.0,0.0,0.0,0.0,0.0,0.0,0.0,1.5426,1.4579,1.4208,0.0,0.0,0.0,0.0,1.3396,1.4394,0.0,0.0,1.617,1.6221,1.5477,1.5155,1.4986,1.4986,0.0,0.0,0.0,1.7971,1.8569,0.0,0.0,0.0,0.0,0.0,0.0,1.3345,1.2601,1.2804,0.0,0.0,1.0501,1.103,0.9819,0.9352,0.9471,1.0612,1.0842,1.0605,1.0521,0.0,0.0,0.0,1.0092,0.0,1.3574,0.0,0.0,0.0,0.0,0.0,1.9064,0.0,1.8876,1.8494,1.8447,1.8809,1.9824,2.0267,2.0903,2.2119,2.1955,2.1684,2.1684,2.0653,2.0061,2.0483,1.9858,1.9553,1.9951,1.9333,1.91,1.9566,1.8613,1.8173,1.8498,1.8207,1.8216,1.8672,1.836,1.8426,1.8901,1.8686,1.8622,1.8642,1.8999,1.9196,1.9305,1.9427,1.9471,1.9471,1.9471,1.9523,1.958,1.9676,1.9762,1.9836,1.9944,2.0069,2.0188,2.0277,2.0312,2.03,0.0,0.0,0.0,0.0,0.0,0.0,0.0,0.0,0.0,0.0,0.0,0.0,1.5189,0.0,0.0,0.0,0.0,0.0,1.3396,0.0,0.0,0.0,0.0,1.5257,1.4511,1.4494,1.4494,0.0,0.0,0.0,1.8082,1.8082,1.9073,0.0,1.892,0.0,0.0,0.0,0.0,0.0,0.0,0.0,1.4258,1.2197,1.2026,1.2618,0.0,0.0,0.0,0.0,0.0,0.0,0.0,0.0,0.0,0.0,0.0,0.0,0.0,0.0,0.0,0.0,0.0,0.0,0.0,0.0,1.828,0.0,1.8183,1.8177,1.9478,1.993,2.045,2.1545,2.1262,2.0889,2.0889,1.9739,1.9096,1.9647,1.908,1.8843,1.9393,1.8944,1.8807,1.9273,1.862,1.8315,1.8568,1.8333,1.827,1.8391,1.833,1.843,1.8697,1.8715,1.8825,1.9086,1.923,1.9305,1.9305,1.9513,1.9609,1.9662,1.9662,1.972,1.979,1.9836,1.9912,2.0012,2.006,2.0161,2.0312,2.0312,2.0308,2.0299,0.0,0.0,0.0,0.0,0.0,0.0,0.0,0.0,0.0,0.0,0.0,0.0,0.0,0.0,0.0,0.0,0.0,0.0,0.0,0.0,0.0,0.0,0.0,0.0,1.4511,1.4494,0.0,0.0,0.0,0.0,1.8843,1.8843,2.0044,2.209,1.9841,1.8437,1.7659,0.0,0.0,0.0,0.0,0.0,1.4545,1.5105,1.4919,1.4293,0.0,0.0,0.0,0.0,0.0,0.0,1.0825,1.0111,0.9027,0.0,0.0,0.0,0.0,0.0,0.0,0.0,0.0,0.0,0.0,0.0,1.8142,1.789,1.7845,1.8048,1.8809,1.8954,1.9224,2.0002,2.0086,2.0052,2.0052,1.9401,1.891,1.8944,1.8318,1.7879,1.7907,1.7873,1.8263,1.9221,1.862,1.8624,1.9568,1.8714,1.843,1.8949,1.8715,1.8715,1.8984,1.8966,1.9067,1.9274,1.9289,1.9305,1.9305,1.9513,1.9669,1.9797,1.9797,1.9778,1.9802,1.9943,1.9984,2.0022,2.0205,2.0285,2.0312,2.0312,2.0287,2.0313,0.0,0.0,0.0,0.0,0.0,0.0,0.0,0.0,0.0,0.0,0.0,0.0,0.0,1.5798,1.502,1.4528,0.0,0.0,0.0,0.0,0.0,0.0,0.0,0.0,0.0,0.0,0.0,0.0,0.0,1.5054,1.7495,1.7495,1.842,2.0094,1.9773,1.9198,1.8403,1.6915,0.0,0.0,0.0,0.0,0.0,1.5511,1.5612,1.6339,0.0,0.0,0.0,0.0,0.0,0.0,1.0622,1.0416,1.0271,0.9466,1.0042,0.0,0.0,0.0,0.0,0.0,0.0,1.7761,1.7965,1.8251,1.843,1.833,1.831,1.8336,1.8426,1.8711,1.9147,1.9866,1.9596,1.9299,1.9299,1.8657,1.82,1.82,1.7963,1.7811,1.7811,1.7949,1.8203,1.8568,1.8667,1.8802,1.8974,1.882,1.8789,1.8984,1.8914,1.8966,1.9198,1.9198,1.923,1.9305,1.9305,1.9365,1.9499,1.9669,1.979,1.9943,2.006,2.0107,2.0116,2.018,2.0197,2.0197,2.0277,2.0311,2.0295,2.0296,2.0328,2.0361,0.0,0.0,0.0,0.0,0.0,0.0,0.0,0.0,0.0,1.6969,0.0,0.0,0.0,0.0,1.578,1.4936,1.4191,1.3768,1.3768,0.0,0.0,0.0,0.0,0.0,0.0,0.0,0.0,0.0,0.0,0.0,0.0,1.658,1.7495,1.8894,1.8894,1.891,0.0,0.0,0.0,1.6356,0.0,0.0,1.8437,0.0,1.7574,1.7912,0.0,0.0,0.0,0.0,0.0,0.0,1.152,1.1127,1.0808,0.9645,1.0227,0.0,1.1499,0.0,0.0,0.0,0.0,1.6881,1.7918,0.0,1.8359,1.8551,1.8585,1.8547,1.8371,1.8603,1.8904,1.9222,1.886,1.8545,1.866,1.8234,1.7971,1.8057,1.7992,1.7971,1.8078,1.8146,1.827,1.845,1.8789,1.8966,1.8825,1.8931,1.9002,1.9002,1.9069,1.9166,1.9289,1.9305,1.9335,1.9394,1.9394,1.9471,1.9614,1.9797,1.9903,1.9984,2.0208,2.0304,2.0312,2.0312,2.0312,2.0292,2.0304,2.0302,2.0307,2.0341,2.0371,2.0432,0.0,0.0,0.0,0.0,0.0,0.0,0.0,0.0,1.8556,1.7336,0.0,0.0,0.0,0.0,0.0,1.5736,1.4986,1.4545,1.4528,1.3836,0.0,0.0,0.0,0.0,0.0,0.0,0.0,0.0,0.0,0.0,0.0,0.0,1.741,1.8741,1.7342,1.7495,1.8792,0.0,1.8437,1.7896,0.0,1.8488,1.8234,0.0,0.0,0.0,1.8927,1.7997,0.0,1.5933,0.0,0.0,0.0,1.2165,1.0376,0.9596,0.9903,0.0,0.0,0.0,0.0,0.0,0.0,0.0,1.824,0.0,1.7836,1.8465,1.8605,1.8586,1.8604,1.8604,1.843,1.7905,1.7833,1.7905,1.8166,1.8208,1.831,1.8566,1.8371,1.831,1.8566,1.8371,1.843,1.8949,1.9001,1.9102,1.9274,1.9101,1.9001,1.9001,1.9198,1.9305,1.9305,1.9305,1.9413,1.9614,1.9596,1.9596,1.9623,1.988,1.9974,1.9926,2.0197,2.0302,2.0292,2.0292,2.0292,2.03,2.0296,2.0294,2.0305,2.039,2.0441,2.051,0.0,0.0,0.0,0.0,0.0,2.0032,1.9612,1.9217,1.9004,0.0,0.0,0.0,1.9257,1.845,1.7483,1.6482,1.6224,1.5849,1.5325,1.4614,1.4428,1.4969,1.5189,1.5206,1.4986,0.0,0.0,0.0,0.0,0.0,0.0,0.0,0.0,0.0,1.6648,1.6631,1.6509,1.6509,0.0,1.8572,1.8251,1.8961,0.0,0.0,0.0,0.0,0.0,1.9096,1.8251,0.0,1.702,1.5554,0.0,0.0,0.0,1.1127,1.1638,0.0,1.1544,0.0,0.0,0.0,0.0,0.0,0.0,0.0,1.7322,1.8079,1.8245,1.8361,1.8824,1.8896,1.877,1.843,1.8371,1.841,1.8469,1.8489,1.8508,1.8585,1.8528,1.8508,1.8585,1.8715,1.8752,0.0,1.9016,1.9182,1.9102,1.9166,1.923,1.923,1.9259,1.9305,1.9305,1.9438,1.9541,1.9596,1.9707,1.9809,1.9901,1.9973,2.0078,2.0195,2.0263,2.0295,2.0296,2.0296,2.0296,2.0296,2.0301,2.0352,2.0438,2.0418,2.0432,2.0485,0.0,0.0,0.0,2.1803,2.1382,2.0999,2.0897,2.0461,2.0246,0.0,0.0,0.0,2.0473,1.9682,1.8927,1.8344,1.7577,1.6982,1.6559,1.5544,1.5155,1.5578,1.5883,1.59,1.5612,1.6204,0.0,0.0,0.0,0.0,0.0,0.0,0.0,0.0,1.5276,1.5428,1.5561,0.0,0.0,0.0,1.8521,0.0,0.0,2.0788,2.0856,0.0,0.0,0.0,1.9367,1.9367,1.8506,0.0,0.0,1.3657,1.2877,1.2115,1.2831,0.0,0.0,0.0,0.0,0.0,0.0,0.0,1.5845,1.6245,1.6707,0.0,1.8096,1.8339,1.9115,1.9182,1.9115,1.9091,1.8978,1.8842,1.8789,1.877,1.8807,1.8877,1.8807,1.8807,1.8877,1.8948,1.8984,1.8913,1.9148,1.9243,1.9134,1.9323,1.9398,1.9305,1.9305,1.9335,1.9409,1.9541,1.9662,1.9774,1.9847,1.9914,1.9993,2.0097,2.0164,2.0255,2.0324,2.0352,2.0374,2.0374,2.0361,2.0337,2.0366,2.0402,2.0462,2.0459,2.0449,2.0453,0.0,0.0,2.2078,2.2078,2.2005,2.1914,2.1914,2.1858,2.1751,0.0,2.1789,2.1862,2.1676,2.1104,2.0714,2.0691,1.9104,1.8104,1.7997,1.6605,1.5787,1.5832,1.6394,1.6445,1.5866,1.705,1.6678,0.0,0.0,0.0,0.0,0.0,0.0,1.436,1.3684,1.4141,1.5274,0.0,0.0,1.6868,1.8843,1.9452,0.0,0.0,2.1397,2.0339,2.1059,2.0856,2.0238,2.0154,1.9482,0.0,0.0,1.5495,1.5408,1.312,1.3926,0.0,0.0,0.0,0.0,0.0,0.0,0.0,1.5922,1.6028,1.6114,0.0,1.7839,1.8135,1.9119,1.9224,1.9243,1.9432,1.9406,1.9259,1.9102,1.9052,1.9102,1.9274,1.9134,1.9101,1.9274,1.9134,1.9135,1.932,1.935,1.9365,1.9365,1.9513,1.9513,1.9335,1.9335,1.9427,1.9601,1.9636,1.9762,1.9993,2.0022,2.0031,2.0031,2.0222,2.0275,2.0216,2.0351,2.0441,2.0508,2.0511,2.0475,2.0422,2.0477,2.0462,2.0429,2.0477,2.0467,2.0406,0.0,2.329,2.3731,2.3731,2.3199,2.2776,2.2776,2.2208,2.2024,2.2612,2.2722,2.2886,2.3211,2.256,2.2018,2.1821,2.0868,1.9952,1.9143,1.7668,1.6976,1.7354,1.6931,1.6898,1.7371,1.7067,1.6407,1.5392,1.4936,1.4259,0.0,0.0,0.0,0.0,1.3464,1.3566,1.3887,0.0,0.0,1.6749,1.7173,0.0,2.0814,2.1245,2.16,2.186,2.204,2.1989,2.1769,2.116,2.0425,1.9474,0.0,1.7344,1.6711,1.6105,1.6133,1.6305,1.6026,0.0,0.0,0.0,0.0,0.0,1.5111,1.5319,1.5784,0.0,1.6169,1.6439,1.7274,1.7909,1.8143,1.7567,1.8615,1.9527,1.9485,1.9335,1.9261,1.9289,1.9277,1.9259,1.9289,1.9259,1.932,1.9527,1.9638,1.9695,1.9695,1.963,1.9569,1.9541,1.9541,1.9555,1.9614,1.9813,1.9953,1.9993,2.0161,2.0241,2.0241,2.0282,2.0295,2.0299,2.0429,2.0482,2.051,2.0563,2.054,2.048,2.0486,2.052,2.0566,2.0516,2.0467,2.0383,2.3602,2.3914,2.419,2.419,2.3878,2.3602,2.3602,2.3254,2.329,2.408,2.419,2.4133,2.3976,2.3451,2.3034,2.2909,2.2042,2.1114,2.0209,1.9084,1.8373,1.8208,1.7844,1.7748,1.7997,1.7637,1.701,1.6157,1.5409,1.4665,0.0,1.3583,0.0,0.0,0.0,0.0,0.0,0.0,1.568,1.68,1.7896,0.0,2.1254,2.16,2.1989,2.231,2.231,2.231,2.2192,2.1448,2.1122,0.0,1.9503,1.9248,1.9183,0.0,1.7987,1.8364,1.7563,0.0,0.0,1.6715,0.0,0.0,0.0,1.5629,1.5931,1.6738,1.6261,1.6097,1.7422,1.7578,1.7564,1.7721,1.8376,1.8888,1.9,1.933,1.949,1.932,1.938,1.9456,1.9456,1.9456,1.9523,1.9695,1.9824,1.9869,1.979,1.979,1.9774,1.9707,1.9707,1.9726,1.9809,1.9924,2.006,2.0152,2.0249,2.0296,2.0308,2.0289,2.0332,2.0391,2.0475,2.0515,2.0542,2.0585,2.0585,2.0542,2.0542,2.0547,2.054,2.0477,2.0414,2.0357,2.419,2.419,2.419,2.419,2.419,2.419,2.419,2.419,2.4483,2.5293,2.5403,2.5179,2.4606,0.0,0.0,0.0,2.3239,2.2268,2.1726,2.055,1.964,1.9084,1.8763,1.8579,1.8499,1.836,1.7807,1.6846,1.6092,1.5357,1.4605,1.3854,1.4213,1.546,0.0,0.0,0.0,0.0,0.0,1.7671,0.0,2.0449,2.0943,2.1779,2.2156,2.2265,2.2419,2.2405,2.2209,2.1664,2.1796,2.1907,2.0559,2.0963,0.0,0.0,0.0,0.0,0.0,0.0,0.0,0.0,0.0,1.7234,0.0,0.0,0.0,1.7638,1.6848,0.0,0.0,0.0,0.0,1.7918,0.0,0.0,0.0,1.885,0.0,1.9111,1.9374,1.9614,1.9614,1.9518,1.9563,1.9824,1.9821,1.9831,1.988,1.9963,1.9963,1.9836,1.9836,1.989,2.0012,2.0031,2.0143,2.0312,2.0308,2.0301,2.0294,2.0322,2.0406,2.0508,2.0513,2.0542,2.0605,2.0605,2.0605,2.0605,2.0605,2.0563,2.0484,2.0429,2.0352,2.0295,2.419,2.419,2.419,2.419,2.419,2.419,2.419,2.419,2.4483,2.5293,2.5403,0.0,0.0,0.0,0.0,0.0,0.0,0.0,2.4512,2.178,2.0333,2.0708,1.9349,1.8923,1.9595,1.8919,1.8195,1.7418,1.6623,1.5795,1.4998,1.4209,1.4314,1.5174,1.579,0.0,0.0,0.0,1.9119,0.0,2.0717,2.0276,0.0,2.0858,2.1627,2.2125,2.284,2.2747,2.2304,0.0,2.2574,2.2519,0.0,2.2036,2.2272,2.1569,0.0,0.0,0.0,0.0,0.0,0.0,1.9588,0.0,0.0,0.0,1.7693,1.7147,0.0,0.0,0.0,0.0,0.0,0.0,0.0,0.0,1.6233,1.7592,1.8613,1.8286,1.9041,1.9614,1.9614,1.9168,1.9202,1.9926,1.9432,1.945,2.0195,2.0097,1.9984,1.9983,1.9983,1.9974,1.9993,2.0188,2.0277,2.0312,2.0295,2.0301,2.0294,2.0425,2.0482,2.051,2.0564,2.0586,2.0605,2.0605,2.0605,2.0605,2.0605,2.0563,2.0484,2.0429,2.0352,2.0295,2.419,2.419,2.419,2.419,2.419,2.419,2.419,2.5383,2.6245,2.6098,2.6906,0.0,0.0,0.0,0.0,0.0,0.0,2.5492,0.0,0.0,0.0,2.1497,2.0826,2.0318,2.0045,1.9703,1.9074,1.8145,1.6887,1.6142,0.0,0.0,1.5502,1.7135,1.7113,0.0,2.0172,0.0,1.9747,0.0,0.0,0.0,0.0,2.1715,2.2492,2.2741,2.3082,2.3038,2.2762,0.0,2.2628,0.0,0.0,0.0,0.0,2.2404,0.0,0.0,0.0,0.0,0.0,0.0,0.0,0.0,1.8629,0.0,1.8151,0.0,0.0,0.0,0.0,0.0,0.0,0.0,1.6725,0.0,0.0,0.0,1.7738,1.8056,0.0,0.0,1.9084,1.8992,1.9268,2.0112,1.9442,1.9377,2.0254,2.0233,2.0169,2.0169,2.0169,2.0169,2.0169,2.0269,2.0296,2.0295,2.0295,2.0337,2.0422,2.0477,2.0515,2.0563,2.0586,2.0605,2.0605,2.0605,2.0605,2.0605,2.0605,2.0563,2.0484,2.0429,2.0352,2.0295,2.419,0.0,0.0,2.419,2.419,2.4263,2.4502,2.6007,2.7123,2.7064,2.7926,0.0,2.8291,2.7985,0.0,0.0,2.8283,2.7344,0.0,0.0,2.4006,2.285,2.2152,2.1532,2.0989,2.0517,1.9903,1.9129,1.7554,1.6785,0.0,0.0,1.6622,1.8449,1.8428,1.974,2.1977,0.0,2.1179,2.1375,2.1716,2.1635,2.1442,2.2686,2.3168,2.3212,2.3414,2.3369,2.3124,2.2705,2.2905,0.0,2.2709,2.3138,2.3728,0.0,0.0,0.0,2.2611,0.0,0.0,0.0,0.0,0.0,0.0,0.0,0.0,0.0,0.0,0.0,0.0,0.0,0.0,0.0,0.0,1.5938,0.0,1.6103,0.0,0.0,0.0,0.0,0.0,1.8348,1.8732,1.9862,1.9123,1.9116,2.0227,2.0312,2.0312,2.0312,2.0312,2.0312,2.0312,2.0296,2.0308,2.0288,2.0332,2.0414,2.0508,2.0515,2.0543,2.0605,2.0605,2.0605,2.0605,2.0605,2.0605,2.0605,2.0605,2.0542,2.0472,2.0422,2.0362,2.0308,2.419,2.419,0.0,0.0,2.419,2.4447,2.5256,2.5439,2.6136,2.8016,2.7673,0.0,0.0,0.0,0.0,0.0,0.0,3.0057,3.0008,0.0,2.5348,2.5293,2.3052,2.2152,2.2887,2.1328,2.0468,2.0431,1.8819,1.8045,0.0,0.0,0.0,0.0,1.9717,2.0943,2.1896,2.3419,2.4501,2.5162,2.439,2.4079,2.3987,0.0,2.3084,2.3282,2.3955,0.0,0.0,2.3548,2.3674,2.3692,2.3674,0.0,0.0,0.0,0.0,0.0,0.0,0.0,0.0,2.2134,0.0,0.0,0.0,0.0,2.0537,0.0,0.0,0.0,0.0,0.0,0.0,0.0,0.0,0.0,0.0,0.0,0.0,0.0,0.0,0.0,0.0,1.6926,1.7122,1.8912,1.8171,1.8412,2.0208,2.0312,2.0312,2.0312,2.0312,2.0312,2.0312,2.0302,2.0307,2.0294,2.0432,2.0506,2.0508,2.0564,2.0605,2.0605,2.0605,2.0605,2.0605,2.0605,2.0605,2.0605,2.0605,2.0515,2.0391,2.041,2.0369,2.0292,0.0,0.0,0.0,0.0,0.0,2.4649,2.5988,2.6877,2.799,2.9665,3.0142,0.0,0.0,3.2492,3.2733,0.0,0.0,3.1837,3.1054,2.898,0.0,2.6998,2.5695,2.4612,0.0,2.3235,2.2428,2.1363,1.9693,1.9179,1.9659,0.0,0.0,0.0,0.0,2.1822,0.0,0.0,0.0,0.0,0.0,2.5309,2.564,0.0,2.3817,2.3896,2.4113,2.4036,2.3876,2.3996,2.3896,2.3692,2.3692,2.3774,2.3876,2.3876,2.4016,2.419,2.419,2.419,2.3971,2.3041,0.0,0.0,0.0,0.0,0.0,0.0,0.0,0.0,0.0,0.0,0.0,0.0,0.0,0.0,0.0,0.0,0.0,0.0,0.0,0.0,0.0,0.0,1.7014,1.8745,1.8118,1.8436,2.0208,2.0312,2.0312,2.0312,2.0312,2.0304,2.0308,2.0295,2.0337,2.0432,2.048,2.0516,2.0564,2.0586,2.0605,2.0605,2.0605,2.0605,2.0605,2.0605,2.0605,2.0605,2.0542,2.048,2.041,2.041,2.0369,2.0312,2.414,0.0,0.0,0.0,0.0,2.5251,2.6581,2.8008,2.9494,0.0,3.1554,0.0,3.427,0.0,3.4135,0.0,3.4763,3.3595,3.1953,3.087,0.0,2.8282,2.7457,0.0,2.5493,2.463,2.3694,2.2648,2.1013,2.0446,2.0941,0.0,0.0,0.0,0.0,2.2409,2.3529,2.5144,2.5676,0.0,0.0,2.6392,0.0,0.0,2.4869,2.463,0.0,2.4428,2.419,2.419,2.4054,2.3876,2.3876,2.3876,2.3876,2.3876,2.4016,2.419,2.419,2.419,2.4044,2.344,2.2921,0.0,2.1625,0.0,2.1422,0.0,0.0,0.0,0.0,0.0,0.0,0.0,0.0,0.0,0.0,1.5053,0.0,0.0,0.0,0.0,0.0,0.0,1.6151,1.8217,1.7619,0.0,0.0,2.0312,2.0308,2.0299,2.0306,2.0308,2.0346,2.0352,2.0402,2.0508,2.0516,2.0563,2.0605,2.0605,2.0605,2.0605,2.0605,2.0605,2.0605,2.0605,2.0605,2.0586,2.0536,2.047,2.0406,2.0366,2.034,2.0312,2.4936,2.4572,0.0,0.0,2.5212,0.0,0.0,0.0,3.0462,0.0,3.1979,3.3066,3.5755,3.4783,3.4888,3.7344,3.6817,3.5367,3.3018,3.2742,0.0,0.0,2.8429,2.7952,2.7915,2.5585,2.4355,2.4318,2.2666,2.1894,2.1913,0.0,0.0,0.0,2.1876,0.0,2.43,2.5915,2.709,2.786,2.786,2.7402,2.6722,2.6722,2.6209,2.5513,2.5439,2.4905,2.4245,2.4208,2.419,2.419,2.419,2.419,2.419,2.419,2.419,2.419,2.419,2.419,2.4081,2.3512,2.3439,2.3345,2.2783,0.0,2.2628,0.0,0.0,0.0,0.0,0.0,0.0,0.0,0.0,0.0,0.0,0.0,0.0,0.0,0.0,0.0,0.0,1.4133,1.4718,1.7333,1.6757,0.0,0.0,2.0254,2.026,2.0307,2.0307,2.0327,2.0395,2.0472,2.0508,2.051,2.0565,2.0605,2.0605,2.0605,2.0605,2.0605,2.0605,2.0605,2.0605,2.0605,2.0605,2.0586,2.0515,2.0483,2.0452,2.0388,2.0327,2.0312,2.5023,2.5962,2.6869,0.0,2.6386,2.6651,0.0,2.9934,0.0,0.0,3.427,3.5811,3.6785,3.6827,3.7238,3.831,3.7643,0.0,0.0,0.0,0.0,3.2596,3.1219,3.0191,2.9604,2.7805,2.6576,2.5988,2.3768,2.2997,2.3547,0.0,0.0,0.0,0.0,0.0,2.43,2.5915,2.742,2.8705,2.8705,2.8576,2.837,0.0,2.7879,2.7016,2.5844,2.5274,2.5017,2.4392,2.419,2.419,2.419,2.419,2.419,2.419,2.419,2.419,2.419,2.419,2.4229,2.4376,2.3955,2.3496,2.3481,2.359,0.0,0.0,0.0,0.0,0.0,0.0,0.0,0.0,0.0,0.0,0.0,0.0,0.0,1.7048,0.0,0.0,0.0,1.4846,1.5752,1.6504,1.703,0.0,2.0188,1.9696,1.9631,2.0288,2.0307,2.0352,2.0475,2.0484,2.0536,2.0565,2.0586,2.0605,2.0605,2.0605,2.0605,2.0605,2.0605,2.0605,2.0605,2.0605,2.0605,2.0586,2.0475,2.0755,2.1227,2.1205,2.0808,2.0389,2.6483,2.802,0.0,2.9843,0.0,0.0,3.0618,3.1211,3.19,3.2968,3.4666,0.0,3.5864,3.6914,3.7808,3.83,3.8156,0.0,3.7,0.0,0.0,3.3844,3.2926,3.2063,3.1274,2.915,0.0,2.7126,0.0,0.0,2.4171,0.0,0.0,0.0,0.0,2.3639,2.4814,2.6447,2.786,2.8994,2.8994,2.8994,0.0,2.8994,2.8723,2.8154,2.6888,2.6209,2.586,2.5401,2.5016,2.4722,2.4722,2.4483,2.419,2.419,2.4247,2.4321,2.4228,2.4339,2.4528,2.4746,2.4482,2.4214,2.4411,2.4274,2.4034,2.3831,2.3501,2.319,0.0,0.0,0.0,0.0,0.0,0.0,0.0,0.0,0.0,0.0,1.7432,0.0,0.0,1.4831,1.5447,1.5174,1.6383,0.0,0.0,1.9412,1.9799,2.0337,2.0366,2.0435,2.054,2.0912,2.113,2.1172,2.1543,2.1738,2.1719,2.1348,2.1172,2.1152,2.0762,2.0605,2.0605,2.0605,2.0585,2.0579,2.0823,2.1378,2.21,2.2504,2.21,2.1408,2.881,0.0,0.0,0.0,0.0,0.0,3.2965,3.2945,3.3131,3.3744,0.0,3.5189,3.4822,3.6412,3.7626,3.8021,3.8463,3.8132,3.6707,3.7165,3.6523,3.4376,3.4009,3.3542,3.2847,2.997,2.8279,0.0,2.5783,2.4552,2.4133,0.0,0.0,0.0,0.0,0.0,0.0,2.7145,2.8264,2.8994,2.8994,2.8994,2.8994,2.8994,2.8994,2.8902,2.8209,2.7438,2.6741,2.6649,2.6135,2.5568,2.5568,2.5071,2.4483,2.4392,2.4505,2.461,2.4321,2.4512,2.4804,2.4814,2.4917,2.5046,2.5253,2.4755,2.4447,2.5159,2.4061,2.3346,2.461,0.0,0.0,0.0,0.0,0.0,0.0,0.0,0.0,0.0,0.0,0.0,0.0,0.0,0.0,0.0,1.5496,0.0,0.0,0.0,2.0094,2.0387,2.0589,2.0693,2.0762,2.1621,2.207,2.207,2.2812,2.3184,2.3164,2.2402,2.207,2.2031,2.1269,2.0937,2.0937,2.0937,2.0872,2.0876,2.1521,2.2265,2.3071,2.3821,2.3687,2.3004,3.1276,0.0,0.0,0.0,0.0,3.513,3.6028,3.618,3.6191,3.6214,3.8139,3.9091,3.794,3.8544,3.8975,3.8833,3.8885,0.0,0.0,0.0,0.0,3.6853,3.5205,3.4244,3.4099,3.0659,2.8561,2.7879,2.5817,2.4446,2.3795,0.0,0.0,0.0,0.0,0.0,2.6447,2.7402,0.0,2.8994,2.8994,2.8994,2.8994,2.8994,2.8994,2.8975,2.8851,2.8282,2.7493,2.6833,2.6521,2.6392,2.6392,2.63,2.6043,2.5364,2.5319,2.5353,2.463,2.4623,2.4832,2.4943,2.4986,2.5046,2.5253,2.5187,2.5139,2.5264,2.5043,2.4657,2.4121,0.0,0.0,0.0,0.0,0.0,0.0,0.0,0.0,0.0,0.0,1.8539,0.0,0.0,0.0,0.0,0.0,1.7151,1.8684,0.0,1.8901,2.0348,2.1157,2.1593,2.168,2.2539,2.2949,2.2891,2.3047,2.3125,2.3105,2.3027,2.2969,2.2969,2.2754,2.2654,2.2658,2.2658,2.2598,2.2487,2.2617,2.3153,2.3898,2.4033,2.4409,2.4755,3.4875,0.0,0.0,0.0,0.0,0.0,3.769,3.8252,3.8184,3.6966,3.7882,3.8225,3.7158,3.8226,3.8947,3.8788,3.9046,3.912,3.8888,3.8503,3.7921,3.7103,3.6132,3.5076,3.4005,3.1661,2.9614,2.7897,2.6276,2.4857,2.3692,2.3876,0.0,0.0,0.0,2.5474,0.0,0.0,2.8264,2.8994,2.8994,2.8994,2.8994,2.8994,2.8994,2.8994,2.8994,2.8737,2.8374,2.7989,2.7567,2.7218,2.7218,2.6943,2.6542,2.6261,2.632,2.6401,2.604,2.5854,2.5716,2.5678,2.5401,2.5173,2.5274,2.5303,2.5303,2.5303,2.5303,2.5024,2.411,2.3275,0.0,0.0,0.0,0.0,0.0,0.0,0.0,0.0,0.0,0.0,0.0,0.0,0.0,0.0,0.0,1.6849,1.7664,1.8232,1.9107,2.0371,2.1347,2.1873,2.1894,2.3141,2.3743,2.3724,2.4141,2.4349,2.433,2.3918,2.3723,2.3684,2.3235,2.3046,2.3042,2.3017,2.3201,2.3526,2.352,2.4011,2.4716,2.4716,2.4966,2.5111,0.0,3.7929,0.0,0.0,3.8443,3.8422,3.8493,3.9395,3.9445,3.7719,3.7483,3.7246,3.6637,3.7969,3.8905,3.8866,3.935,3.9465,3.9101,3.9032,3.8472,3.7246,3.6698,3.5668,3.4129,3.2525,3.0508,2.8127,2.6775,2.532,2.3817,2.3743,0.0,0.0,0.0,0.0,0.0,0.0,2.8613,2.9512,2.9512,2.9512,2.9512,2.9512,2.9402,2.925,2.925,2.914,2.8994,2.8994,2.8594,2.8062,2.8062,2.7665,2.7179,2.7158,2.7336,2.7509,2.7407,2.7135,2.6781,2.6438,2.5979,2.5534,2.5341,2.5303,2.5303,2.5303,2.5303,2.5063,2.4245,2.3678,0.0,0.0,0.0,0.0,0.0,0.0,0.0,0.0,0.0,0.0,1.6721,0.0,0.0,0.0,0.0,1.6387,1.6734,1.8134,1.9374,2.0371,2.1538,2.2167,2.2167,2.3749,2.4553,2.4553,2.52,2.5493,2.5474,2.4783,2.4472,2.4433,2.3806,2.3524,2.3503,2.3443,2.3775,2.4366,2.4368,2.4736,2.5303,2.5303,2.5303,2.5091,0.0,0.0,0.0,0.0,0.0,3.8819,3.8532,3.9395,4.0003,3.98,3.9766,3.9732,3.9665,3.9833,3.9842,3.9623,4.0157,4.0176,3.9421,3.9191,3.8994,3.8797,3.6635,3.5521,3.5757,3.28,3.0493,0.0,0.0,2.546,2.4251,2.3885,2.4278,0.0,0.0,0.0,2.8773,2.8847,2.9769,3.1182,3.1182,3.1182,3.1182,3.1182,3.0723,3.0099,3.0099,2.9622,2.8994,2.8994,2.8938,2.8906,2.8906,2.8993,2.8981,2.8202,2.8301,2.8479,2.7782,2.7661,2.7582,2.6773,2.6514,2.6274,2.5476,2.5303,2.5303,2.5303,2.5303,2.5063,2.4245,2.462,2.4582,0.0,0.0,0.0,0.0,0.0,2.104,1.9317,0.0,0.0,0.0,1.5849,0.0,0.0,1.5236,1.6057,1.751,1.7858,1.8756,2.0352,2.207,2.2986,2.2986,2.4588,2.5381,2.5381,2.5454,2.5493,2.5493,2.5411,2.5372,2.5372,2.5294,2.5238,2.5161,2.5108,2.513,2.5188,2.5197,2.5226,2.5303,2.5303,2.5303,2.5168,0.0,0.0,3.9536,3.9364,3.9002,3.898,3.9824,4.0306,4.0703,4.1059,4.0514,4.007,4.007,4.007,4.0167,4.0395,4.0635,4.0742,4.0617,4.0056,3.9427,3.8665,3.722,3.6025,3.5134,3.4134,3.2342,0.0,0.0,2.7648,2.572,2.5338,2.575,2.6869,2.7842,2.8815,2.9751,3.0246,3.0797,3.1384,3.1384,3.1384,3.1384,3.1384,3.1201,3.0907,3.0907,3.0705,3.0448,3.0448,2.9904,2.9225,2.9225,2.9414,2.9532,2.9314,2.938,2.9475,2.9309,2.896,2.8544,2.8179,2.7332,2.6505,2.6159,2.5668,2.5303,2.5303,2.5303,2.5187,2.4889,2.4697,2.4524,2.4332,0.0,0.0,0.0,0.0,0.0,2.0745,0.0,1.9317,0.0,1.7215,0.0,0.0,0.0,1.5206,1.6897,1.7563,1.8432,1.9576,2.1889,2.3071,2.3046,2.4646,2.5441,2.5441,2.5406,2.5376,2.5376,2.5376,2.5376,2.5376,2.5376,2.5371,2.5339,2.5313,2.5303,2.5303,2.5303,2.5303,2.5303,2.5303,2.5303,2.5245,4.0856,4.035,4.0079,4.0758,3.9974,3.9582,4.0747,4.078,4.0844,4.1241,4.072,4.0336,4.0336,4.0336,4.0497,4.0856,4.1041,4.1288,4.1483,4.0921,4.02,3.9323,3.8019,0.0,3.5873,3.548,3.4073,3.1499,3.1157,2.9947,2.7923,2.7265,2.7515,2.8558,2.9696,3.0467,3.0944,3.1513,3.188,3.21,3.21,3.21,3.21,3.21,3.1953,3.1751,3.1751,3.1586,3.1384,3.1384,3.0826,3.012,3.0102,3.0076,3.0107,3.0335,3.0252,3.015,3.0355,2.9948,2.941,2.9159,2.8025,2.6928,2.6659,2.5928,2.5303,2.5303,2.5303,2.5303,2.5303,2.4832,2.4562,2.4889,0.0,0.0,0.0,2.33,0.0,2.1707,2.0598,1.9671,1.9061,1.8003,0.0,0.0,0.0,1.5672,1.7171,1.7667,1.8516,1.9841,2.1957,2.3166,2.3348,2.4684,2.5379,2.5371,2.5331,2.5303,2.5303,2.5303,2.5303,2.5303,2.5303,2.5303,2.5303,2.5303,2.5303,2.5303,2.5303,2.5303,2.5303,2.5303,2.5303,2.5303,4.078,4.0886,4.0886,4.0903,4.0886,4.0886,4.0903,4.0449,4.0121,4.0121,4.0577,4.0903,4.0903,4.0903,4.0903,4.0903,4.1446,4.1793,4.1775,4.1615,4.1449,0.0,0.0,3.8051,3.903,3.6594,3.5168,3.4818,0.0,3.2036,3.0812,2.9564,2.9397,3.0173,3.0191,3.1091,3.2577,3.2596,3.3054,3.377,3.377,3.377,3.377,3.377,3.3275,3.2596,3.2596,3.2063,3.1384,3.1384,3.1584,3.1756,3.1763,3.135,3.0939,3.121,3.0866,3.0398,3.0398,3.0379,3.0179,2.9313,2.8486,2.7659,2.6794,2.5928,2.5303,2.5303,2.5303,2.5303,2.5303,2.5284,2.5024,2.4245,0.0,0.0,0.0,2.2914,0.0,2.1701,2.0069,1.9011,1.8996,1.7484,0.0,0.0,0.0,0.0,1.9016,1.8328,1.9087,2.1681,2.2569,2.3373,2.4175,2.4938,2.5313,2.5313,2.5303,2.5303,2.5303,2.5303,2.5303,2.5303,2.5303,2.5303,2.5303,2.5303,2.5303,2.5303,2.5303,2.5303,2.5303,2.5303,2.5303,2.5303,4.0336,4.0368,4.0368,4.0368,4.0368,4.0497,4.0856,4.075,4.0797,4.1196,4.1402,4.1534,4.1534,4.1133,4.1087,0.0,4.1313,4.1534,0.0,4.1805,4.1449,4.1467,4.0159,3.9165,3.861,3.813,3.7129,3.5669,0.0,3.436,3.2876,3.302,3.323,3.3486,3.41,3.4633,3.5128,3.5128,3.5275,3.5495,3.5495,3.5147,3.4633,3.4633,3.4137,3.3421,3.3421,3.3256,3.3036,3.3036,3.3096,3.3204,3.3366,3.2785,3.2031,3.2316,3.1872,3.1295,3.1295,3.0852,3.0321,3.0063,2.9352,2.8486,2.7659,2.6351,2.5303,2.5303,2.5303,2.5303,2.5303,2.5303,2.5207,2.4966,2.5149,0.0,2.4608,0.0,2.3392,2.2516,2.1394,2.0485,1.9938,1.9408,0.0,0.0,0.0,1.8551,1.8298,1.9682,2.0625,2.0897,2.2799,2.3941,2.4193,2.4924,2.5303,2.5303,2.5303,2.5303,2.5303,2.5303,2.5303,2.5303,2.5303,2.5303,2.5303,2.5303,2.5303,2.5303,2.5303,2.5303,2.5303,2.5303,2.5303,2.5303,4.007,4.0237,4.0417,4.0417,4.0417,4.048,4.0874,4.0903,4.0949,4.115,4.1534,4.1707,4.149,4.1313,4.149,4.208,4.1793,4.1979,4.2939,4.2505,4.2214,4.225,4.1289,4.0492,3.9876,3.9644,3.8886,3.7449,3.6978,3.6211,3.5183,3.5404,3.5495,3.5514,3.6064,3.6303,3.6303,3.6303,3.6303,3.6303,3.6303,3.5973,3.5495,3.5495,3.5183,3.4743,3.4743,3.4523,3.4266,3.4266,3.4045,3.3842,3.4123,3.3799,3.3308,3.3264,3.2724,3.2083,3.1775,3.1295,3.0814,3.0475,2.9737,2.889,2.8082,2.6794,2.5793,2.5793,2.5534,2.5303,2.5303,2.5303,2.5303,2.5303,2.5303,2.5303,2.5303,0.0,2.3948,0.0,0.0,2.1868,2.1324,2.1285,2.1263,0.0,0.0,2.0657,1.9862,2.0724,2.147,2.1947,2.3436,2.4384,2.469,2.5108,2.5321,2.5303,2.5303,2.5303,2.5303,2.5303,2.5303,2.5303,2.5303,2.5303,2.5303,2.5303,2.5303,2.5303,2.5303,2.5303,2.5303,2.5303,2.5303,2.5303,4.0172,4.0566,4.0926,4.0874,4.0856,4.0856,4.0856,4.0856,4.0655,4.0171,4.103,4.149,4.0949,4.1402,4.1979,4.2559,4.2655,4.2864,4.341,4.3444,4.3444,4.3497,4.2287,4.1832,4.2304,4.1104,4.0288,3.9974,3.8414,3.7691,3.7643,3.6835,3.6468,3.6468,3.6468,3.6468,3.6468,3.6468,3.6468,3.6468,3.6468,3.6431,3.6376,3.6376,3.634,3.6303,3.6303,3.5789,3.5082,3.5082,3.4559,3.3934,3.4167,3.4458,3.4603,3.4046,3.3451,3.2833,3.2083,3.1795,3.1506,3.0698,2.9794,2.892,2.8161,2.7334,2.6669,2.6611,2.5967,2.537,2.5322,2.5313,2.5313,2.5303,2.5303,2.5303,2.5303,2.4725,2.4258,2.4206,0.0,2.3047,2.2914,2.294,2.2939,2.281,0.0,2.3888,2.3134,2.1611,2.189,2.4316,2.4385,2.4742,2.5493,2.5434,2.5379,2.5303,2.5303,2.5303,2.5313,2.5313,2.5313,2.5313,2.5313,2.5313,2.5313,2.5313,2.5313,2.5303,2.5303,2.5293,2.5303,2.5303,2.5303,2.5303,4.1052,4.1019,4.0967,4.0389,4.0286,4.0286,4.0286,4.0286,4.0254,4.0121,4.0336,4.0594,4.0856,4.1041,4.1358,4.1937,4.2021,4.2244,4.2864,4.2902,4.305,4.3479,4.3208,4.2789,4.2304,4.1983,4.1489,4.0836,3.9808,3.9313,3.9294,3.8505,3.8138,3.8138,3.8138,3.8138,3.8138,3.8138,3.8138,3.8138,3.8138,3.7753,3.7202,3.7202,3.6817,3.6303,3.6303,3.6174,3.5991,3.5991,3.5422,3.4724,3.4788,3.4758,3.4716,3.4769,3.4351,3.3853,3.366,3.266,3.166,3.1448,3.0237,2.9058,2.8916,2.8257,2.7473,2.6804,2.6553,2.6223,2.5507,2.5415,2.5434,2.5376,2.5387,2.5376,2.5376,2.5236,2.4911,0.0,2.4112,2.3709,2.2972,2.3502,2.3596,2.2868,0.0,2.4151,2.3999,2.3657,2.3769,2.4375,2.499,2.5369,2.5493,2.5428,2.5391,2.5376,2.5387,2.5406,2.5459,2.5459,2.5459,2.5459,2.5459,2.5459,2.5459,2.5459,2.5421,2.5376,2.5376,2.5357,2.5303,2.5303,2.5303,2.5303,4.1779,4.1694,4.1576,4.117,4.0815,4.0595,4.0595,4.0508,4.0368,4.0121,4.0336,4.0497,4.0528,4.1013,4.1446,4.175,4.181,4.208,4.2655,4.2711,4.2939,4.3497,4.3497,4.3296,4.2855,4.2837,4.2451,4.1662,4.0836,4.0451,4.0451,4.001,3.9808,3.9808,3.9808,3.9588,3.9239,3.9239,3.9038,3.8707,3.8707,3.8432,3.8046,3.8046,3.7771,3.7404,3.7404,3.7147,3.6835,3.6835,3.6285,3.5615,3.5725,3.5702,3.5622,3.5646,3.5232,3.4718,3.4314,3.3545,3.266,3.1891,3.0987,3.0183,2.9834,2.9128,2.8415,2.7939,2.7297,2.6636,2.6126,2.5712,2.5447,2.5413,2.5406,2.5406,2.5394,2.5459,2.5338,2.4946,2.4927,2.4729,2.4194,2.4555,2.4622,2.4076,2.4526,2.4865,2.4891,2.4954,2.498,2.498,2.5427,2.5601,2.5493,2.5406,2.5346,2.5354,2.5395,2.5408,2.5465,2.5498,2.5493,2.5493,2.5493,2.5493,2.5493,2.5493,2.5488,2.5447,2.5408,2.5376,2.5329,2.5313,2.5303,2.5303,4.2489,4.2472,4.2422,4.2303,4.1779,4.1373,4.1373,4.1116,4.0796,4.0341,4.0566,4.0625,4.0171,4.0938,4.1534,4.1534,4.1639,4.1979,4.277,4.2732,4.2939,4.3497,4.3497,4.3497,4.3497,4.3497,4.3167,4.2488,4.168,4.1295,4.1295,4.1167,4.1111,4.1111,4.1111,4.0726,4.0084,4.0084,3.968,3.9074,3.9074,3.9074,3.9056,3.8927,3.8891,3.8872,3.8744,3.8267,3.7661,3.7661,3.7147,3.6507,3.6745,3.6807,3.6713,3.6482,3.6077,3.5488,3.4622,3.4295,3.3833,3.2275,3.1795,3.1506,3.0779,2.9989,2.9389,2.9253,2.8157,2.7175,2.7021,2.6254,2.5622,2.5607,2.549,2.5427,2.5415,0.0,2.5603,2.5607,2.5661,2.5662,2.5605,2.5601,2.5567,2.5517,2.5561,2.5601,2.5601,2.5661,2.5703,2.5703,2.5683,2.5629,2.5498,2.5363,2.5313,2.5313,2.5376,2.5415,2.5434,2.5489,2.5539,2.5539,2.5539,2.5539,2.5539,2.5539,2.5511,2.5517,2.544,2.5428,2.5401,2.5348,2.5313,2.5313,4.3369,4.325,4.3047,4.2405,4.2202,4.2117,4.2117,4.1595,4.1104,4.1035,4.0561,4.0204,4.0121,4.0254,4.0385,4.0385,4.0797,4.169,4.3286,4.2939,4.2939,4.3497,4.3497,4.3497,4.3497,4.3497,4.3424,4.3296,4.2506,4.2121,4.2103,4.1423,4.1111,4.1111,4.1111,4.1038,4.0928,4.0928,4.0855,4.0744,4.0744,4.0744,4.0653,3.9974,3.9698,3.9625,3.8946,3.8615,3.8505,3.8505,3.7973,3.7323,3.7364,3.7229,3.7027,3.6982,3.6744,3.6353,3.5526,3.4757,3.3949,3.2968,3.2199,3.1677,3.1603,3.0964,3.0199,2.9505,2.926,2.8916,2.8058,2.7219,2.663,2.6512,2.5932,2.5473,2.5473,2.5554,2.5609,2.5683,2.5683,2.5662,2.5605,2.5601,2.5567,2.5517,2.5561,2.5601,2.5601,2.5661,2.5703,2.5703,2.5657,2.5554,2.5415,2.5348,2.5321,2.5395,2.5453,2.5503,2.5567,2.5636,2.5662,2.5662,2.5662,2.5662,2.5662,2.5662,2.5634,2.5573,2.5567,2.552,2.5488,2.5413,2.5376,2.5379,4.4113,4.4045,4.3927,4.3589,4.3521,4.3386,4.2963,4.2269,4.1644,4.1255,4.0899,4.0527,4.0121,4.0368,4.0528,4.0528,4.0733,4.1516,4.2958,4.2826,4.2939,4.3497,4.3497,4.3497,4.3497,4.3497,4.3497,4.3497,4.313,4.2947,4.2928,4.2561,4.2396,4.2396,4.2396,4.2158,4.1754,4.1754,4.1515,4.1111,4.1111,4.1111,4.1075,4.0689,4.0561,4.0506,4.0139,3.9717,3.935,3.935,3.8799,3.815,3.8311,3.8298,3.815,3.805,3.7387,3.6526,3.5718,3.5218,3.4699,3.3814,3.3314,3.282,3.1945,3.1502,3.1067,3.0217,2.9818,2.9451,2.8957,2.7757,2.6967,2.7338,2.6327,2.5664,2.6126,2.5885,2.5661,2.5703,2.5703,2.5683,2.566,2.5659,2.5636,2.5605,2.5634,2.5659,2.5659,2.5683,2.5683,2.5658,2.5573,2.5508,2.5406,2.533,2.5313,2.5357,2.5408,2.5473,2.5551,2.5627,2.5661,2.5703,2.5703,2.5703,2.5703,2.5703,2.5683,2.5658,2.5607,2.5558,2.5484,2.5421,2.5387,2.5348,4.4587,4.4587,4.4587,4.4587,4.4587,4.4384,4.3775,4.3047,4.2354,4.1796,4.1559,4.1238,4.0646,4.0979,4.115,4.0978,4.1103,4.1461,4.2221,4.2519,4.2939,4.3497,4.3497,4.3497,4.3497,4.3497,4.3497,4.3497,4.3497,4.3497,4.3497,4.3497,4.3497,4.3497,4.3497,4.3149,4.258,4.258,4.2213,4.1662,4.1662,4.1662,4.1644,4.146,4.1387,4.1368,4.1185,4.0708,4.0139,3.9955,3.9606,3.9246,3.9063,3.9193,3.9317,3.9056,3.8187,3.7084,3.6065,3.5795,3.5584,3.4718,3.4353,3.3853,3.2564,3.2058,3.1695,3.1022,3.0329,2.9837,2.9753,2.847,2.7615,2.8191,2.7064,2.6368,2.7026,2.6644,2.6309,2.6309,2.6309,2.6309,2.6309,2.6113,2.6094,2.6289,2.6113,2.5996,2.5996,2.5996,2.5877,2.5603,2.552,2.5477,2.5398,2.5357,2.5313,2.5303,2.5379,2.5441,2.5493,2.5554,2.5607,2.5682,2.5682,2.5682,2.5683,2.5683,2.5703,2.5683,2.5637,2.5573,2.5526,2.5453,2.5376,2.5322,4.4587,4.4587,4.4587,4.4587,4.4587,4.4553,4.4502,4.3826,4.3318,4.3267,4.2642,4.2185,4.2134,4.217,4.1899,4.1222,4.1675,4.1717,4.1094,4.208,4.2939,4.3497,4.3497,4.3497,4.3497,4.3497,4.3497,4.3497,4.3497,4.3497,4.3497,4.3497,4.3497,4.3497,4.3497,4.3461,4.3406,4.3406,4.3369,4.3314,4.3314,4.3314,4.3222,4.2506,4.2213,4.2121,4.1387,4.1075,4.091,4.0139,4.0359,4.0671,3.9197,3.9412,4.0122,3.9679,3.9338,3.8738,3.7065,3.6622,3.643,3.5622,3.4795,3.416,3.4026,3.2866,3.1786,3.1727,3.1129,3.0576,3.0447,2.981,2.9265,2.9125,2.8501,2.8023,2.8098,2.8101,2.8105,2.8105,2.8105,2.8105,2.8105,2.7383,2.7246,2.8047,2.7363,2.6894,2.6894,2.6894,2.6502,2.5622,2.552,2.5477,2.5398,2.5391,2.5354,2.5303,2.5379,2.5441,2.5493,2.5517,2.5547,2.5605,2.5605,2.5605,2.5607,2.5662,2.5703,2.5703,2.5683,2.5658,2.5573,2.5526,2.5453,2.5376,4.4587,4.4587,4.4587,4.4587,4.4587,4.4587,4.4587,4.4333,4.3961,4.3487,4.3166,4.2811,4.2337,4.2286,4.2185,4.1914,4.2108,4.226,4.2327,4.2783,4.301,4.3013,4.3321,4.3321,4.3014,4.3321,4.3497,4.3497,4.3497,4.3497,4.3497,4.3497,4.3497,4.3497,4.3497,4.3497,4.3497,4.3497,4.3497,4.3497,4.3497,4.3497,4.3461,4.3149,4.3039,4.3002,4.269,4.2268,4.1809,4.1497,4.1258,4.1001,4.0396,4.0251,4.0242,4.0,3.9984,3.9777,3.8623,3.7526,3.6507,3.5699,3.5257,3.4853,3.4314,3.3763,3.319,3.2658,3.1981,3.1488,3.1391,3.0336,2.9627,3.0017,2.9015,2.8396,2.894,2.8609,2.8301,2.8301,2.8301,2.8301,2.8301,2.8008,2.7949,2.8281,2.7988,2.7812,2.7812,2.7812,2.7636,2.7282,2.6729,2.6113,2.5471,2.5465,2.5453,2.5421,2.5453,2.5508,2.5561,2.5561,2.5601,2.5661,2.5661,2.5636,2.5603,2.5662,2.5658,2.557,2.5611,2.5567,2.5463,2.5453,2.5398,2.533,4.4587,4.4587,4.4587,4.4587,4.4587,4.4587,4.4587,4.4587,4.4384,4.3859,4.3792,4.3589,4.3064,4.3014,4.2912,4.2675,4.2642,4.2736,4.2927,4.3093,4.3156,4.3048,4.3377,4.3305,4.2711,4.3214,4.341,4.325,4.341,4.3497,4.3497,4.3497,4.3497,4.3497,4.3497,4.3497,4.3497,4.3497,4.3497,4.3497,4.3497,4.3497,4.3497,4.3497,4.3497,4.3497,4.3497,4.3149,4.2635,4.2396,4.2103,4.1772,4.1277,4.0905,4.0653,4.0397,4.0521,4.0526,3.955,3.843,3.7257,3.6161,3.5892,3.5661,3.4795,3.4429,3.4094,3.3495,3.2804,3.2285,3.2233,3.1373,3.0758,3.0967,3.0131,2.958,2.989,2.9451,2.9121,2.9121,2.9121,2.9121,2.9121,2.8867,2.8828,2.9101,2.8867,2.8711,2.8711,2.8457,2.8301,2.8301,2.7715,2.7086,2.6383,2.6092,2.592,2.5902,2.5902,2.5796,2.5601,2.557,2.5603,2.5662,2.5662,2.5637,2.5603,2.5662,2.5657,2.5561,2.5595,2.5539,2.5428,2.5401,2.5363,2.5303,4.4587,4.4587,4.4587,4.4587,4.4587,4.4587,4.4587,4.4587,4.4587,4.4587,4.4587,4.4587,4.4587,4.4587,4.4265,4.3504,4.342,4.3115,4.2354,4.2877,4.3372,4.3782,4.3786,4.3466,4.2729,4.3232,4.325,4.2711,4.325,4.3497,4.3497,4.3497,4.3497,4.3497,4.3497,4.3497,4.3497,4.3497,4.3497,4.3497,4.3497,4.3497,4.3497,4.3497,4.3497,4.3497,4.3497,4.3497,4.3369,4.258,4.2837,4.3222,4.1625,4.136,4.1521,4.0961,4.1048,4.0997,3.9676,3.9315,3.8892,3.7142,3.6719,3.6507,3.5699,3.4834,3.4218,3.4199,3.3569,3.2995,3.2916,3.3118,3.2994,3.2052,3.2085,3.1914,3.1035,3.0918,3.0918,3.0898,3.0898,3.0898,3.0898,3.0117,2.9961,3.082,3.0098,2.9609,2.9609,2.8789,2.832,2.832,2.8301,2.8301,2.832,2.7373,2.6874,2.6807,2.6807,2.6385,2.562,2.5559,2.5543,2.5601,2.5601,2.5601,2.5603,2.5662,2.5703,2.5683,2.5631,2.5558,2.5484,2.5421,2.5363,2.5303,4.4671,4.4587,4.4587,4.4587,4.4587,4.4587,4.4587,4.4587,4.4587,4.4587,4.4587,4.4587,4.4587,4.4587,4.4485,4.4248,4.4231,4.413,4.391,4.4096,4.4182,4.4148,4.4031,4.3596,4.2857,4.3408,4.3559,4.325,4.341,4.3497,4.3497,4.3497,4.3497,4.3497,4.3497,4.3497,4.3497,4.3497,4.3497,4.3497,4.3497,4.3497,4.3497,4.3497,4.3497,4.3497,4.3497,4.3497,4.3442,4.3222,4.3296,4.3314,4.2268,4.216,4.2292,4.1568,4.1167,4.0912,4.0749,4.0291,3.9503,3.7982,3.7603,3.7392,3.6546,3.6142,3.5795,3.5238,3.4465,3.3915,3.3892,3.3563,3.322,3.2931,3.2977,3.2754,3.1934,3.1816,3.1582,3.0976,3.0898,3.0898,3.0898,3.0664,3.0625,3.0879,3.0664,3.0508,3.0508,3.0273,3.0117,3.0117,2.9531,2.9512,3.0117,2.8632,2.7868,2.7843,2.7843,2.7729,2.7478,2.685,2.6557,2.6541,2.5935,2.5637,2.5603,2.5662,2.5637,2.5558,2.5543,2.5498,2.5415,2.5354,2.5322,2.5303,4.5551,4.5449,4.5365,4.5077,4.5026,4.4925,4.4621,4.4587,4.4587,4.4587,4.4587,4.4587,4.4587,4.4587,4.4587,4.4587,4.4587,4.4587,4.4587,4.4587,4.4517,4.4437,4.4284,4.3851,4.3033,4.3828,4.396,4.3262,4.3743,4.3809,4.3497,4.3497,4.3497,4.3497,4.3497,4.3497,4.3497,4.3497,4.3497,4.3497,4.3497,4.3497,4.3497,4.3497,4.3497,4.3497,4.3497,4.3497,4.3497,4.3497,4.3497,4.3406,4.2928,4.2912,4.2952,4.227,4.1857,4.1518,4.1196,4.0838,4.0291,3.9136,3.8677,3.8296,3.7411,3.6949,3.6565,3.6084,3.5323,3.4766,3.4766,3.4464,3.4113,3.3809,3.3821,3.359,3.2793,3.2676,3.248,3.1953,3.1894,3.1758,3.1445,3.1406,3.1269,3.0937,3.0898,3.0898,3.0898,3.0898,3.0898,3.0898,3.0391,3.0371,3.0898,2.9844,2.916,2.8809,2.8809,2.8633,2.8281,2.7754,2.7519,2.748,2.6953,2.6718,2.6672,2.6718,2.6674,2.6568,2.6197,2.6033,2.5949,2.5529,2.5363,2.5348,4.6802,4.6786,4.6583,4.5923,4.5805,4.5568,4.4874,4.4722,4.4671,4.4671,4.4621,4.4587,4.4587,4.4587,4.4587,4.4587,4.4587,4.4587,4.4587,4.4587,4.4587,4.4587,4.4587,4.4221,4.3335,4.4405,4.4324,4.3093,4.4191,4.4344,4.3611,4.3626,4.3589,4.352,4.3516,4.3497,4.3497,4.3497,4.3497,4.3497,4.3497,4.3497,4.3497,4.3497,4.3497,4.3497,4.3497,4.3497,4.3497,4.3497,4.3497,4.3497,4.3497,4.3497,4.3401,4.2984,4.2797,4.2497,4.1311,4.1075,4.1049,4.0386,3.9789,3.9146,3.8315,3.7507,3.6892,3.6738,3.6122,3.5603,3.5512,3.555,3.5379,3.4715,3.4642,3.4426,3.3612,3.3515,3.3476,3.3418,3.3398,3.3105,3.2383,3.2305,3.1973,3.1172,3.1055,3.1016,3.1016,3.0937,3.0898,3.0898,3.0898,3.0898,3.0898,3.0898,3.0508,2.9726,2.9726,2.9297,2.8535,2.8457,2.8418,2.8418,2.832,2.8301,2.8301,2.8301,2.8301,2.8203,2.735,2.7027,2.6908,2.6041,2.5685,2.5621,4.6904,4.6786,4.6735,4.6583,4.6549,4.6498,4.6329,4.5821,4.5466,4.5466,4.4942,4.4587,4.4587,4.4587,4.4587,4.4587,4.4587,4.4587,4.4587,4.4587,4.4587,4.4587,4.4587,4.4529,4.4283,4.4404,4.4477,4.4527,4.4809,4.4856,4.4675,4.451,4.42,4.3733,4.356,4.3497,4.3497,4.3497,4.3497,4.3497,4.3497,4.3497,4.3497,4.3497,4.3497,4.3497,4.3497,4.3497,4.3497,4.3497,4.3497,4.3497,4.3497,4.3497,4.3495,4.3361,4.2897,4.2405,4.2366,4.1474,4.0616,4.0969,4.0463,3.9772,3.9169,3.8873,3.8354,3.6988,3.6565,3.6257,3.5622,3.555,3.5543,3.5389,3.5414,3.5193,3.4443,3.4332,3.4107,3.3476,3.3398,3.332,3.3164,3.3144,3.3066,3.2871,3.2266,3.1914,3.1914,3.1269,3.0898,3.0898,3.0898,3.0898,3.0898,3.0898,3.0801,3.0625,3.0625,3.0527,3.0312,2.9629,2.9316,2.9277,2.8594,2.8301,2.8301,2.8301,2.8301,2.8262,2.8016,2.7928,2.7884,2.7628,2.7522,2.7409,4.7936,4.7851,4.7733,4.7394,4.7327,4.7208,4.6836,4.6464,4.6227,4.6227,4.5872,4.5635,4.5635,4.5331,4.5111,4.5111,4.479,4.4739,4.5094,4.4773,4.4587,4.4587,4.4587,4.4587,4.4587,4.4477,4.4508,4.465,4.4947,4.5054,4.5021,4.4901,4.4853,4.4796,4.4693,4.4433,4.4066,4.4066,4.3846,4.3497,4.3497,4.3497,4.3497,4.3497,4.3497,4.3497,4.3497,4.3497,4.3497,4.3497,4.3497,4.3497,4.3497,4.3497,4.3497,4.3497,4.3185,4.2849,4.2622,4.205,4.139,4.0935,4.064,4.0344,3.9964,3.9565,3.9027,3.8123,3.7603,3.7199,3.6776,3.6382,3.6141,3.622,3.5902,3.5531,3.5168,3.512,3.4987,3.4636,3.4582,3.4449,3.4062,3.3633,3.3398,3.3398,3.3008,3.2773,3.2773,3.2344,3.1914,3.1523,3.1523,3.1328,3.0898,3.0898,3.0898,3.0898,3.0898,3.0898,3.0879,3.043,3.0215,3.0195,2.9746,2.9531,2.9531,2.9531,2.9531,2.9492,2.904,2.8862,2.8802,2.8362,2.819,2.8014,4.9001,4.9001,4.8815,4.8206,4.8105,4.7885,4.7259,4.7056,4.6989,4.6989,4.687,4.6786,4.6786,4.6244,4.5889,4.5889,4.5314,4.5229,4.5855,4.5314,4.4908,4.4773,4.4773,4.4705,4.4587,4.4587,4.4562,4.4491,4.5019,4.5275,4.5234,4.5209,4.5479,4.5956,4.592,4.5535,4.4911,4.4911,4.4433,4.3699,4.3699,4.3608,4.3497,4.3497,4.3497,4.3497,4.3497,4.3497,4.3497,4.3497,4.3497,4.3497,4.3497,4.3497,4.3497,4.3497,4.3497,4.3332,4.269,4.2608,4.2407,4.1053,4.0836,4.0868,4.0614,3.9967,3.9404,3.9315,3.8719,3.818,3.8027,3.7411,3.6914,3.6861,3.6265,3.5756,3.5687,3.5682,3.5736,3.5845,3.5869,3.5594,3.4936,3.4215,3.3785,3.3785,3.3668,3.359,3.359,3.3453,3.3062,3.2398,3.2378,3.2026,3.1304,3.1284,3.1226,3.1071,3.1226,3.115,3.0898,3.0898,3.0898,3.0898,3.0898,3.0898,3.0898,3.0898,3.0898,3.082,3.0098,2.9824,2.9726,2.9004,2.8611,2.8323,4.9001,4.9001,4.8968,4.8883,4.8849,4.8832,4.8714,4.8173,4.7767,4.7767,4.7192,4.6786,4.6786,4.6701,4.665,4.665,4.6549,4.6532,4.6633,4.6549,4.621,4.5585,4.5551,4.5246,4.4587,4.4587,4.4855,4.5355,4.5389,4.5705,4.6187,4.6101,4.6068,4.6155,4.5991,4.5847,4.5736,4.5736,4.5278,4.4544,4.4544,4.4121,4.3497,4.3497,4.3497,4.3497,4.3497,4.3497,4.3497,4.3497,4.3497,4.3497,4.3497,4.3497,4.3497,4.3497,4.3497,4.3461,4.3369,4.2852,4.2378,4.2463,4.1967,4.1343,4.0863,4.0359,3.9869,3.94,3.92,3.8892,3.8142,3.7892,3.7565,3.6843,3.6631,3.6331,3.5698,3.5621,3.5648,3.571,3.5723,3.569,3.558,3.5463,3.5385,3.5385,3.4742,3.4347,3.4347,3.3646,3.3173,3.3075,3.3056,3.3017,3.29,3.29,3.2511,3.1777,3.253,3.2198,3.0898,3.0898,3.0898,3.0898,3.0898,3.0898,3.0898,3.0898,3.0898,3.0898,3.0762,3.0723,3.0703,3.0586,3.0078,2.9394,4.9001,4.9001,4.9001,4.9001,4.9001,4.9001,4.9001,4.8731,4.8528,4.8528,4.824,4.8037,4.8037,4.7665,4.7411,4.7411,4.7039,4.6972,4.7394,4.7022,4.665,4.6329,4.6312,4.5974,4.5229,4.5213,4.5145,4.4998,4.4998,4.5648,4.6955,4.6507,4.6672,4.735,4.7274,4.7003,4.6581,4.6581,4.6122,4.5369,4.5369,4.5149,4.4782,4.4342,4.4176,4.4103,4.3644,4.3497,4.3497,4.3497,4.3497,4.3497,4.3497,4.3497,4.3497,4.3497,4.3497,4.3497,4.3497,4.3222,4.2889,4.2608,4.2253,4.1878,4.1353,4.1079,4.0656,3.9678,3.9471,3.9414,3.9199,3.8776,3.8386,3.8185,3.7738,3.7305,3.7,3.6942,3.6791,3.6415,3.6406,3.6229,3.5742,3.5703,3.5703,3.5703,3.5373,3.5178,3.5178,3.4802,3.4393,3.3939,3.392,3.3686,3.3193,3.3193,3.2999,3.2636,3.3018,3.2343,3.0792,3.1298,3.1284,3.0898,3.0898,3.0898,3.0898,3.0898,3.0898,3.0898,3.0898,3.0898,3.0898,3.0898,3.0664,3.0254]}]]